[[{"header":{"parameterUnit":"m.s-1","parameterCategory":1,"la1":30.6,"la2":29.2853,"lo1":-89.7004,"lo2":-87.6739,"dy":0.0162,"dx":0.0183,"nx":112,"ny":82,"refTime":"2023-05-15T06:00:00:Z","depth":0,"parameterNumber":2,"parameterNumberName":"U-component_of_WINDS"},"data":[0.0,0.0,0.0,0.0,0.0,0.0,0.0,0.0,0.0,0.0,0.0,0.0,0.0,0.0,0.0,0.0,0.0,0.0,0.0,0.0,0.0,0.0,0.0,0.0,0.0,0.0,0.0,0.0,0.0,0.0,0.0,0.0,0.0,0.0,0.0,0.0,0.0,0.0,0.0,0.0,0.0,0.0,0.0,0.0,0.0,0.0,0.0,0.0,0.0,0.0,0.0,0.0,0.0,0.0,0.0,0.0,0.0,0.0,0.0,0.0,0.0,0.0,0.0,0.0,0.0,0.0,0.0,0.0,0.0,0.0,0.0,0.0,0.0,0.0,0.0,0.0,0.0,0.0,0.0,0.0,0.0,0.0,0.0,0.0,0.0,0.0,0.0,0.0,0.0,0.0,-0.2301,-0.2467,-0.3001,-0.3333,-0.3313,-0.4787,-0.4925,-0.3156,0.0,0.0,0.0,0.0,0.0,0.0,0.0,0.0,0.0,0.0,0.0,0.0,0.0,0.0,0.0,0.0,0.0,0.0,0.0,0.0,0.0,0.0,0.0,0.0,0.0,0.0,0.0,0.0,0.0,0.0,0.0,0.0,0.0,0.0,0.0,0.0,0.0,0.0,0.0,0.0,0.0,0.0,0.0,0.0,0.0,0.0,0.0,0.0,0.0,0.0,0.0,0.0,0.0,0.0,0.0,0.0,0.0,0.0,0.0,0.0,0.0,0.0,0.0,0.0,0.0,0.0,0.0,0.0,0.0,0.0,0.0,0.0,0.0,0.0,0.0,0.0,0.0,0.0,0.0,0.0,0.0,0.0,0.0,0.0,0.0,0.0,0.0,0.0,0.0,0.0,0.0,0.0,0.0,0.0,0.0,0.0,0.0,0.0,0.0,0.0,0.0,0.0,0.0,0.0,-0.2963,-0.2997,-0.3342,-0.3861,-0.4632,-0.5235,-0.5315,-0.472,0.0,0.0,0.0,0.0,0.0,0.0,0.0,0.0,0.0,0.0,0.0,0.0,0.0,0.0,0.0,0.0,0.0,0.0,0.0,0.0,0.0,0.0,0.0,0.0,0.0,0.0,0.0,0.0,0.0,0.0,0.0,0.0,0.0,0.0,0.0,0.0,0.0,0.0,0.0,0.0,0.0,0.0,0.0,0.0,0.0,0.0,0.0,0.0,0.0,0.0,0.0,0.0,0.0,0.0,0.0,0.0,0.0,0.0,0.0,0.0,0.0,0.0,0.0,0.0,0.0,0.0,0.0,0.0,0.0,0.0,0.0,0.0,0.0,0.0,0.0,0.0,0.0,0.0,0.0,0.0,0.0,0.0,0.0,0.0,0.0,0.0,0.0,0.0,0.0,0.0,0.0,0.0,0.0,0.0,0.0,0.0,0.0,0.0,0.0,0.0,0.0,0.0,0.0,-0.3045,-0.3305,-0.3797,-0.4077,-0.459,-0.554,-0.5954,-0.5998,-0.5607,-0.5498,0.0,0.0,0.0,0.0,0.0,0.0,0.0,0.0,0.0,0.0,0.0,0.0,0.0,0.0,0.0,0.0,0.0,0.0,0.0,0.0,0.0,0.0,0.0,0.0,0.0,0.0,0.0,0.0,0.0,0.0,0.0,0.0,0.0,0.0,0.0,0.0,0.0,0.0,0.0,0.0,0.0,0.0,0.0,0.0,0.0,0.0,0.0,0.0,0.0,0.0,0.0,0.0,0.0,0.0,0.0,0.0,0.0,0.0,0.0,0.0,0.0,0.0,0.0,0.0,0.0,0.0,0.0,0.0,0.0,0.0,0.0,0.0,0.0,0.0,0.0,0.0,0.0,0.0,0.0,0.0,0.0,0.0,0.0,0.0,0.0,0.0,0.0,0.0,0.0,0.0,0.0,0.0,0.0,0.0,0.0,0.0,0.0,0.0,0.0,0.0,0.0,0.0,-0.338,-0.3655,-0.454,-0.4809,-0.5308,-0.6294,-0.6647,-0.6642,-0.6263,-0.6357,0.0,0.0,0.0,0.0,0.0,0.0,0.0,0.0,0.0,0.0,0.0,0.0,0.0,0.0,0.0,0.0,0.0,0.0,0.0,0.0,0.0,0.0,0.0,0.0,0.0,0.0,0.0,0.0,0.0,0.0,0.0,0.0,0.0,0.0,0.0,0.0,0.0,0.0,0.0,0.0,0.0,0.0,0.0,0.0,0.0,0.0,0.0,0.0,0.0,0.0,0.0,0.0,0.0,0.0,0.0,0.0,0.0,0.0,0.0,0.0,0.0,0.0,0.0,0.0,0.0,0.0,0.0,0.0,0.0,0.0,0.0,0.0,0.0,0.0,0.0,0.0,0.0,0.0,0.0,0.0,0.0,0.0,0.0,0.0,0.0,0.0,0.0,0.0,0.0,0.0,0.0,0.0,0.0,0.0,0.0,0.0,0.0,0.0,0.0,0.0,0.0,0.0,-0.4009,-0.4281,-0.4884,-0.5275,-0.5819,-0.686,-0.7056,-0.7031,-0.669,-0.6602,0.0,0.0,0.0,0.0,0.0,0.0,0.0,0.0,0.0,0.0,0.0,0.0,0.0,0.0,0.0,0.0,0.0,0.0,0.0,0.0,0.0,0.0,0.0,0.0,0.0,0.0,0.0,0.0,0.0,0.0,0.0,0.0,0.0,0.0,0.0,0.0,0.0,0.0,0.0,0.0,0.0,0.0,0.0,0.0,0.0,0.0,0.0,0.0,0.0,0.0,0.0,0.0,0.0,0.0,0.0,0.0,0.0,0.0,0.0,0.0,0.0,0.0,0.0,0.0,0.0,0.0,0.0,0.0,0.0,0.0,0.0,0.0,0.0,0.0,0.0,0.0,0.0,0.0,0.0,0.0,0.0,0.0,0.0,0.0,0.0,0.0,0.0,0.0,0.0,0.0,0.0,0.0,0.0,0.0,0.0,0.0,0.0,0.0,0.0,0.0,0.0,0.0,-0.4469,-0.5037,-0.5667,-0.614,-0.6792,-0.7586,-0.7757,-0.7602,-0.7253,0.0,0.0,0.0,0.0,0.0,0.0,0.0,0.0,0.0,0.0,0.0,0.0,0.0,0.0,0.0,0.0,0.0,0.0,0.0,0.0,0.0,0.0,0.0,0.0,0.0,0.0,0.0,0.0,0.0,0.0,0.0,0.0,0.0,0.0,0.0,0.0,0.0,0.0,0.0,0.0,0.0,0.0,0.0,0.0,0.0,0.0,0.0,0.0,0.0,0.0,0.0,0.0,0.0,0.0,0.0,0.0,0.0,0.0,0.0,0.0,0.0,0.0,0.0,0.0,0.0,0.0,0.0,0.0,0.0,0.0,0.0,0.0,0.0,0.0,0.0,0.0,0.0,0.0,0.0,0.0,0.0,0.0,0.0,0.0,0.0,0.0,0.0,0.0,0.0,0.0,0.0,0.0,0.0,0.0,0.0,0.0,0.0,0.0,0.0,0.0,0.0,0.0,-0.4419,-0.5073,-0.5756,-0.6185,-0.6685,-0.7239,-0.791,-0.7892,-0.7763,-0.7545,0.0,0.0,0.0,0.0,0.0,0.0,0.0,0.0,0.0,0.0,0.0,0.0,0.0,0.0,0.0,0.0,0.0,0.0,0.0,0.0,0.0,0.0,0.0,0.0,0.0,0.0,0.0,0.0,0.0,0.0,0.0,0.0,0.0,0.0,0.0,0.0,0.0,0.0,0.0,0.0,0.0,0.0,0.0,0.0,0.0,0.0,0.0,0.0,0.0,0.0,0.0,0.0,0.0,0.0,0.0,0.0,0.0,0.0,0.0,0.0,0.0,0.0,0.0,0.0,0.0,0.0,0.0,0.0,0.0,0.0,0.0,0.0,0.0,0.0,0.0,0.0,0.0,0.0,0.0,0.0,0.0,0.0,0.0,0.0,0.0,0.0,0.0,0.0,0.0,0.0,0.0,0.0,0.0,0.0,0.0,0.0,0.0,0.0,0.0,0.0,0.0,0.0,-0.512,-0.5879,-0.6341,-0.6211,-0.6638,-0.7109,-0.7571,-0.7576,-0.7536,0.0,0.0,0.0,0.0,0.0,0.0,0.0,0.0,0.0,0.0,0.0,0.0,0.0,0.0,0.0,0.0,0.0,0.0,0.0,0.0,0.0,0.0,0.0,0.0,0.0,0.0,0.0,0.0,0.0,0.0,0.0,0.0,0.0,0.0,0.0,0.0,0.0,0.0,0.0,0.0,0.0,0.0,0.0,0.0,0.0,0.0,0.0,0.0,0.0,0.0,0.0,0.0,0.0,0.0,0.0,0.0,0.0,0.0,0.0,0.0,0.0,0.0,0.0,0.0,0.0,0.0,0.0,0.0,0.0,0.0,0.0,0.0,0.0,0.0,0.0,0.0,0.0,0.0,0.0,0.0,0.0,0.0,0.0,0.0,0.0,0.0,0.0,0.0,0.0,0.0,0.0,0.0,0.0,0.0,0.0,0.0,0.0,0.0,0.0,0.0,0.0,0.0,0.0,-0.5575,-0.6091,-0.6467,-0.6526,-0.7074,-0.7539,-0.7934,-0.8037,-0.8007,-0.763,0.0,0.0,0.0,0.0,0.0,0.0,0.0,0.0,0.0,0.0,0.0,0.0,0.0,0.0,0.0,0.0,0.0,0.0,0.0,0.0,0.0,0.0,0.0,0.0,0.0,0.0,0.0,0.0,0.0,0.0,0.0,0.0,0.0,0.0,0.0,0.0,0.0,0.0,0.0,0.0,0.0,0.0,0.0,0.0,0.0,0.0,0.0,0.0,0.0,0.0,0.0,0.0,0.0,0.0,0.0,0.0,0.0,0.0,0.0,0.0,0.0,0.0,0.0,0.0,0.0,0.0,0.0,0.0,0.0,0.0,0.0,0.0,0.0,0.0,0.0,0.0,0.0,0.0,0.0,0.0,0.0,0.0,0.0,0.0,0.0,0.0,0.0,0.0,0.0,0.0,0.0,0.0,0.0,0.0,0.0,0.0,0.0,0.0,0.0,0.0,0.0,0.0,-0.6201,-0.651,-0.6706,-0.677,-0.7225,-0.7654,-0.7934,-0.8127,-0.7957,-0.7499,0.0,0.0,0.0,0.0,0.0,0.0,0.0,0.0,0.0,0.0,0.0,0.0,0.0,0.0,0.0,0.0,0.0,0.0,0.0,0.0,0.0,0.0,0.0,0.0,0.0,0.0,0.0,0.0,0.0,0.0,0.0,0.0,0.0,0.0,0.0,0.0,0.0,0.0,0.0,0.0,0.0,0.0,0.0,0.0,0.0,0.0,0.0,0.0,0.0,0.0,0.0,0.0,0.0,0.0,0.0,0.0,0.0,0.0,0.0,0.0,0.0,0.0,0.0,0.0,0.0,0.0,0.0,0.0,0.0,0.0,0.0,0.0,0.0,0.0,0.0,0.0,0.0,0.0,0.0,0.0,0.0,0.0,0.0,0.0,0.0,0.0,0.0,0.0,0.0,0.0,0.0,0.0,0.0,0.0,0.0,0.0,0.0,0.0,0.0,0.0,0.0,0.0,-0.6877,-0.7078,-0.7143,-0.6973,-0.7283,-0.761,-0.7858,-0.7845,-0.7644,-0.7283,0.0,0.0,0.0,0.0,0.0,0.0,0.0,0.0,0.0,0.0,0.0,0.0,0.0,0.0,0.0,0.0,0.0,0.0,0.0,0.0,0.0,0.0,0.0,0.0,0.0,0.0,0.0,0.0,0.0,0.0,0.0,0.0,0.0,0.0,0.0,0.0,0.0,0.0,0.0,0.0,0.0,0.0,0.0,0.0,0.0,0.0,0.0,0.0,0.0,0.0,0.0,0.0,0.0,0.0,0.0,0.0,0.0,0.0,0.0,0.0,-0.5403,-0.5246,0.0,0.0,0.0,0.0,0.0,0.0,0.0,0.0,0.0,0.0,0.0,0.0,0.0,0.0,0.0,0.0,0.0,0.0,0.0,0.0,0.0,0.0,0.0,0.0,0.0,0.0,0.0,0.0,0.0,0.0,0.0,0.0,0.0,0.0,0.0,0.0,0.0,0.0,0.0,0.0,-0.7219,-0.7177,-0.7268,-0.7364,-0.7623,-0.7901,-0.8231,-0.8117,-0.7995,-0.7816,-0.7387,0.0,0.0,0.0,0.0,0.0,0.0,0.0,0.0,0.0,0.0,0.0,0.0,0.0,0.0,0.0,0.0,0.0,0.0,0.0,0.0,0.0,0.0,0.0,0.0,0.0,0.0,0.0,0.0,0.0,0.0,0.0,0.0,0.0,0.0,0.0,0.0,0.0,0.0,0.0,0.0,0.0,0.0,0.0,0.0,0.0,0.0,0.0,0.0,0.0,0.0,0.0,0.0,0.0,0.0,0.0,0.0,0.0,0.0,0.0,-0.6002,-0.5901,0.0,0.0,0.0,0.0,0.0,0.0,0.0,0.0,0.0,0.0,0.0,0.0,0.0,0.0,0.0,0.0,0.0,0.0,0.0,0.0,0.0,0.0,0.0,0.0,0.0,0.0,0.0,0.0,0.0,0.0,0.0,0.0,0.0,0.0,0.0,0.0,0.0,0.0,0.0,0.0,-0.7517,-0.7567,-0.7632,-0.7646,-0.7822,-0.7976,-0.8091,-0.8072,-0.7933,-0.7615,-0.7293,0.0,0.0,0.0,0.0,0.0,0.0,0.0,0.0,0.0,0.0,0.0,0.0,0.0,0.0,0.0,0.0,0.0,0.0,0.0,0.0,0.0,0.0,0.0,0.0,0.0,0.0,0.0,0.0,0.0,0.0,0.0,0.0,0.0,0.0,0.0,0.0,0.0,0.0,0.0,0.0,0.0,0.0,0.0,0.0,0.0,0.0,0.0,0.0,0.0,0.0,0.0,0.0,0.0,-0.6151,-0.6197,-0.6351,-0.6523,-0.668,-0.681,-0.6635,-0.6584,-0.6641,-0.6182,0.0,0.0,0.0,0.0,0.0,0.0,0.0,0.0,0.0,0.0,0.0,0.0,0.0,0.0,0.0,0.0,0.0,0.0,0.0,0.0,0.0,0.0,-0.5768,-0.597,-0.6454,-0.6737,-0.6253,0.0,0.0,0.0,0.0,0.0,0.0,0.0,0.0,0.0,0.0,0.0,-0.7759,-0.7943,-0.8033,-0.7905,-0.8004,-0.8014,-0.7848,-0.7933,-0.775,-0.7349,-0.7208,-0.6843,0.0,0.0,0.0,0.0,0.0,0.0,0.0,0.0,0.0,0.0,0.0,0.0,0.0,0.0,0.0,0.0,0.0,0.0,0.0,0.0,0.0,0.0,0.0,0.0,0.0,0.0,0.0,0.0,0.0,0.0,0.0,0.0,-0.1215,-0.0894,0.0,0.0,0.0,0.0,0.0,0.0,0.0,0.0,0.0,0.0,0.0,0.0,0.0,-0.4537,-0.4889,-0.4683,-0.4651,-0.4921,-0.4916,-0.5089,-0.5322,-0.5779,-0.615,-0.6401,-0.7211,0.0,-0.7304,-0.7081,0.0,0.0,0.0,0.0,0.0,0.0,0.0,0.0,0.0,0.0,0.0,0.0,0.0,0.0,0.0,0.0,0.0,0.0,0.0,0.0,0.0,0.0,-0.7225,-0.7258,-0.7489,-0.766,-0.7784,-0.7024,-0.6397,-0.6403,-0.6562,-0.6712,0.0,0.0,0.0,0.0,0.0,0.0,-0.7606,-0.7855,-0.807,-0.8088,-0.8107,-0.807,-0.8042,-0.7946,-0.7827,-0.7751,-0.7404,-0.7102,-0.6953,-0.6181,0.0,0.0,0.0,0.0,0.0,0.0,0.0,0.0,0.0,0.0,0.0,0.0,0.0,0.0,0.0,0.0,0.0,0.0,0.0,0.0,0.0,0.0,0.0,0.0,0.0,0.0,0.0,0.0,0.0,-0.0916,-0.1102,-0.131,-0.1333,-0.1523,0.0,0.0,0.0,0.0,0.0,0.0,0.0,0.0,0.0,-0.4418,-0.4498,-0.4733,-0.5158,-0.5208,-0.5454,-0.5919,-0.6041,-0.629,-0.6692,-0.6773,-0.6923,-0.7187,-0.7617,-0.7739,-0.7648,-0.7381,-0.6924,-0.6426,0.0,0.0,0.0,0.0,-0.5702,-0.5735,-0.6267,-0.601,-0.5426,-0.5675,0.0,0.0,0.0,0.0,0.0,0.0,0.0,-0.5797,-0.6371,-0.6811,-0.7148,-0.7456,-0.7673,-0.7825,-0.8047,-0.7697,-0.7315,-0.7277,-0.7107,-0.7026,-0.691,-0.7206,0.0,0.0,0.0,-0.8155,-0.7801,-0.8016,-0.8203,-0.7959,-0.7947,-0.7879,-0.7794,-0.7761,-0.7688,-0.7611,-0.6988,-0.6595,-0.6529,-0.5483,-0.5099,0.0,0.0,0.0,0.0,0.0,0.0,0.0,0.0,0.0,0.0,0.0,0.0,0.0,0.0,0.0,0.0,0.0,0.0,0.0,0.0,0.0,0.0,0.0,0.0,0.0,0.0,0.0,0.0,-0.0635,-0.0981,-0.1659,-0.1338,-0.151,0.0,0.0,0.0,0.0,0.0,0.0,-0.3998,-0.411,-0.4235,-0.4465,-0.4627,-0.4963,-0.5443,-0.5622,-0.6048,-0.6549,-0.6544,-0.677,-0.7061,-0.7024,-0.72,-0.7319,-0.7676,-0.7763,-0.7643,-0.7439,-0.7062,-0.6704,-0.6067,-0.5742,-0.5583,-0.5888,-0.5994,-0.6004,-0.6911,-0.668,-0.6097,-0.6552,-0.6153,-0.5631,-0.5791,0.0,0.0,0.0,0.0,-0.6362,-0.6852,-0.7065,-0.7112,-0.752,-0.7707,-0.7882,-0.804,-0.8074,-0.802,-0.7929,-0.7645,-0.7283,-0.7129,-0.7088,0.0,-0.7098,-0.7714,-0.8122,-0.7995,-0.8282,-0.8327,-0.79,-0.7908,-0.7766,-0.7552,-0.7614,-0.7491,-0.722,-0.6539,-0.6063,-0.5894,-0.4763,-0.4316,-0.4713,0.0,0.0,0.0,0.0,0.0,0.0,0.0,0.0,0.0,0.0,0.0,0.0,0.0,0.0,0.0,0.0,0.0,0.0,0.0,0.0,0.0,0.0,0.0,0.0,0.0,0.0,0.0,0.0,0.0,-0.1686,-0.0182,0.0,0.0,0.0,0.0,-0.3807,-0.396,-0.4064,-0.402,-0.4295,-0.456,-0.4653,-0.516,-0.539,-0.5532,-0.5664,-0.5604,-0.5438,-0.5071,-0.4874,-0.4732,-0.5556,-0.5832,-0.5897,-0.7058,-0.7323,-0.7073,-0.7228,-0.7032,-0.6585,-0.6327,-0.6018,-0.5768,-0.6342,-0.6721,-0.7032,-0.7287,-0.7507,-0.753,-0.7025,-0.6611,-0.6432,-0.6709,-0.6501,0.0,0.0,-0.6969,-0.6904,-0.7522,-0.768,-0.7742,-0.7804,-0.7931,-0.8089,-0.8089,-0.7939,-0.7946,-0.8299,-0.805,-0.7822,-0.7944,0.0,-0.7858,-0.7711,-0.8146,-0.8452,-0.8161,-0.8416,-0.8544,-0.8111,-0.8076,-0.7955,-0.7565,-0.747,-0.7214,-0.6474,-0.6253,-0.5898,-0.5335,-0.4281,-0.4096,-0.4798,-0.3788,0.0,0.0,0.0,0.0,0.0,0.0,0.0,0.0,0.0,0.0,0.0,0.0,0.0,0.0,0.0,0.0,0.0,0.0,0.0,0.0,0.0,0.0,0.0,0.0,0.0,0.0,0.0,0.0,-0.0805,-0.0929,0.0,-0.1714,-0.2804,-0.3387,-0.3173,-0.3724,-0.403,-0.4157,-0.4176,-0.432,-0.437,-0.4633,-0.4681,-0.4431,-0.4835,-0.5201,-0.5434,-0.5151,-0.5426,-0.6154,-0.6156,-0.6257,-0.6609,-0.7054,-0.6845,-0.6177,-0.6219,-0.6521,-0.6933,-0.6953,-0.6496,-0.598,-0.6905,-0.6482,-0.5639,-0.7115,-0.7254,-0.6876,-0.7302,-0.7313,-0.7142,-0.7325,-0.7263,-0.7124,-0.7668,-0.762,-0.7472,-0.7672,-0.7749,-0.7715,-0.7476,-0.7565,-0.7714,-0.7714,-0.7744,-0.7849,-0.8152,-0.7956,-0.7883,-0.8069,-0.8084,-0.8078,-0.8221,-0.8326,-0.8383,-0.8461,-0.8449,-0.8345,-0.8151,-0.8069,-0.8008,-0.7681,-0.7151,-0.6701,-0.6425,-0.538,-0.4734,-0.4748,-0.3711,-0.3354,-0.3666,-0.3195,-0.29,0.0,0.0,0.0,0.0,0.0,0.0,0.0,0.0,0.0,0.0,0.0,0.0,0.0,0.0,0.0,0.0,0.0,0.0,0.0,0.0,0.0,0.0,0.0,0.0,0.0,0.0532,0.0422,-0.0263,-0.0643,-0.0954,-0.1149,-0.2427,-0.3152,-0.279,-0.3666,-0.4171,-0.4295,-0.4275,-0.4265,-0.4203,-0.4581,-0.4631,-0.4435,-0.4994,-0.5403,-0.5823,-0.5629,-0.5951,-0.6691,-0.6522,-0.6535,-0.6874,-0.6697,-0.6228,-0.5489,-0.5346,-0.551,-0.6005,-0.6179,-0.5838,-0.5328,-0.617,-0.5777,-0.4862,-0.6334,-0.6546,-0.6265,-0.6919,-0.7045,-0.7004,-0.7041,-0.7116,-0.7194,-0.7463,-0.7659,-0.7819,-0.7819,-0.7769,-0.7646,-0.7334,-0.7407,-0.7484,-0.7484,-0.7642,-0.7739,-0.7957,-0.7916,-0.797,-0.8077,-0.815,-0.816,-0.8294,-0.8384,-0.841,-0.8422,-0.8142,-0.7871,-0.7696,-0.7435,-0.7156,-0.6878,-0.6266,-0.5811,-0.5667,-0.4488,-0.3895,-0.4003,-0.3161,-0.2814,-0.2969,-0.2719,-0.2593,-0.2643,0.0,0.0,0.0,0.0,0.0,0.0,0.0,0.0,0.0,0.0,0.0,0.0,0.0,0.0,0.0,0.0,0.0,0.0,0.0,0.0,0.0,0.0,0.0,0.0652,0.0926,0.0959,-0.0137,0.0683,0.0622,-0.1095,-0.1484,-0.2022,-0.2882,-0.3878,-0.4468,-0.447,-0.4568,-0.4541,-0.4287,-0.4891,-0.5295,-0.5559,-0.5934,-0.6355,-0.6536,-0.6433,-0.6174,-0.5985,-0.6381,-0.648,-0.6346,-0.5899,-0.5481,-0.5045,-0.4522,-0.4062,-0.373,-0.3992,-0.3992,-0.3817,-0.4247,-0.4646,-0.4972,-0.5135,-0.5457,-0.574,-0.5811,-0.5887,-0.5864,-0.5867,-0.6116,-0.6464,-0.6471,-0.7111,-0.7752,-0.7752,-0.7618,-0.7484,-0.7484,-0.7484,-0.7484,-0.7484,-0.7484,-0.7537,-0.7724,-0.7919,-0.8083,-0.8087,-0.8158,-0.8119,-0.7706,-0.8182,0.0,-0.797,-0.7502,-0.7109,-0.6871,-0.6022,-0.5391,-0.5114,-0.4831,-0.4513,-0.4155,-0.369,-0.3391,-0.3238,-0.2698,-0.2496,-0.2693,-0.2423,-0.2455,-0.287,0.0,0.0,0.0,0.0,0.0,0.0,0.0,0.0,0.0,0.0,0.0,0.0,0.0,0.0,0.0,0.0,0.0,0.0,0.0,0.0,0.0,0.1395,0.1464,0.1091,0.1361,0.1408,0.0953,0.0818,0.0493,-0.0239,-0.1217,-0.1972,-0.2371,-0.3139,-0.3686,-0.3748,-0.3772,-0.39,-0.3963,-0.4689,-0.4793,-0.4355,-0.5354,-0.5813,-0.5727,-0.5762,-0.6028,-0.6523,-0.6474,-0.6095,-0.566,-0.5576,-0.4764,-0.3539,-0.3326,-0.2767,-0.222,-0.3636,-0.3813,-0.3284,-0.4076,-0.4272,-0.4263,-0.39,-0.419,-0.4818,-0.5129,-0.5182,-0.5093,-0.5179,-0.5246,-0.5303,-0.5873,-0.6307,-0.6776,-0.725,-0.7447,-0.7484,-0.7334,-0.7411,-0.7403,-0.7096,-0.7176,-0.7308,-0.7478,-0.7123,-0.7076,-0.8117,-0.7838,-0.748,-0.726,-0.6786,0.0,-0.6322,-0.6174,-0.6019,-0.5794,-0.5521,-0.5306,-0.535,-0.46,-0.4239,-0.4484,-0.3724,-0.3305,-0.3426,-0.3139,-0.2924,-0.2851,-0.2802,-0.2712,0.0,0.0,0.0,0.0,0.0,0.0,0.0,0.0,0.0,0.0,0.0,0.0,0.0,0.0,0.0,0.0,0.0,0.0,0.0,0.0,0.0,0.0,0.134,0.1494,0.1524,0.1627,0.1652,0.1512,0.1283,0.1026,0.0415,-0.0674,-0.1605,-0.2158,-0.3118,-0.3666,-0.3683,-0.3888,-0.4017,-0.398,-0.4545,-0.4676,-0.4449,-0.5122,-0.5692,-0.5965,-0.5841,-0.5994,-0.6421,-0.6113,-0.5604,-0.4908,-0.4493,-0.3783,-0.2826,-0.2432,-0.1883,0.0,0.0,0.0,0.0,0.0,-0.3285,-0.3103,-0.2908,-0.3315,-0.3992,-0.4146,-0.4144,-0.4162,-0.4341,-0.433,-0.4453,-0.4914,-0.5521,-0.624,-0.6651,-0.715,-0.7418,-0.735,-0.7386,-0.7336,-0.6721,-0.6684,-0.6699,-0.6606,-0.6347,0.0,-0.7242,-0.6917,-0.6489,-0.6256,-0.5951,-0.5614,-0.5476,-0.5247,-0.5051,-0.4923,-0.4565,-0.4272,-0.4345,-0.3758,0.0,0.0,0.0,-0.3132,-0.3132,-0.2914,0.0,0.0,0.0,-0.2586,-0.2721,0.0,0.0,0.0,-0.2758,-0.2843,0.0,0.0,0.0,0.0,0.0,0.0,0.0,0.0,0.0,0.0,0.0,0.0,0.0,0.0,0.0,0.0,0.1569,0.183,0.1815,0.1833,0.1821,0.1777,0.2009,0.1836,0.0741,-0.0,-0.0861,-0.2069,-0.3249,-0.3817,-0.3672,-0.4333,0.0,0.0,0.0,-0.4732,-0.4905,-0.5186,-0.5611,-0.6364,-0.6149,-0.5993,-0.5702,-0.5333,-0.4752,-0.4036,-0.3233,-0.2788,-0.2697,-0.1795,-0.1436,-0.1436,-0.1436,-0.1436,-0.1432,-0.1932,-0.2061,-0.2012,-0.2218,0.0,0.0,-0.3064,-0.3146,-0.3319,-0.3318,-0.3494,-0.3647,-0.3726,-0.4683,-0.5772,-0.5983,-0.6588,-0.7126,-0.7231,-0.7144,-0.6964,-0.6213,-0.5975,-0.5782,-0.5518,-0.5551,-0.5667,-0.5871,-0.5716,-0.5507,-0.5058,-0.5212,-0.524,-0.4884,-0.4425,-0.4117,-0.4107,0.0,0.0,-0.2788,-0.2672,-0.266,-0.2841,-0.2935,-0.2853,-0.2633,-0.25,-0.2429,-0.2349,-0.211,-0.2312,-0.3062,-0.2726,-0.2704,-0.2929,-0.2471,-0.2386,0.0,0.0,0.0,0.0,0.0,0.0,0.0,0.0,0.0,0.0,0.0,0.0,0.0,0.0,0.0,0.1348,0.158,0.1808,0.1822,0.197,0.2075,0.1996,0.2263,0.1914,0.0687,0.0713,0.0273,-0.1084,-0.2,-0.2478,-0.251,-0.3405,-0.3959,-0.4208,-0.4599,-0.4426,-0.3402,-0.4551,-0.4653,-0.3705,-0.4844,0.0,-0.4336,-0.395,-0.3485,-0.2937,-0.2755,-0.2298,-0.1745,-0.1535,-0.1436,-0.1436,-0.1436,-0.1436,-0.1435,-0.1786,-0.1827,-0.1848,-0.2176,-0.2357,-0.2439,-0.2647,-0.2583,-0.2512,-0.2571,-0.2638,0.0,-0.3164,-0.3756,-0.4342,-0.4885,-0.5246,-0.5448,-0.5527,-0.5486,-0.5451,-0.5371,-0.5328,-0.5409,-0.5721,-0.5183,-0.4713,-0.4898,-0.4917,-0.4821,-0.4712,-0.402,-0.3405,-0.3301,-0.3223,-0.312,-0.2891,-0.2712,-0.262,-0.2783,-0.2672,-0.2759,-0.3071,-0.3013,-0.293,-0.2703,-0.2963,-0.2997,-0.2709,-0.2774,-0.2708,-0.2589,-0.2364,-0.2399,-0.27,-0.2786,-0.2836,0.0,0.0,0.0,0.0,0.0,0.0,0.0,0.0,0.0,0.0,0.0,0.0844,0.0998,0.0,0.1375,0.1422,0.1571,0.1705,0.1794,0.1936,0.2121,0.2274,0.2326,0.1989,0.0973,0.0917,0.0468,-0.0648,-0.1224,-0.1523,-0.1429,-0.219,-0.2582,-0.2607,-0.2992,-0.2909,-0.235,-0.2835,-0.2932,-0.2442,-0.2942,-0.3181,-0.2995,-0.2567,-0.2273,-0.2003,-0.2003,-0.1821,-0.1457,-0.1442,-0.1436,-0.1436,-0.1525,-0.1525,-0.1433,-0.1773,-0.1903,-0.1931,-0.2324,-0.2425,-0.2358,-0.2467,-0.2496,-0.2449,-0.2506,-0.2524,-0.2607,-0.2943,-0.3333,-0.3878,-0.4285,-0.4656,-0.5036,-0.5091,-0.5098,-0.4888,-0.4594,-0.4533,-0.458,-0.4477,-0.42,-0.407,-0.4111,-0.4028,-0.3939,-0.3764,-0.323,-0.2875,-0.2875,-0.2875,-0.2862,-0.2743,-0.2562,-0.2562,-0.2828,-0.2717,-0.2799,-0.3094,-0.2675,-0.2546,-0.2774,-0.3154,-0.3097,-0.2669,-0.262,-0.2541,-0.2353,-0.2041,-0.2078,-0.2482,-0.2679,-0.2725,0.0,0.0,0.0,0.0,0.0,0.0,0.0,0.0801,0.0847,0.0912,0.1386,0.1647,0.1299,0.1368,0.1437,0.14,0.1539,0.1666,0.1759,0.189,0.2071,0.2408,0.2316,0.1981,0.1375,0.1129,0.0668,-0.0,-0.0579,-0.078,-0.0482,-0.1169,-0.1374,-0.1183,-0.138,-0.139,-0.131,-0.1108,-0.1107,-0.1406,-0.0971,-0.1051,-0.1718,-0.1566,-0.1448,-0.1534,-0.1348,-0.1349,-0.1444,-0.1438,-0.1439,-0.1535,-0.1715,-0.1715,-0.1621,-0.2028,-0.2156,-0.211,-0.2487,-0.2589,-0.2531,-0.2556,-0.2589,-0.2631,-0.2692,-0.2736,-0.2766,-0.2766,-0.3089,-0.3486,-0.3617,-0.4097,-0.458,-0.4658,-0.4613,-0.4428,-0.3845,-0.3789,-0.374,-0.3304,-0.3456,-0.3587,-0.3497,-0.3317,-0.3138,-0.2962,-0.2963,-0.2875,-0.2875,-0.2875,-0.2873,-0.2784,-0.2604,-0.2603,-0.2784,-0.2762,-0.2755,-0.2786,-0.2155,-0.2043,-0.2589,-0.2904,-0.2826,-0.2511,-0.2275,-0.2118,-0.2118,-0.1806,-0.1847,-0.2339,-0.235,-0.2475,0.3276,0.3281,0.3579,0.4469,0.3927,0.3381,0.0,0.2972,0.2372,0.3036,0.3065,0.2611,0.1264,0.1454,0.1738,0.1561,0.1845,0.2036,0.1851,0.1818,0.1942,0.2179,0.2186,0.211,0.1846,0.1758,0.1675,0.14,0.0494,-0.0,-0.01,-0.0988,-0.1481,-0.1507,-0.1307,-0.0905,-0.0202,-0.0404,-0.0,0.0807,0.0692,0.0196,-0.0586,-0.1243,-0.1501,-0.1474,-0.1176,-0.1179,-0.1473,-0.1446,-0.1542,-0.1844,-0.1844,-0.1938,-0.2117,-0.2344,-0.2382,-0.2424,-0.2678,-0.2687,-0.2609,-0.2718,-0.2721,-0.2694,-0.2755,-0.274,-0.2703,-0.2703,-0.2706,-0.2644,-0.2831,-0.2817,-0.2855,-0.2853,-0.2893,-0.3017,-0.311,-0.3158,-0.3307,-0.3471,-0.3582,-0.3497,-0.3317,-0.3227,-0.3227,-0.3138,-0.3051,-0.2875,-0.2875,-0.2875,-0.2784,-0.2603,-0.2513,-0.2424,-0.2334,-0.233,-0.2269,-0.2011,-0.161,-0.1413,-0.1489,-0.1885,-0.22,-0.2511,-0.212,-0.1964,-0.1964,-0.1729,-0.1751,-0.204,-0.2083,-0.2409,0.4569,0.4463,0.4364,0.4633,0.4582,0.4484,0.4504,0.4015,0.3642,0.4093,0.2881,0.1873,0.1946,0.1868,0.1689,0.1483,0.1777,0.1979,0.1695,0.1738,0.1861,0.1845,0.1862,0.1873,0.1867,0.1786,0.1703,0.1615,0.1203,0.1001,0.0908,0.0501,0.03,0.0303,0.0404,0.0606,0.0908,0.101,0.1313,0.1917,0.1881,0.1276,0.0098,-0.019,-0.0746,-0.1572,-0.1375,-0.1377,-0.1478,-0.1448,-0.1635,-0.1944,-0.2036,-0.2222,-0.2405,-0.2568,-0.2506,-0.2435,-0.2695,-0.2726,-0.2662,-0.2714,-0.2737,-0.2749,-0.2775,-0.279,-0.2798,-0.2798,-0.2736,-0.2681,-0.2732,-0.27,-0.2662,-0.2699,-0.2699,-0.2713,-0.287,-0.3048,-0.3144,-0.3303,-0.3406,-0.3421,-0.3463,-0.3256,-0.3166,-0.3521,-0.3191,-0.2875,-0.2875,-0.2875,-0.2784,-0.2513,-0.2604,-0.2591,-0.2205,-0.2227,-0.209,-0.1567,-0.136,-0.1414,-0.1727,-0.2042,-0.2199,-0.212,-0.1962,-0.1806,-0.1729,-0.1674,-0.1785,-0.2073,-0.2206,-0.2529,0.5298,0.5186,0.5026,0.4866,0.5172,0.5398,0.5145,0.4966,0.4947,0.505,0.3468,0.2309,0.3134,0.2851,0.2374,0.1884,0.218,0.2196,0.1633,0.1663,0.1779,0.1573,0.1598,0.1706,0.1771,0.1699,0.1617,0.1617,0.1617,0.1617,0.1617,0.1617,0.1617,0.1617,0.1617,0.1617,0.1617,0.1819,0.2021,0.2321,0.2489,0.178,0.0494,0.0096,-0.0656,-0.1773,-0.167,-0.1579,-0.1584,-0.1552,-0.1741,-0.2054,-0.224,-0.252,-0.2706,-0.269,-0.2625,-0.2544,-0.272,-0.2768,-0.2721,-0.2737,-0.2749,-0.2762,-0.2778,-0.2803,-0.2827,-0.2843,-0.2805,-0.2762,-0.2779,-0.2751,-0.2725,-0.2752,-0.2751,-0.2762,-0.2834,-0.3002,-0.3081,-0.313,-0.3139,-0.3154,-0.3477,-0.3174,-0.3084,-0.355,-0.3205,-0.297,-0.2985,-0.2884,-0.2782,-0.2602,-0.2603,-0.2492,-0.2089,-0.2131,-0.1999,-0.1545,-0.1511,-0.165,-0.2044,-0.2213,-0.2135,-0.1808,-0.1817,-0.1738,-0.1493,-0.1599,-0.1708,-0.19,-0.221,-0.252,0.4683,0.5,0.5363,0.557,0.5986,0.6252,0.6249,0.6331,0.6283,0.6195,0.5567,0.5031,0.4732,0.4783,0.4307,0.3025,0.3276,0.3163,0.1761,0.1596,0.1605,0.1575,0.1598,0.1605,0.1575,0.1599,0.1617,0.1617,0.1617,0.1617,0.1617,0.1617,0.1617,0.1617,0.1617,0.1617,0.1617,0.1617,0.1718,0.2022,0.2122,0.1615,0.0403,-0.0989,-0.1844,-0.2381,-0.2054,-0.1966,-0.1903,-0.1865,-0.2059,-0.2288,-0.2571,-0.2855,-0.304,-0.298,-0.2921,-0.2871,-0.2871,-0.2831,-0.279,-0.285,-0.279,-0.2706,-0.2764,-0.2744,-0.271,-0.277,-0.2743,-0.2709,-0.2767,-0.2782,-0.2766,-0.2709,-0.2783,-0.2853,-0.2798,-0.2831,-0.2872,-0.2873,-0.2875,-0.2875,-0.2966,-0.2876,-0.2876,-0.2969,-0.2876,-0.2984,-0.3318,-0.2907,-0.2603,-0.2868,-0.2241,-0.1869,-0.2089,-0.2047,-0.2086,-0.2197,-0.199,-0.1965,-0.2123,-0.1849,-0.169,-0.1573,-0.1689,-0.1608,-0.1335,-0.1337,-0.1338,-0.1341,-0.1897,-0.2105,0.5842,0.6049,0.6188,0.5911,0.5999,0.6168,0.6249,0.6298,0.6336,0.6374,0.5583,0.4849,0.4758,0.4428,0.4103,0.3624,0.3537,0.3352,0.2736,0.2147,0.1755,0.157,0.1598,0.1605,0.1575,0.1599,0.1617,0.1617,0.1617,0.1617,0.1617,0.1617,0.1617,0.1617,0.1617,0.1617,0.1617,0.1617,0.1718,0.2021,0.1696,0.0892,-0.0198,-0.0985,-0.1652,-0.2193,-0.1989,-0.1896,-0.1905,-0.1867,-0.2154,-0.2573,-0.2667,-0.2835,-0.2986,-0.2966,-0.2922,-0.2875,-0.2875,-0.2861,-0.2847,-0.2867,-0.2846,-0.2816,-0.2837,-0.283,-0.2809,-0.2789,-0.2738,-0.2698,-0.2718,-0.2723,-0.2728,-0.2748,-0.2815,-0.2868,-0.2849,-0.286,-0.2875,-0.2875,-0.2875,-0.2976,-0.3197,-0.3206,-0.3313,-0.3545,-0.3199,-0.2971,-0.3082,-0.2886,-0.2784,-0.2872,-0.2513,-0.2135,-0.2002,-0.1987,-0.2129,-0.2165,-0.2116,-0.2091,-0.1932,-0.1997,-0.1981,-0.1967,-0.1743,-0.1597,-0.1529,-0.1552,-0.1574,-0.1599,-0.1994,-0.218,0.7045,0.7221,0.7293,0.6616,0.6456,0.6576,0.628,0.6238,0.6276,0.6304,0.5714,0.5085,0.5134,0.4918,0.4599,0.4164,0.3997,0.381,0.3628,0.2943,0.2381,0.2152,0.1796,0.1603,0.1575,0.1599,0.1617,0.1617,0.1617,0.1617,0.1617,0.1617,0.1617,0.1617,0.1617,0.1617,0.1617,0.1617,0.1718,0.1819,0.1197,0.0395,-0.0589,-0.1483,-0.1956,-0.2291,-0.221,-0.2104,-0.1887,-0.197,-0.2262,-0.2573,-0.2667,-0.2847,-0.3018,-0.2974,-0.2935,-0.2902,-0.2882,-0.286,-0.2845,-0.2867,-0.2845,-0.2813,-0.2835,-0.2827,-0.2801,-0.2762,-0.2738,-0.2725,-0.2725,-0.2741,-0.2767,-0.2807,-0.2846,-0.2875,-0.2875,-0.2981,-0.3086,-0.3086,-0.3196,-0.3318,-0.3547,-0.3553,-0.3655,-0.3676,-0.3416,-0.3177,-0.3269,-0.3067,-0.2873,-0.2694,-0.2244,-0.2046,-0.2002,-0.1899,-0.1958,-0.2082,-0.1708,-0.1365,-0.1367,-0.1358,-0.1666,-0.2281,-0.1665,-0.1358,-0.1206,-0.148,-0.1591,-0.1615,-0.1911,-0.2011,0.8349,0.8537,0.8484,0.7599,0.7455,0.7282,0.6364,0.6266,0.631,0.6092,0.5954,0.5824,0.5778,0.6089,0.5891,0.4801,0.4564,0.4509,0.4326,0.3795,0.338,0.3318,0.2389,0.17,0.1674,0.17,0.1617,0.1617,0.1617,0.1617,0.1617,0.1617,0.1617,0.1617,0.1617,0.1617,0.1617,0.1617,0.1617,0.1617,0.0807,-0.0,-0.0787,-0.21,-0.2668,-0.2579,-0.2722,-0.2494,-0.1946,-0.2174,-0.2287,-0.2382,-0.2569,-0.2884,-0.3112,-0.2996,-0.2954,-0.2946,-0.2892,-0.2837,-0.2797,-0.2852,-0.279,-0.2707,-0.2762,-0.2738,-0.2692,-0.2692,-0.2734,-0.2779,-0.2782,-0.2826,-0.2869,-0.2873,-0.2875,-0.2875,-0.2875,-0.3193,-0.3422,-0.3422,-0.3668,-0.3912,-0.3915,-0.3915,-0.3796,-0.354,-0.3524,-0.3612,-0.3882,-0.3362,-0.2694,-0.2244,-0.1615,-0.1513,-0.2093,-0.1624,-0.1508,-0.1886,-0.064,-0.0,-0.0237,-0.0,-0.0645,-0.2289,-0.1452,-0.0807,-0.0632,-0.105,-0.1308,-0.131,-0.1588,-0.1705,0.9105,0.9257,0.9338,0.8551,0.8286,0.8027,0.7346,0.706,0.6875,0.6204,0.5826,0.5527,0.5296,0.578,0.6034,0.5842,0.5684,0.5646,0.5786,0.5054,0.4469,0.438,0.4111,0.3715,0.2903,0.2815,0.2421,0.1617,0.1617,0.1617,0.1617,0.1617,0.1617,0.1617,0.1617,0.1617,0.1617,0.1617,0.1617,0.1616,0.0299,-0.0397,-0.0601,-0.1785,-0.2341,-0.2386,-0.2398,-0.2274,-0.2131,-0.2234,-0.2425,-0.2796,-0.2888,-0.2965,-0.2939,-0.2907,-0.2895,-0.2894,-0.2879,-0.2864,-0.2846,-0.2816,-0.2785,-0.2755,-0.2725,-0.2704,-0.2692,-0.2692,-0.2703,-0.2726,-0.2771,-0.2794,-0.2818,-0.2864,-0.2875,-0.2875,-0.2875,-0.3193,-0.3422,-0.3422,-0.3668,-0.3927,-0.4177,-0.4186,-0.4296,-0.4432,-0.4046,-0.3652,-0.3272,-0.2974,-0.2873,-0.2694,-0.0359,0.0537,-0.1425,-0.062,-0.0352,-0.1227,0.0515,0.1526,0.1526,0.1759,0.1411,0.0578,-0.0083,-0.0503,-0.0593,-0.1108,-0.138,-0.1401,-0.1409,-0.1492,1.0221,1.0284,1.0323,0.946,0.9143,0.8815,0.7535,0.7262,0.6991,0.5966,0.5592,0.5393,0.5176,0.5548,0.5865,0.5822,0.5809,0.6062,0.6571,0.6045,0.56,0.5506,0.5529,0.5127,0.4024,0.3954,0.377,0.3163,0.2231,0.1617,0.1617,0.1617,0.1617,0.1617,0.1617,0.1617,0.1617,0.1617,0.1617,0.1616,0.01,-0.0999,-0.1713,-0.2078,-0.2439,-0.251,-0.2394,-0.2264,-0.2222,-0.2222,-0.2406,-0.2868,-0.2868,-0.2864,-0.2947,-0.2921,-0.2912,-0.2907,-0.2883,-0.2875,-0.2868,-0.2834,-0.2805,-0.2777,-0.2743,-0.2732,-0.2726,-0.27,-0.2711,-0.274,-0.2774,-0.2889,-0.3006,-0.3042,-0.3141,-0.3239,-0.3269,-0.3511,-0.3765,-0.4023,-0.417,-0.4315,-0.4457,-0.4563,-0.4369,-0.398,-0.3621,-0.3056,-0.213,-0.1815,-0.1436,-0.1076,0.0718,0.1525,0.0897,0.0445,0.0177,0.0088,0.1127,0.197,0.2485,0.2707,0.2606,0.2102,0.126,0.0592,-0.0,-0.0518,-0.0961,-0.1415,-0.1415,-0.1413,1.1155,1.1262,1.1089,1.0299,1.012,0.957,0.7646,0.7359,0.7072,0.5799,0.5529,0.5467,0.5234,0.5332,0.5472,0.5516,0.5638,0.6068,0.6882,0.6811,0.6658,0.66,0.6651,0.6255,0.5144,0.5233,0.5289,0.5188,0.3278,0.2033,0.1825,0.172,0.1617,0.1718,0.1819,0.192,0.1919,0.1818,0.1717,0.1515,-0.0,-0.1615,-0.3229,-0.2775,-0.2651,-0.2744,-0.2405,-0.2268,-0.223,-0.2224,-0.2407,-0.2685,-0.2677,-0.2795,-0.3019,-0.2966,-0.2947,-0.294,-0.2891,-0.2875,-0.2873,-0.2865,-0.2827,-0.2782,-0.2774,-0.2771,-0.2762,-0.2717,-0.2743,-0.2785,-0.288,-0.3008,-0.3227,-0.3227,-0.3408,-0.3609,-0.3684,-0.3953,-0.4346,-0.4702,-0.4834,-0.4834,-0.4834,-0.4634,-0.4209,-0.296,-0.2651,-0.2048,-0.0959,-0.0371,0.0452,0.1442,0.1621,0.216,0.3235,0.1587,0.0785,0.1309,0.1628,0.212,0.28,0.3227,0.3311,0.2971,0.2545,0.1865,0.0932,0.0346,-0.0436,-0.1221,-0.1309,-0.141,1.1241,1.1262,1.1262,1.1089,1.1089,1.0655,0.8963,0.8738,0.8298,0.6273,0.5965,0.5856,0.5241,0.5409,0.564,0.5848,0.6204,0.6632,0.7085,0.7334,0.7464,0.7434,0.7746,0.7508,0.6473,0.6479,0.6233,0.5286,0.4851,0.4186,0.3096,0.2138,0.1919,0.2523,0.3232,0.3534,0.363,0.3124,0.2217,0.0908,0.0201,-0.1209,-0.3229,-0.2871,-0.2747,-0.2744,-0.2405,0.0,-0.2651,-0.2517,-0.2685,-0.2954,-0.2907,-0.2895,-0.2903,-0.2892,-0.2888,-0.2887,-0.2877,-0.2875,-0.2865,-0.2815,-0.2792,-0.2774,-0.2723,-0.2709,-0.2715,-0.2756,-0.2775,-0.2882,-0.3108,-0.3129,-0.3227,-0.3497,-0.3587,-0.3609,-0.3684,-0.3998,-0.4418,-0.4714,-0.4834,-0.4834,-0.4834,-0.4029,-0.3422,-0.311,-0.2078,-0.1272,-0.1073,-0.0383,0.0844,0.2492,0.2946,0.2741,0.1887,0.2592,0.2586,0.1249,0.3108,0.3811,0.2925,0.3901,0.4257,0.3728,0.3103,0.257,0.2215,0.0712,-0.0089,-0.0268,-0.107,-0.143,1.1499,1.1445,1.1294,1.1499,1.144,1.0874,0.9335,0.9082,0.8655,0.6769,0.6264,0.6067,0.5708,0.5583,0.5651,0.5771,0.6153,0.6522,0.6804,0.7012,0.7369,0.7743,0.7916,0.7853,0.7331,0.7455,0.7323,0.6793,0.6265,0.5503,0.4411,0.3202,0.2967,0.3783,0.4161,0.4446,0.4438,0.4895,0.4296,0.2825,0.1794,0.0499,-0.1007,-0.1087,-0.147,-0.1957,-0.1426,-0.1784,-0.2624,-0.2481,-0.2641,-0.2912,-0.2884,-0.2875,-0.2875,-0.2875,-0.2875,-0.2875,-0.2875,-0.2875,-0.2869,-0.2839,-0.2831,-0.2826,-0.2796,-0.2786,-0.2793,-0.2823,-0.2831,-0.2925,-0.313,-0.3317,-0.3506,-0.3816,-0.3983,-0.415,-0.4189,-0.439,-0.4485,-0.4022,-0.3927,-0.3827,-0.3224,-0.272,-0.2217,-0.1611,-0.1,-0.0298,0.0398,0.0979,0.1435,0.195,0.2659,0.2903,0.2246,0.2872,0.2962,0.2064,0.3585,0.43,0.3673,0.4654,0.5102,0.4835,0.4297,0.3669,0.3044,0.206,0.0986,-0.0,-0.0448,-0.0897,1.1558,1.1488,1.131,1.158,1.1488,1.0916,0.9535,0.9276,0.8822,0.73,0.6637,0.6207,0.6141,0.5787,0.5555,0.5573,0.5885,0.6177,0.643,0.6625,0.6985,0.7579,0.7859,0.7885,0.7853,0.8141,0.8252,0.8117,0.7393,0.6531,0.5314,0.4391,0.4247,0.4969,0.5097,0.5153,0.5144,0.6166,0.6171,0.4951,0.3374,0.2084,0.1108,0.059,-0.0098,-0.0978,-0.0376,-0.0927,-0.2046,-0.1821,-0.2077,-0.2619,-0.2608,-0.2694,-0.2875,-0.2875,-0.2875,-0.2875,-0.2875,-0.2875,-0.2875,-0.2875,-0.2875,-0.2875,-0.2875,-0.2875,-0.2875,-0.2875,-0.2875,-0.2963,-0.3138,-0.3317,-0.3605,-0.4045,-0.4383,-0.461,-0.4708,-0.4775,-0.4531,-0.3425,-0.3224,-0.2821,-0.1815,-0.1412,-0.0907,-0.0,0.0202,0.0706,0.1819,0.2184,0.2036,0.141,0.2292,0.2887,0.2875,0.2963,0.2963,0.2963,0.3855,0.4389,0.4389,0.5277,0.5719,0.5719,0.5364,0.4828,0.4024,0.3491,0.2417,0.0896,0.0717,0.009,1.1316,1.1283,1.1273,1.1289,1.1278,1.0958,0.9804,0.9697,0.9369,0.7708,0.7063,0.6666,0.6207,0.5722,0.5421,0.5445,0.5572,0.5722,0.5902,0.6299,0.6643,0.6918,0.7579,0.789,0.7558,0.8327,0.8623,0.8275,0.8494,0.7683,0.5426,0.5439,0.5597,0.5796,0.6113,0.6255,0.6237,0.6329,0.6132,0.5548,0.3917,0.241,0.1107,0.0582,0.0193,-0.0195,0.0094,-0.0,0.0,-0.0371,-0.0829,-0.1655,-0.1536,-0.2064,-0.2875,-0.2875,-0.2875,-0.2875,-0.2875,-0.2875,-0.2875,-0.2875,-0.2875,-0.2875,-0.2875,-0.2875,-0.2875,-0.2875,-0.2875,-0.2963,-0.3138,-0.3227,-0.3424,-0.3952,-0.4191,-0.4413,-0.461,-0.4775,-0.4531,-0.3425,-0.3224,-0.2821,-0.1815,-0.0806,-0.0,0.0302,0.1009,0.1616,0.1921,0.2184,0.2252,0.2244,0.2641,0.2929,0.2879,0.305,0.3138,0.3138,0.4123,0.4661,0.4661,0.5366,0.5719,0.5719,0.563,0.563,0.5542,0.4648,0.4109,0.3842,0.3034,0.2165,1.1628,1.1768,1.1768,1.1768,1.1343,1.0724,0.996,0.9523,0.904,0.8231,0.7728,0.7195,0.6666,0.6145,0.578,0.558,0.5547,0.5617,0.584,0.6054,0.6404,0.681,0.7208,0.7568,0.7672,0.7974,0.8217,0.8156,0.8471,0.8144,0.7018,0.6437,0.6352,0.6718,0.6101,0.6038,0.6527,0.6283,0.5709,0.5051,0.4157,0.3196,0.228,0.2147,0.1751,0.1272,0.1333,0.0939,0.0,0.0274,-0.0,-0.0362,-0.0532,-0.1153,-0.1972,-0.2035,-0.2397,-0.2875,-0.2875,-0.2875,-0.2875,-0.2875,-0.2875,-0.2875,-0.2875,-0.2875,-0.2875,-0.2875,-0.2875,-0.2963,-0.3138,-0.3348,-0.3582,-0.4027,-0.4229,-0.4424,-0.4674,-0.481,-0.4531,-0.3425,-0.272,-0.1915,-0.0806,0.0403,0.1211,0.1313,0.1616,0.1921,0.2022,0.2184,0.2255,0.2255,0.2745,0.295,0.2926,0.2983,0.3051,0.3051,0.4119,0.4565,0.4208,0.5633,0.6257,0.5902,0.6077,0.6163,0.6163,0.545,0.4825,0.4289,0.3976,0.3378,1.147,1.1785,1.186,1.193,1.1284,1.0509,1.003,0.9408,0.8917,0.8414,0.789,0.7357,0.6817,0.6308,0.5789,0.0,0.5463,0.5527,0.5662,0.5786,0.6015,0.6492,0.6735,0.7015,0.7371,0.7527,0.7787,0.8078,0.8297,0.8275,0.7864,0.7148,0.6819,0.7144,0.6285,0.6107,0.669,0.6134,0.5474,0.4753,0.418,0.3628,0.3139,0.3121,0.282,0.2427,0.2271,0.1949,0.0,0.1173,0.0986,0.0715,0.0441,-0.0177,-0.0985,-0.1058,-0.1506,-0.2064,-0.2064,-0.2064,-0.2064,-0.2064,-0.2064,-0.2064,-0.2064,-0.2424,-0.2875,-0.2875,-0.2875,-0.2963,-0.305,-0.3279,-0.3532,-0.3887,-0.406,-0.4137,-0.4212,-0.423,-0.3927,-0.2518,-0.1612,-0.0806,0.0303,0.1313,0.2021,0.2121,0.2021,0.2021,0.2121,0.2195,0.2372,0.2472,0.2785,0.2997,0.2961,0.2921,0.2891,0.2876,0.3873,0.4424,0.4244,0.5809,0.6629,0.6499,0.6622,0.6712,0.6671,0.6442,0.5916,0.5277,0.5351,0.4842,1.0621,1.1006,1.1326,1.1645,1.1165,1.0509,1.003,0.9596,0.9006,0.8123,0.7428,0.689,0.6474,0.5865,0.5428,0.5428,0.5355,0.5318,0.5505,0.5518,0.5584,0.5697,0.6119,0.6389,0.6349,0.7109,0.7758,0.802,0.8012,0.7858,0.722,0.7181,0.7241,0.7238,0.6885,0.6747,0.6844,0.6081,0.5417,0.4851,0.4171,0.3625,0.3138,0.3078,0.3049,0.3044,0.2926,0.2876,0.0,0.2873,0.2244,0.1346,0.1345,0.0807,-0.0,-0.0,-0.0,-0.0,-0.0,-0.0,-0.0,-0.0,-0.0,-0.0,-0.0,-0.1345,-0.2875,-0.2875,-0.2875,-0.2875,-0.2875,-0.2916,-0.3067,-0.3414,-0.3675,-0.3743,-0.301,-0.3021,-0.2619,-0.0403,-0.0,0.0303,0.1414,0.1819,0.2122,0.2321,0.2121,0.2122,0.2321,0.2421,0.2521,0.2724,0.2975,0.3089,0.2969,0.2958,0.2933,0.2877,0.3564,0.4338,0.5168,0.6013,0.6674,0.7373,0.7516,0.7519,0.737,0.7519,0.7597,0.7594,0.7594,0.6807,1.0332,1.0674,1.0747,1.0747,1.0158,0.9401,0.9325,0.8471,0.7767,0.7729,0.7291,0.6759,0.6293,0.5922,0.5659,0.5358,0.5288,0.524,0.5234,0.5601,0.5804,0.5825,0.6611,0.705,0.6938,0.744,0.7742,0.7641,0.766,0.7428,0.7045,0.7061,0.7059,0.6966,0.6892,0.6749,0.6272,0.5626,0.4913,0.4173,0.3665,0.3291,0.3138,0.3076,0.3072,0.3104,0.2984,0.3023,0.32,0.2933,0.2745,0.2592,0.2346,0.1749,0.0985,0.0882,0.0531,-0.0,-0.0,-0.0,-0.0,-0.0,-0.0,-0.0,-0.0,-0.0448,-0.1076,-0.1705,-0.1885,-0.1885,-0.1885,-0.1893,-0.1827,-0.17,-0.1721,-0.1841,-0.1902,-0.2016,-0.1915,-0.121,-0.0504,0.0101,0.0403,0.1513,0.2321,0.2422,0.2523,0.2624,0.2927,0.2927,0.3027,0.3327,0.361,0.3662,0.3379,0.333,0.3296,0.3276,0.4043,0.4526,0.4804,0.5868,0.6532,0.6774,0.7289,0.7577,0.7529,0.7577,0.7557,0.7459,0.7459,0.7143,0.9807,1.0269,1.0331,1.0437,0.9606,0.8745,0.8735,0.7817,0.7039,0.7149,0.6891,0.6394,0.6,0.5713,0.5525,0.542,0.5275,0.5162,0.5315,0.5583,0.5776,0.5814,0.6552,0.6992,0.6913,0.727,0.7434,0.7217,0.7175,0.7039,0.6831,0.689,0.6761,0.6485,0.659,0.64,0.5642,0.5016,0.4412,0.3973,0.3327,0.3046,0.3104,0.3042,0.3035,0.3065,0.2969,0.3018,0.0,0.2936,0.2928,0.3041,0.2877,0.2455,0.1971,0.1944,0.1596,0.1076,0.1076,0.1076,0.1076,0.1076,0.1076,0.1076,0.1076,0.0538,-0.009,-0.0718,-0.0897,-0.0897,-0.0897,-0.0897,-0.0815,-0.066,-0.0761,-0.0769,-0.08,-0.0908,-0.0907,-0.0504,0.0101,0.0605,0.0706,0.1715,0.2422,0.2623,0.2826,0.3027,0.333,0.333,0.3429,0.3729,0.3932,0.3915,0.3872,0.3702,0.3649,0.3624,0.4126,0.4522,0.4808,0.5709,0.6384,0.6718,0.735,0.7736,0.7678,0.7644,0.7524,0.7312,0.7312,0.7257,0.0,0.9682,0.9837,1.03,0.9336,0.8374,0.8292,0.754,0.0,0.6421,0.6144,0.5898,0.5623,0.5227,0.5114,0.5442,0.5222,0.5182,0.5637,0.5615,0.5538,0.5719,0.6075,0.6285,0.6257,0.6681,0.6872,0.6757,0.6745,0.6586,0.6393,0.6452,0.6256,0.5799,0.5985,0.5713,0.5078,0.4346,0.4018,0.3998,0.3364,0.2995,0.3141,0.2986,0.2958,0.2955,0.2899,0.2875,0.2875,0.2869,0.2869,0.2873,0.2869,0.2871,0.2875,0.2875,0.2875,0.2875,0.2875,0.2875,0.2875,0.2875,0.2875,0.2875,0.2875,0.1615,0.0179,0.009,0.009,0.009,0.009,0.009,-0.0,-0.0189,-0.0381,-0.0386,0.0301,0.0303,0.0403,0.1414,0.1617,0.1718,0.1921,0.2221,0.2623,0.313,0.323,0.333,0.3629,0.3629,0.3729,0.4033,0.4033,0.4133,0.4438,0.4168,0.39,0.3931,0.3988,0.4319,0.5201,0.5688,0.6388,0.7049,0.7668,0.7872,0.7828,0.7677,0.7444,0.7138,0.7138,0.7138,0.7737,0.0,0.7673,0.7968,0.753,0.6986,0.0,0.6534,0.5989,0.6148,0.5805,0.5494,0.5289,0.5142,0.4995,0.4827,0.4891,0.4965,0.5,0.5455,0.5803,0.5614,0.6124,0.6331,0.5777,0.6329,0.6658,0.6404,0.6418,0.6281,0.5746,0.5858,0.5405,0.4416,0.4669,0.4708,0.4526,0.4221,0.3791,0.3333,0.3129,0.313,0.3141,0.2986,0.2958,0.2955,0.2899,0.2875,0.2871,0.2824,0.2832,0.2869,0.2823,0.2832,0.2875,0.2875,0.2875,0.2875,0.2875,0.2875,0.2875,0.2875,0.2875,0.2875,0.2875,0.2603,0.2064,0.1256,0.0998,0.0826,0.0826,0.0743,0.0757,0.126,0.1267,0.1276,0.1307,0.1313,0.1313,0.1516,0.1718,0.1921,0.2022,0.2524,0.3029,0.323,0.3531,0.3934,0.4135,0.4236,0.4336,0.4533,0.4634,0.4634,0.4734,0.4418,0.4301,0.4283,0.4495,0.5001,0.6098,0.6224,0.6722,0.7786,0.7723,0.763,0.7694,0.7425,0.7141,0.6942,0.6942,0.6742,0.6452,0.6767,0.7094,0.7204,0.6793,0.6298,0.6324,0.5848,0.547,0.5609,0.5378,0.5111,0.4982,0.4977,0.4923,0.4804,0.4985,0.5011,0.49,0.5002,0.5172,0.5521,0.5792,0.6066,0.608,0.6342,0.6578,0.6489,0.6541,0.6247,0.5532,0.5605,0.5184,0.3939,0.4112,0.4064,0.3789,0.3736,0.3492,0.2953,0.2995,0.2982,0.2914,0.2947,0.292,0.2916,0.2858,0.2849,0.2869,0.2808,0.2803,0.2832,0.2827,0.2828,0.2835,0.2864,0.2875,0.2875,0.2875,0.2875,0.2875,0.2875,0.2875,0.2875,0.2875,0.2875,0.2784,0.2243,0.199,0.1921,0.1847,0.168,0.1706,0.1854,0.1866,0.1876,0.1812,0.183,0.1836,0.1921,0.2135,0.2346,0.2529,0.2928,0.3331,0.3734,0.4034,0.4236,0.4537,0.4535,0.4636,0.4734,0.4834,0.4834,0.4834,0.4636,0.4535,0.4535,0.4736,0.5135,0.5837,0.6039,0.6711,0.7743,0.7677,0.7485,0.7353,0.7153,0.6982,0.6639,0.6639,0.6539,0.5414,0.6286,0.7167,0.6989,0.644,0.5827,0.5682,0.5396,0.5092,0.4987,0.4897,0.4903,0.4789,0.4853,0.4843,0.4956,0.5179,0.5263,0.5128,0.4739,0.4643,0.5225,0.5483,0.5657,0.6045,0.6313,0.6395,0.6349,0.6239,0.5893,0.523,0.5325,0.4919,0.3762,0.3826,0.3592,0.2959,0.3144,0.3073,0.2642,0.2739,0.272,0.258,0.2716,0.2873,0.2871,0.2819,0.0,0.2869,0.2818,0.2797,0.2803,0.2854,0.2842,0.2804,0.2856,0.2875,0.2875,0.2875,0.2875,0.2875,0.2875,0.2875,0.2875,0.2875,0.2875,0.2875,0.2875,0.2887,0.2731,0.2593,0.2524,0.2368,0.1958,0.1874,0.1883,0.2015,0.2045,0.2161,0.2336,0.2565,0.2787,0.3152,0.3345,0.3646,0.434,0.4438,0.4537,0.4734,0.4834,0.4834,0.4834,0.4834,0.4828,0.4816,0.4826,0.4828,0.4816,0.4826,0.4937,0.524,0.5741,0.6393,0.7171,0.7248,0.7056,0.6686,0.6763,0.662,0.6234,0.6418,0.6418,0.5081,0.5971,0.6725,0.5913,0.5303,0.4908,0.485,0.4836,0.4775,0.4758,0.4751,0.4813,0.4856,0.4963,0.5049,0.4959,0.5237,0.5596,0.5874,0.5973,0.5777,0.5162,0.5733,0.5593,0.3924,0.4804,0.5211,0.4558,0.453,0.4308,0.3875,0.395,0.3676,0.3053,0.3238,0.3089,0.2685,0.2959,0.2755,0.2265,0.2431,0.2518,0.2525,0.2517,0.2694,0.2873,0.0,0.2865,0.2873,0.2864,0.286,0.2861,0.2871,0.2868,0.2861,0.2871,0.2875,0.2875,0.2875,0.2875,0.2875,0.2875,0.2875,0.2875,0.2875,0.2875,0.2875,0.2875,0.2579,0.2271,0.2278,0.2045,0.1698,0.1708,0.161,0.1712,0.1919,0.2026,0.2139,0.2473,0.29,0.3319,0.3309,0.3925,0.4418,0.4349,0.4636,0.4734,0.4834,0.4834,0.4834,0.4834,0.4834,0.4806,0.4734,0.4794,0.4804,0.4732,0.4794,0.5035,0.5536,0.5842,0.6034,0.6216,0.58,0.5501,0.5518,0.5821,0.5927,0.5734,0.6333,0.6538,0.433,0.4971,0.544,0.4947,0.5312,0.5554,0.4764,0.4737,0.4865,0.4799,0.4682,0.472,0.4839,0.4887,0.4972,0.5341,0.5244,0.5206,0.5407,0.4472,0.3725,0.3356,0.3399,0.3261,0.2786,0.3432,0.373,0.3486,0.3783,0.3778,0.3263,0.3561,0.3496,0.2875,0.2962,0.2886,0.255,0.2669,0.2487,0.2008,0.2256,0.2334,0.2334,0.2424,0.2604,0.2872,0.0,0.2843,0.2871,0.2838,0.2826,0.2828,0.2861,0.2854,0.2828,0.2862,0.2875,0.2875,0.2875,0.2875,0.2875,0.2875,0.2875,0.2875,0.2875,0.2875,0.2875,0.2875,0.2732,0.2507,0.2277,0.2031,0.1872,0.1609,0.1718,0.192,0.2121,0.236,0.2593,0.2869,0.3323,0.3661,0.3692,0.4087,0.4483,0.4643,0.4736,0.4834,0.4834,0.4834,0.4834,0.4834,0.4834,0.4818,0.4779,0.4812,0.4818,0.4779,0.4814,0.4912,0.5358,0.5454,0.5529,0.5669,0.5413,0.5413,0.5667,0.5519,0.5741,0.6145,0.6054,0.6184,0.3705,0.415,0.451,0.4184,0.5158,0.5901,0.4825,0.4771,0.5007,0.493,0.4756,0.4698,0.4795,0.4505,0.4449,0.5068,0.4486,0.402,0.4107,0.2767,0.1779,0.1586,0.1434,0.1455,0.1644,0.2021,0.227,0.2184,0.2653,0.2662,0.2274,0.2929,0.3047,0.2603,0.2784,0.279,0.2533,0.256,0.2304,0.1758,0.2095,0.217,0.217,0.243,0.2604,0.2871,0.2824,0.2831,0.2871,0.2824,0.2804,0.2809,0.2856,0.2846,0.2811,0.2857,0.2875,0.2875,0.2875,0.2875,0.2875,0.2875,0.2875,0.2875,0.2875,0.2875,0.2875,0.2875,0.2875,0.2814,0.2374,0.2312,0.2148,0.1927,0.1938,0.224,0.2451,0.2823,0.307,0.3308,0.3682,0.403,0.4108,0.4393,0.4583,0.474,0.4834,0.4834,0.4834,0.4834,0.4834,0.4834,0.4834,0.4834,0.4834,0.4716,0.4714,0.4734,0.4716,0.4783,0.4933,0.4888,0.4842,0.4984,0.5071,0.5256,0.5553,0.5246,0.5585,0.6401,0.5872,0.5912,0.3492,0.4223,0.4665,0.3858,0.4077,0.4563,0.4807,0.483,0.476,0.4851,0.4904,0.4902,0.4753,0.3822,0.302,0.3095,0.2264,0.173,0.1921,0.2035,0.1723,0.0831,0.1683,0.1679,-0.009,0.0548,0.0823,0.0269,-0.0,-0.0,0.0179,0.1075,0.1524,0.1525,0.2424,0.281,0.2587,0.2542,0.2271,0.1759,0.2033,0.2217,0.2216,0.2446,0.2604,0.2875,0.2869,0.2869,0.2875,0.2869,0.2868,0.2868,0.2873,0.2871,0.2868,0.2873,0.2875,0.2875,0.2875,0.2875,0.2875,0.2875,0.2875,0.2875,0.2875,0.2875,0.2875,0.2875,0.2875,0.2823,0.2702,0.248,0.2435,0.2527,0.2516,0.26,0.2857,0.298,0.321,0.3687,0.414,0.4447,0.4572,0.4876,0.503,0.4859,0.4834,0.4834,0.4834,0.4834,0.4834,0.4834,0.4834,0.4834,0.4834,0.4563,0.4356,0.4433,0.4565,0.4652,0.4427,0.4281,0.4135,0.4008,0.3938,0.4127,0.4401,0.4516,0.4949,0.5722,0.5731,0.6036,0.2711,0.3368,0.3932,0.3369,0.363,0.4113,0.4525,0.4719,0.483,0.474,0.4577,0.4463,0.4242,0.3487,0.2596,0.1283,0.1522,0.1677,0.1129,0.0954,0.0379,-0.082,-0.0554,-0.0552,-0.1236,-0.0986,-0.0894,-0.1037,-0.0884,-0.0802,-0.0616,0.0089,0.0807,0.1346,0.1794,0.2253,0.2817,0.268,0.251,0.2315,0.2194,0.2271,0.2361,0.2433,0.2604,0.2875,0.2875,0.2875,0.2875,0.2875,0.2875,0.2875,0.2875,0.2875,0.2875,0.2875,0.2875,0.2875,0.2875,0.2875,0.2875,0.2875,0.2875,0.2875,0.2875,0.2875,0.2875,0.2875,0.2899,0.2959,0.2714,0.2662,0.261,0.2634,0.2757,0.2854,0.2981,0.3304,0.3629,0.3866,0.43,0.4612,0.4686,0.4849,0.5,0.493,0.4871,0.4834,0.4834,0.4834,0.4834,0.4834,0.4834,0.4736,0.4537,0.4409,0.4305,0.4133,0.4111,0.4063,0.4287,0.3983,0.3849,0.3969,0.3941,0.406,0.443,0.4208,0.4634,0.5738,0.5367,0.5598,0.2294,0.2781,0.3247,0.2936,0.3242,0.3664,0.4115,0.4489,0.4733,0.4716,0.435,0.3883,0.3369,0.2629,0.1411,-0.0607,-0.0182,0.0281,-0.037,-0.0558,-0.0922,-0.1784,-0.179,-0.1689,-0.164,-0.1744,-0.1737,-0.1685,-0.1557,-0.1401,-0.1477,-0.044,0.0356,0.0896,0.1525,0.2243,0.2875,0.2768,0.2695,0.266,0.2531,0.2432,0.2539,0.2612,0.2694,0.2875,0.2875,0.2875,0.2875,0.2875,0.2884,0.2899,0.2882,0.2897,0.2925,0.2888,0.2886,0.2898,0.288,0.2875,0.2875,0.2875,0.2875,0.2875,0.2875,0.2875,0.2875,0.2875,0.3007,0.308,0.2914,0.2858,0.2808,0.2845,0.3103,0.3335,0.3355,0.3681,0.4111,0.4221,0.4543,0.4751,0.4832,0.4992,0.5049,0.5018,0.4937,0.4877,0.4877,0.4853,0.4834,0.4834,0.4736,0.4636,0.4438,0.4237,0.4036,0.3934,0.3633,0.3592,0.3981,0.3766,0.373,0.3863,0.3972,0.4185,0.4422,0.4016,0.444,0.5728,0.4906,0.5135,0.2441,0.2679,0.2839,0.2764,0.2876,0.3088,0.3559,0.4136,0.4586,0.4922,0.4253,0.327,0.2087,0.0824,-0.066,-0.2675,-0.297,-0.2866,-0.2592,-0.2364,-0.2136,-0.1829,-0.1536,-0.1263,-0.1263,-0.1514,-0.1681,-0.1681,-0.1934,-0.2208,-0.2519,-0.0695,0.0263,-0.0,0.1885,0.2875,0.2875,0.2875,0.2875,0.2875,0.2875,0.2815,0.2591,0.281,0.2875,0.2875,0.2875,0.2875,0.2875,0.2875,0.2907,0.2952,0.2897,0.2946,0.3129,0.2917,0.291,0.2951,0.2894,0.2875,0.2875,0.2875,0.2875,0.2875,0.2875,0.2875,0.2875,0.2876,0.3099,0.3361,0.3108,0.3184,0.3262,0.3384,0.3672,0.3954,0.4023,0.4258,0.459,0.4817,0.4929,0.5014,0.5152,0.5245,0.5214,0.5122,0.503,0.4971,0.4971,0.489,0.4834,0.4834,0.4537,0.4438,0.4438,0.3937,0.3636,0.3636,0.3332,0.3332,0.3635,0.3818,0.3863,0.3529,0.4072,0.425,0.4313,0.3947,0.4372,0.5536,0.4533,0.4533,0.2362,0.2647,0.2872,0.2888,0.2952,0.3118,0.3599,0.3824,0.3916,0.3909,0.3496,0.2822,0.1478,0.0594,-0.0603,-0.2587,-0.2705,-0.2523,-0.2309,-0.2027,-0.1828,-0.1449,-0.1353,-0.1339,-0.1318,-0.1583,-0.1765,-0.1934,-0.2018,-0.1966,-0.1775,-0.0963,-0.0088,0.0986,0.1436,0.2064,0.2875,0.2734,0.2643,0.2604,0.2643,0.2741,0.281,0.2883,0.2875,0.2875,0.2875,0.2962,0.3139,0.3139,0.3061,0.2902,0.2925,0.2955,0.2981,0.2946,0.2944,0.2956,0.2939,0.2907,0.288,0.292,0.2906,0.2882,0.2921,0.2906,0.2891,0.2974,0.3258,0.335,0.3151,0.3252,0.3477,0.3756,0.3813,0.3954,0.4242,0.455,0.4748,0.4918,0.4995,0.5186,0.5335,0.5288,0.5235,0.5208,0.5071,0.4848,0.4583,0.4752,0.4736,0.4537,0.4438,0.4338,0.4135,0.3934,0.3734,0.3332,0.3433,0.3513,0.3566,0.3602,0.3662,0.3751,0.3875,0.3899,0.3728,0.3611,0.3941,0.4433,0.4133,0.4332,0.2464,0.2799,0.3062,0.2904,0.2928,0.3036,0.3316,0.3599,0.3721,0.3682,0.3373,0.2714,0.1171,0.0517,-0.0435,-0.2242,-0.2492,-0.2376,-0.1979,-0.1874,-0.1687,-0.1332,-0.1319,-0.1223,-0.0964,-0.1056,-0.1146,-0.1064,-0.099,-0.0926,-0.0698,-0.0174,0.0526,0.1345,0.1705,0.2154,0.2875,0.2636,0.2546,0.2515,0.2455,0.2544,0.2604,0.2694,0.2784,0.2784,0.2873,0.2963,0.305,0.305,0.3066,0.2909,0.292,0.2954,0.2989,0.2941,0.2939,0.2958,0.2958,0.3012,0.3061,0.303,0.3011,0.2969,0.3005,0.2901,0.2984,0.3174,0.338,0.3574,0.3358,0.3552,0.3772,0.3819,0.4005,0.4173,0.4576,0.4863,0.4941,0.5027,0.5196,0.5263,0.5316,0.5282,0.5233,0.5196,0.5065,0.4838,0.4448,0.4537,0.4537,0.4236,0.4137,0.4036,0.4033,0.3831,0.3633,0.3332,0.3433,0.3416,0.3377,0.3449,0.3528,0.3514,0.3748,0.3673,0.3375,0.3448,0.3665,0.4033,0.3732,0.3932,0.2629,0.2953,0.3292,0.2905,0.2914,0.2978,0.2866,0.3354,0.3837,0.3829,0.3696,0.2956,0.1123,0.0519,-0.0172,-0.1851,-0.2307,-0.2323,-0.1766,-0.1731,-0.1627,-0.138,-0.1274,-0.0943,-0.0393,-0.0236,-0.0,0.0551,0.0642,0.0574,0.0421,0.1289,0.1755,0.1524,0.2424,0.2873,0.2875,0.2604,0.2513,0.2513,0.2244,0.2154,0.2154,0.2424,0.2513,0.2513,0.2784,0.2873,0.2875,0.2963,0.2995,0.2946,0.2901,0.2947,0.3123,0.2921,0.2914,0.2958,0.2958,0.31,0.3148,0.303,0.3103,0.3147,0.297,0.2882,0.2984,0.3321,0.3667,0.3832,0.3613,0.378,0.3952,0.3825,0.4151,0.4487,0.491,0.5088,0.5269,0.5353,0.5302,0.5241,0.5235,0.5233,0.5202,0.5108,0.5024,0.4838,0.4448,0.4338,0.4338,0.4034,0.3734,0.3736,0.3932,0.3531,0.3332,0.3534,0.3332,0.323,0.323,0.3377,0.3373,0.3229,0.3514,0.361,0.323,0.3374,0.3671,0.3932,0.343,0.3432,0.2023,0.2362,0.2913,0.2956,0.2948,0.2928,0.2852,0.3266,0.3481,0.3252,0.3493,0.3157,0.1082,0.0678,0.0086,-0.173,-0.2086,-0.2102,-0.1727,-0.1715,-0.1699,-0.1587,-0.0945,-0.055,-0.055,-0.0,0.0396,0.0322,0.0567,0.0827,0.1033,0.156,0.2019,0.2602,0.2603,0.2694,0.2875,0.2513,0.2244,0.2244,0.1974,0.1794,0.1615,0.2243,0.2604,0.2784,0.305,0.3051,0.2875,0.305,0.3058,0.2895,0.2928,0.2955,0.2976,0.295,0.2947,0.2958,0.2958,0.3012,0.2971,0.303,0.3042,0.303,0.3032,0.3124,0.323,0.339,0.3798,0.4017,0.3613,0.378,0.4067,0.4203,0.4215,0.4461,0.5109,0.52,0.5251,0.5269,0.5257,0.522,0.5151,0.5137,0.5106,0.5014,0.4983,0.4733,0.4144,0.4236,0.4237,0.3736,0.3635,0.3635,0.3635,0.3534,0.3433,0.3331,0.3433,0.3433,0.323,0.3218,0.3218,0.323,0.3306,0.3306,0.323,0.3218,0.3318,0.3331,0.323,0.323,0.2321,0.2556,0.2802,0.2924,0.2561,0.2334,0.2784,0.2757,0.2794,0.3046,0.3628,0.3389,0.1395,0.1011,0.0341,-0.1372,-0.1794,-0.1808,-0.1526,-0.1617,-0.154,-0.0961,-0.0645,-0.0162,0.0406,0.0884,0.1203,0.1298,0.1559,0.1752,0.1965,0.2183,0.2485,0.2873,0.2784,0.2784,0.2875,0.2513,0.2334,0.2154,0.2064,0.1974,0.1974,0.2243,0.2513,0.2875,0.3051,0.2962,0.2875,0.3051,0.2962,0.2877,0.2906,0.2918,0.2921,0.2948,0.2958,0.2962,0.2992,0.3056,0.3102,0.304,0.303,0.3097,0.3097,0.3188,0.3301,0.3685,0.3973,0.4073,0.3939,0.4079,0.4219,0.438,0.4309,0.4466,0.5222,0.531,0.5257,0.5302,0.5275,0.5214,0.5124,0.5035,0.4975,0.4973,0.4834,0.4587,0.4038,0.4036,0.3836,0.3433,0.3433,0.3433,0.3636,0.3433,0.3433,0.3433,0.3433,0.3332,0.323,0.323,0.323,0.323,0.323,0.323,0.323,0.323,0.323,0.323,0.323,0.323,0.2485,0.259,0.2681,0.273,0.1973,0.1525,0.2513,0.2145,0.1763,0.2637,0.343,0.3425,0.171,0.1168,0.0505,-0.0877,-0.1286,-0.1296,-0.0956,-0.1132,-0.0982,-0.0164,-0.0166,0.0252,0.1513,0.1818,0.2043,0.2616,0.2673,0.2707,0.2707,0.2813,0.2875,0.2875,0.2875,0.2869,0.2858,0.259,0.2407,0.2219,0.2227,0.2325,0.2513,0.2334,0.2513,0.2873,0.2862,0.2864,0.2873,0.2862,0.2864,0.2875,0.2875,0.2875,0.288,0.2926,0.295,0.2963,0.3006,0.3187,0.325,0.3043,0.3106,0.3166,0.3233,0.3243,0.3464,0.404,0.4233,0.425,0.4364,0.4377,0.4375,0.4528,0.4521,0.4513,0.5212,0.5298,0.5263,0.5322,0.5261,0.5173,0.5098,0.4971,0.4908,0.4983,0.4716,0.4358,0.4053,0.3742,0.3534,0.323,0.323,0.3331,0.3534,0.3332,0.3331,0.3534,0.3332,0.323,0.323,0.323,0.323,0.323,0.323,0.323,0.323,0.323,0.323,0.323,0.323,0.323,0.1043,0.1418,0.1686,0.2214,0.1434,0.0807,0.206,0.1323,0.0521,0.0865,0.1992,0.2469,0.1514,0.0724,0.0163,-0.0081,-0.0243,-0.0082,0.0748,0.0668,0.0418,0.0418,0.1006,0.1429,0.1429,0.2096,0.2596,0.268,0.2736,0.2771,0.2771,0.2837,0.2875,0.2875,0.2875,0.2849,0.2796,0.2533,0.2335,0.2292,0.2162,0.2292,0.2513,0.2513,0.2604,0.2871,0.2818,0.2826,0.2869,0.2818,0.2827,0.2875,0.2875,0.2875,0.2875,0.2883,0.2916,0.2952,0.2912,0.3052,0.3115,0.2918,0.304,0.3099,0.3172,0.3402,0.3774,0.4003,0.4368,0.4582,0.4322,0.4377,0.4446,0.4541,0.4624,0.4706,0.513,0.5253,0.5224,0.5157,0.5071,0.5004,0.4992,0.5037,0.5075,0.5088,0.4808,0.4444,0.4236,0.3875,0.3534,0.323,0.323,0.323,0.323,0.323,0.323,0.323,0.323,0.323,0.323,0.323,0.3331,0.3534,0.3332,0.3332,0.3534,0.3534,0.3534,0.3534,0.3534,0.3433,0.0295,0.0791,0.1101,0.1397,0.0622,0.009,0.1075,0.0534,-0.0088,0.0609,0.0868,0.0853,0.0404,0.0645,0.0647,-0.0,-0.0159,-0.0,0.0822,0.0667,0.0675,0.1196,0.1385,0.1745,0.2182,0.2591,0.2744,0.2744,0.2767,0.2768,0.2562,0.2822,0.2858,0.2648,0.2645,0.2634,0.2608,0.2405,0.2208,0.2187,0.2177,0.2298,0.2471,0.2679,0.2765,0.2824,0.2831,0.283,0.2824,0.2831,0.285,0.2875,0.2875,0.2875,0.2877,0.291,0.2959,0.3006,0.2981,0.3027,0.308,0.2961,0.3049,0.3261,0.3348,0.3634,0.3873,0.4156,0.4398,0.4494,0.4542,0.4608,0.4671,0.4808,0.4906,0.4978,0.5126,0.5245,0.5216,0.5126,0.5035,0.4988,0.5039,0.4894,0.4769,0.4818,0.4341,0.3985,0.3883,0.3552,0.3332,0.323,0.323,0.323,0.323,0.323,0.323,0.3433,0.3433,0.3533,0.3632,0.3632,0.3732,0.3833,0.3533,0.3433,0.3636,0.3734,0.3633,0.3332,0.3534,0.3433,-0.0295,0.0078,0.033,0.0598,-0.0175,-0.0713,0.0269,-0.009,-0.0535,0.0088,0.0349,0.0258,-0.0249,0.0327,0.0808,0.0397,0.0238,0.0479,0.1143,0.1081,0.1186,0.1994,0.1851,0.2052,0.2782,0.2832,0.28,0.2785,0.2783,0.2677,0.2547,0.2714,0.2741,0.2523,0.2535,0.2529,0.2415,0.2205,0.2186,0.2272,0.2261,0.2365,0.2589,0.2735,0.2809,0.274,0.2801,0.2803,0.2763,0.2809,0.2837,0.2853,0.2868,0.2875,0.2879,0.2921,0.2976,0.312,0.312,0.3076,0.312,0.3092,0.3155,0.3339,0.3616,0.378,0.3995,0.4352,0.4487,0.4557,0.4777,0.4834,0.4869,0.5006,0.5126,0.5222,0.5269,0.5243,0.5196,0.5151,0.5069,0.5028,0.5096,0.4827,0.4675,0.459,0.413,0.3783,0.3662,0.3341,0.323,0.323,0.323,0.323,0.323,0.3244,0.3349,0.3536,0.365,0.3751,0.4034,0.4033,0.4033,0.4135,0.3955,0.3755,0.3734,0.3934,0.3833,0.3432,0.355,0.3558,-0.1153,-0.1194,-0.1007,-0.0083,-0.077,-0.1312,-0.0179,-0.0358,-0.0895,-0.1522,0.044,0.1734,-0.0,-0.0335,0.0244,0.1866,0.1865,0.188,0.2763,0.2691,0.2629,0.2775,0.2699,0.2811,0.2868,0.2871,0.2845,0.2788,0.2783,0.2782,0.2778,0.2785,0.2699,0.2522,0.2749,0.2638,0.2022,0.2187,0.2439,0.2692,0.2699,0.27,0.2699,0.276,0.2723,0.2614,0.2676,0.27,0.2698,0.27,0.2736,0.2794,0.2852,0.2875,0.2875,0.2877,0.2914,0.2963,0.2963,0.3041,0.312,0.3279,0.3373,0.3496,0.3814,0.3999,0.4168,0.4538,0.4628,0.4716,0.481,0.4834,0.4836,0.4847,0.4986,0.5163,0.5337,0.5237,0.5139,0.522,0.5163,0.5102,0.5106,0.5245,0.5186,0.4803,0.4462,0.4118,0.3838,0.3468,0.323,0.323,0.323,0.323,0.323,0.3283,0.3396,0.3539,0.3693,0.38,0.4036,0.4033,0.4135,0.4338,0.4517,0.4312,0.3934,0.4033,0.4033,0.3935,0.3799,0.3725,-0.1126,-0.1174,-0.1148,-0.0877,-0.1172,-0.1393,-0.0965,-0.1065,-0.1075,-0.0718,-0.0356,0.0265,0.1391,0.1609,0.1734,0.2036,0.1949,0.2118,0.2631,0.2717,0.2657,0.2718,0.2725,0.2733,0.2755,0.2793,0.2807,0.2785,0.2783,0.2783,0.2608,0.266,0.2657,0.252,0.2593,0.2393,0.2103,0.2132,0.2201,0.2223,0.2457,0.2455,0.247,0.2612,0.268,0.2602,0.2624,0.2634,0.264,0.2718,0.2763,0.2789,0.285,0.2875,0.2873,0.3051,0.3116,0.3111,0.3205,0.3167,0.3125,0.333,0.3476,0.3628,0.3801,0.4055,0.4276,0.4459,0.4508,0.4579,0.4781,0.4879,0.4967,0.5145,0.5235,0.5302,0.5367,0.5284,0.5188,0.5161,0.513,0.5108,0.5108,0.5054,0.4859,0.4689,0.4322,0.3967,0.3838,0.3471,0.323,0.323,0.323,0.323,0.323,0.3354,0.3679,0.4005,0.4133,0.4364,0.4698,0.4698,0.4802,0.4804,0.494,0.4704,0.4417,0.457,0.4492,0.4181,0.4308,0.411,-0.11,-0.1142,-0.1191,-0.1232,-0.1286,-0.1341,-0.1381,-0.1397,-0.1234,-0.0626,-0.0448,0.0089,0.1933,0.2339,0.238,0.2559,0.2546,0.2547,0.2795,0.2795,0.2737,0.2799,0.2807,0.273,0.2751,0.279,0.2805,0.2785,0.2783,0.2783,0.2608,0.2658,0.2665,0.2635,0.241,0.2304,0.2407,0.2269,0.2234,0.222,0.2374,0.2436,0.2412,0.2551,0.2628,0.2572,0.2593,0.259,0.258,0.2702,0.2752,0.276,0.2842,0.2963,0.3051,0.3138,0.3206,0.3208,0.3302,0.3249,0.3196,0.342,0.3647,0.3867,0.397,0.4123,0.4318,0.441,0.4457,0.4536,0.4773,0.4924,0.5071,0.5286,0.5335,0.5343,0.5375,0.531,0.5237,0.5206,0.5175,0.5155,0.5155,0.507,0.4853,0.4689,0.4341,0.4003,0.3873,0.3522,0.3283,0.3263,0.3279,0.3283,0.3263,0.3504,0.3849,0.4184,0.4525,0.4763,0.5106,0.5108,0.5108,0.5108,0.5139,0.5018,0.4752,0.4882,0.4788,0.4471,0.439,0.4201,0.0,0.0,0.0,-0.1196,-0.1288,-0.1321,-0.1359,-0.1365,-0.1363,-0.1332,0.0089,0.1342,0.1431,0.1342,0.1854,0.3391,0.3449,0.3362,0.336,0.3196,0.3053,0.3114,0.2951,0.2804,0.2862,0.2871,0.2847,0.2788,0.2783,0.2783,0.2786,0.2786,0.2812,0.2869,0.2373,0.2371,0.2871,0.2602,0.2546,0.2689,0.2692,0.2628,0.2512,0.2572,0.2567,0.2514,0.2572,0.2565,0.2519,0.264,0.2691,0.2704,0.2824,0.305,0.3227,0.3227,0.327,0.3328,0.3331,0.3374,0.3419,0.3633,0.3883,0.4045,0.4236,0.43,0.4318,0.441,0.4498,0.4606,0.4787,0.4969,0.5132,0.5224,0.5249,0.5273,0.5363,0.5312,0.5275,0.5365,0.531,0.5249,0.5249,0.5322,0.521,0.4819,0.4541,0.4239,0.3951,0.3624,0.339,0.3331,0.3377,0.3388,0.333,0.3643,0.4013,0.4269,0.4654,0.4878,0.512,0.5116,0.5116,0.5116,0.5204,0.5249,0.5249,0.4836,0.4687,0.4689,0.4121,0.386,-0.1076,0.0,0.0,0.0,0.0,0.0,-0.1286,-0.1337,-0.1204,-0.0428,-0.0439,-0.0179,0.1164,0.0806,0.0714,0.1851,0.2431,0.2821,0.3367,0.3362,0.3285,0.3303,0.3056,0.298,0.2999,0.287,0.2801,0.0,0.2783,0.2803,0.2847,0.2849,0.2837,0.2809,0.2705,0.2703,0.2808,0.272,0.2661,0.2627,0.2672,0.2628,0.2511,0.2527,0.2526,0.2511,0.2527,0.2526,0.2516,0.2594,0.2653,0.27,0.2778,0.3009,0.3227,0.3406,0.3453,0.3336,0.376,0.3663,0.3362,0.3863,0.3983,0.3974,0.4218,0.43,0.4318,0.441,0.4406,0.4447,0.4755,0.4969,0.5149,0.5306,0.5343,0.5351,0.5375,0.5361,0.5351,0.5375,0.5361,0.5343,0.5343,0.5365,0.5365,0.5202,0.4941,0.4582,0.4346,0.3973,0.3616,0.3388,0.3402,0.3511,0.3702,0.4053,0.4305,0.4662,0.4903,0.5152,0.5304,0.5306,0.5306,0.5306,0.5331,0.5343,0.5343,0.5208,0.5194,0.5194,0.4607,0.4302,-0.1079,-0.1089,-0.111,-0.114,0.0,0.0,-0.1323,-0.1297,-0.1173,-0.0679,-0.0964,-0.0986,0.0537,0.009,-0.0179,0.1164,0.1418,0.1838,0.3026,0.3454,0.3628,0.3628,0.3283,0.3112,0.3112,0.2974,0.2822,0.2822,0.2822,0.2837,0.2872,0.2875,0.2858,0.2823,0.2822,0.2822,0.2822,0.2822,0.276,0.264,0.2676,0.271,0.2589,0.2511,0.2511,0.2589,0.2511,0.2511,0.2592,0.2629,0.2762,0.2747,0.2835,0.2977,0.3366,0.3396,0.3471,0.3561,0.3854,0.387,0.3788,0.4049,0.4166,0.4172,0.4222,0.43,0.431,0.4363,0.4422,0.4534,0.4818,0.5028,0.5202,0.5347,0.5382,0.5382,0.5382,0.5382,0.5382,0.5382,0.5382,0.5382,0.5382,0.5382,0.5382,0.5382,0.5111,0.4748,0.4639,0.438,0.4016,0.3882,0.3795,0.3908,0.4093,0.4336,0.4589,0.4854,0.508,0.5326,0.538,0.5382,0.5382,0.5382,0.5382,0.5382,0.5382,0.5382,0.5382,0.5154,0.4661,0.4424,-0.1159,-0.1148,-0.1156,-0.1119,-0.1104,0.0,-0.1226,-0.1333,-0.1279,-0.1354,-0.1397,-0.1153,-0.0265,-0.0798,-0.0887,0.0795,0.0444,0.0626,0.2508,0.3317,0.3767,0.3767,0.3497,0.3317,0.3317,0.3051,0.2963,0.2963,0.2875,0.2875,0.2875,0.2875,0.2875,0.2875,0.2868,0.2864,0.2864,0.2864,0.2803,0.2683,0.2689,0.2794,0.2826,0.2668,0.2668,0.2826,0.2668,0.2668,0.2826,0.2826,0.2866,0.2941,0.2814,0.3122,0.3483,0.3291,0.3493,0.3793,0.3826,0.3984,0.4263,0.4217,0.425,0.4404,0.4322,0.43,0.4302,0.4312,0.4504,0.4749,0.4926,0.5106,0.5267,0.5359,0.5382,0.5382,0.5382,0.5382,0.5382,0.5382,0.5382,0.5382,0.5382,0.5382,0.5382,0.5382,0.5156,0.4931,0.4929,0.4704,0.4457,0.4394,0.4441,0.4455,0.4501,0.4779,0.4929,0.4931,0.5268,0.5382,0.5382,0.5382,0.5382,0.5382,0.5371,0.5365,0.5365,0.5375,0.5268,0.4929,0.4583,0.4327,-0.1346,-0.1321,-0.133,-0.1222,-0.1135,0.0,-0.1204,-0.124,-0.1255,-0.1248,-0.129,-0.1238,-0.1053,-0.123,-0.1238,-0.0809,-0.0338,0.0439,0.1518,0.2508,0.3136,0.3136,0.3497,0.3767,0.3767,0.3408,0.3138,0.3138,0.2962,0.2875,0.2875,0.2875,0.2875,0.2875,0.2827,0.2801,0.2801,0.2801,0.2825,0.2867,0.2919,0.2959,0.3062,0.2982,0.2984,0.3062,0.2982,0.2984,0.3062,0.3062,0.3105,0.3099,0.3019,0.3167,0.3483,0.3559,0.3645,0.3823,0.4244,0.4332,0.4212,0.4438,0.4447,0.4322,0.4304,0.43,0.4314,0.4387,0.4553,0.4749,0.4926,0.5106,0.5267,0.5359,0.5382,0.5382,0.5382,0.5382,0.5382,0.5382,0.5382,0.5382,0.5382,0.5382,0.5382,0.5382,0.5382,0.5156,0.4931,0.4817,0.47,0.446,0.4472,0.4587,0.4797,0.481,0.5043,0.5268,0.5382,0.5382,0.5382,0.5382,0.5382,0.5382,0.5086,0.4939,0.4941,0.5234,0.5268,0.4927,0.4533,0.4309,-0.1601,-0.1502,-0.1435,-0.1526,-0.1444,0.0,0.0,-0.1467,-0.1415,-0.1415,-0.1454,-0.1484,-0.1467,-0.156,-0.1649,-0.1548,-0.1097,-0.0605,-0.0,0.1229,0.2149,0.2149,0.2777,0.3227,0.3227,0.3227,0.3138,0.3051,0.2963,0.2875,0.2875,0.2875,0.2875,0.2875,0.2931,0.2915,0.2828,0.2915,0.3025,0.2979,0.3013,0.3121,0.3294,0.3139,0.3139,0.3294,0.3141,0.3139,0.3294,0.3294,0.3398,0.3443,0.3198,0.3186,0.3427,0.3502,0.3604,0.3798,0.4208,0.4344,0.4381,0.4571,0.451,0.4426,0.4381,0.4334,0.4328,0.4465,0.4506,0.4561,0.4981,0.5034,0.5047,0.5359,0.5382,0.5382,0.5382,0.5382,0.5382,0.5382,0.5382,0.5382,0.5382,0.5382,0.5382,0.5382,0.5382,0.5382,0.5156,0.5156,0.5043,0.4931,0.4931,0.5043,0.5156,0.5156,0.5268,0.5382,0.5382,0.5382,0.5382,0.5268,0.5025,0.4873,0.468,0.453,0.453,0.4789,0.4809,0.4589,0.4334,0.41,-0.1941,-0.1909,-0.1836,-0.1837,-0.183,-0.1838,0.0,0.0,0.0,-0.16,-0.1711,-0.1729,-0.1722,-0.1892,-0.1894,-0.1722,-0.176,-0.1601,-0.1382,-0.0085,0.0879,0.1143,0.1866,0.2324,0.2315,0.2751,0.3022,0.296,0.2941,0.2939,0.2873,0.2875,0.2873,0.2963,0.305,0.305,0.2963,0.305,0.3072,0.3028,0.3028,0.3202,0.3526,0.3295,0.3374,0.3526,0.3295,0.3374,0.3526,0.3526,0.3682,0.3773,0.3383,0.3297,0.3369,0.3531,0.3659,0.3793,0.4066,0.4344,0.4645,0.4379,0.4252,0.4225,0.4154,0.4199,0.4381,0.453,0.4467,0.4412,0.4942,0.4959,0.4935,0.5359,0.5382,0.5382,0.5382,0.5382,0.5382,0.5382,0.5382,0.5382,0.5382,0.5382,0.5382,0.5382,0.5382,0.5382,0.5382,0.5382,0.5382,0.5382,0.5382,0.5382,0.5382,0.5382,0.5382,0.5382,0.5382,0.5382,0.5382,0.5139,0.4877,0.4593,0.4391,0.4346,0.4346,0.433,0.4232,0.4261,0.4047,0.3909,-0.2931,-0.2933,-0.2708,-0.196,-0.1781,-0.1847,-0.1859,0.0,-0.1752,-0.1756,0.0,-0.1753,-0.1788,0.0,0.0,-0.1787,-0.1776,-0.1747,-0.1579,-0.1375,-0.0905,0.0164,0.1038,0.151,0.1569,0.2055,0.2583,0.3129,0.3032,0.2934,0.2868,0.2875,0.2962,0.3138,0.3051,0.3051,0.3138,0.3051,0.3075,0.3276,0.3276,0.3446,0.3763,0.3763,0.3763,0.3763,0.3763,0.3763,0.3763,0.3763,0.3763,0.3773,0.354,0.3542,0.3624,0.3705,0.3838,0.3979,0.4252,0.4453,0.4473,0.3529,0.3115,0.3067,0.306,0.3776,0.4545,0.4279,0.4356,0.4558,0.4761,0.4742,0.4935,0.5359,0.5382,0.5382,0.5382,0.5382,0.5382,0.5382,0.5382,0.5382,0.5382,0.5382,0.5382,0.5382,0.5382,0.5382,0.5382,0.5382,0.5382,0.5382,0.5382,0.5382,0.5382,0.5382,0.5382,0.5382,0.5382,0.5382,0.5382,0.5302,0.5146,0.5136,0.4763,0.4579,0.4579,0.4194,0.4025,0.394,0.4154,0.4043,-0.3756,-0.3542,-0.3195,-0.3265,-0.3052,-0.2931,-0.3299,-0.2955,-0.2549,-0.2549,0.0,0.0,0.0,0.0,0.0,0.0,-0.2038,-0.1975,-0.1667,-0.1733,-0.1471,-0.0828,0.0085,0.0778,0.1214,0.1915,0.2461,0.2594,0.3087,0.3258,0.3047,0.305,0.3051,0.3051,0.3192,0.319,0.305,0.328,0.3404,0.3425,0.3465,0.3635,0.384,0.3787,0.3763,0.3841,0.3921,0.3999,0.3999,0.4075,0.4075,0.3932,0.3945,0.379,0.3624,0.3272,0.3452,0.3817,0.3358,0.3753,0.4166,0.2309,0.1928,0.2092,0.2067,0.2651,0.3487,0.3705,0.4038,0.4395,0.4998,0.4962,0.4998,0.526,0.5382,0.5382,0.5382,0.5382,0.5382,0.5382,0.5382,0.5382,0.5382,0.5382,0.5382,0.5382,0.5382,0.5382,0.5382,0.5382,0.5382,0.5382,0.5382,0.5382,0.5382,0.5382,0.5382,0.5382,0.5382,0.5246,0.4753,0.4887,0.4819,0.4559,0.4343,0.4286,0.4286,0.405,0.3965,0.3922,0.4025,0.4025,-0.4266,-0.3993,-0.3624,-0.4272,-0.4099,-0.3922,-0.4339,-0.3915,-0.3444,-0.3444,-0.3132,0.0,0.0,0.0,-0.2743,-0.2352,0.0,-0.2118,-0.1873,-0.1926,-0.1749,-0.1376,-0.0742,-0.0,0.0767,0.1643,0.2187,0.2287,0.3083,0.3454,0.3315,0.3229,0.3139,0.3053,0.3271,0.3268,0.3053,0.3446,0.3582,0.3559,0.3676,0.3843,0.3978,0.3912,0.3944,0.3997,0.4155,0.4155,0.4155,0.4309,0.4075,0.3775,0.4055,0.3812,0.3286,0.3102,0.3436,0.3769,0.2688,0.2806,0.3026,0.0824,0.0549,0.1189,0.1358,0.2024,0.2847,0.3482,0.3898,0.4325,0.5066,0.5008,0.5012,0.5262,0.5382,0.5382,0.5382,0.5382,0.5373,0.5349,0.5365,0.5373,0.5347,0.5365,0.5382,0.5382,0.5382,0.5382,0.5382,0.5382,0.5371,0.5347,0.5367,0.5371,0.5345,0.5254,0.5268,0.5156,0.5156,0.4895,0.4486,0.4618,0.4537,0.4355,0.4275,0.4234,0.4234,0.4234,0.4234,0.4234,0.4133,0.4135,-0.4238,0.0,-0.4114,-0.4332,-0.4389,-0.4392,-0.4384,-0.4384,-0.4382,-0.4382,-0.4535,-0.4377,-0.3524,-0.36,-0.3443,0.0,-0.2463,0.0,0.0,-0.2109,-0.183,-0.1465,-0.1328,-0.0896,0.0081,0.0814,0.1643,0.2518,0.3028,0.3432,0.358,0.3141,0.3142,0.3588,0.3139,0.3139,0.3587,0.3315,0.3367,0.3823,0.3819,0.3904,0.4227,0.4223,0.4248,0.4384,0.4384,0.4384,0.4384,0.4155,0.3604,0.291,0.363,0.3276,0.2445,0.3542,0.4064,0.4047,0.2689,0.1703,0.0808,-0.0808,-0.0718,0.027,0.1284,0.2183,0.3048,0.4112,0.435,0.4383,0.4678,0.4809,0.4939,0.5359,0.5382,0.5382,0.5382,0.5382,0.5355,0.5267,0.532,0.5353,0.5265,0.5322,0.5382,0.5382,0.5382,0.5382,0.5382,0.5382,0.5347,0.5257,0.5328,0.5345,0.5255,0.4995,0.4817,0.4592,0.448,0.4557,0.4809,0.4725,0.4746,0.4973,0.4881,0.4734,0.4734,0.4734,0.4734,0.4734,0.4537,0.4338,0.0,0.0,-0.3648,-0.4499,0.0,0.0,-0.5235,-0.5162,-0.5007,-0.5007,-0.4846,-0.4533,-0.4148,-0.4171,0.0,0.0,-0.2803,-0.2591,0.0,-0.1962,-0.1848,-0.1634,-0.1522,-0.128,-0.0893,-0.0083,0.0511,0.0858,0.1564,0.2205,0.2685,0.2509,0.269,0.3142,0.3098,0.3095,0.3317,0.3537,0.3701,0.3905,0.4025,0.414,0.4164,0.4101,0.4055,0.4106,0.4265,0.4349,0.4431,0.453,0.3776,0.2572,0.2613,0.2323,0.2111,0.263,0.3484,0.3868,0.0896,-0.0179,-0.009,-0.0,-0.0,0.0276,0.1124,0.213,0.3007,0.3472,0.411,0.4676,0.509,0.5222,0.523,0.5373,0.5382,0.5365,0.5304,0.529,0.5263,0.5171,0.5179,0.5192,0.5159,0.5179,0.5222,0.5282,0.529,0.5269,0.5208,0.52,0.519,0.5157,0.5181,0.5104,0.4912,0.477,0.4482,0.4147,0.4369,0.4446,0.4264,0.4346,0.4405,0.4432,0.4562,0.4621,0.4621,0.4764,0.4834,0.4834,0.4736,0.4636,-0.3575,-0.3341,0.0,-0.4272,-0.4293,0.0,-0.5384,0.0,-0.5214,-0.5214,-0.53,-0.5053,-0.4089,-0.427,-0.4236,0.0,0.0,-0.2569,0.0,-0.2056,-0.1963,-0.1753,-0.1564,-0.1405,-0.1269,-0.0492,0.0084,-0.0,0.0869,0.1498,0.1878,0.206,0.2331,0.2602,0.3096,0.3271,0.3317,0.3689,0.3864,0.4034,0.4128,0.426,0.4342,0.4197,0.4238,0.4287,0.4417,0.4486,0.4481,0.4136,0.321,0.2008,0.1781,0.1318,0.0844,0.1226,0.1963,0.2335,-0.0448,-0.1166,-0.0809,-0.0273,-0.0276,-0.0186,0.1041,0.1849,0.261,0.3524,0.4252,0.4895,0.5238,0.5382,0.5373,0.5341,0.5333,0.5308,0.5216,0.5196,0.5169,0.5077,0.5086,0.5098,0.5065,0.498,0.502,0.5186,0.5196,0.5173,0.5116,0.5108,0.5096,0.5063,0.509,0.4931,0.4691,0.4438,0.4147,0.3924,0.4035,0.4114,0.3937,0.4044,0.4216,0.4329,0.4409,0.4384,0.446,0.4608,0.4683,0.4681,0.475,0.4834]},{"header":{"parameterUnit":"m.s-1","parameterCategory":1,"la1":30.6,"la2":29.2853,"lo1":-89.7004,"lo2":-87.6739,"dy":0.0162,"dx":0.0183,"nx":112,"ny":82,"refTime":"2023-05-15T06:00:00:Z","depth":0,"parameterNumber":3,"parameterNumberName":"V-component_of_WINDS"},"data":[0.0,0.0,0.0,0.0,0.0,0.0,0.0,0.0,0.0,0.0,0.0,0.0,0.0,0.0,0.0,0.0,0.0,0.0,0.0,0.0,0.0,0.0,0.0,0.0,0.0,0.0,0.0,0.0,0.0,0.0,0.0,0.0,0.0,0.0,0.0,0.0,0.0,0.0,0.0,0.0,0.0,0.0,0.0,0.0,0.0,0.0,0.0,0.0,0.0,0.0,0.0,0.0,0.0,0.0,0.0,0.0,0.0,0.0,0.0,0.0,0.0,0.0,0.0,0.0,0.0,0.0,0.0,0.0,0.0,0.0,0.0,0.0,0.0,0.0,0.0,0.0,0.0,0.0,0.0,0.0,0.0,0.0,0.0,0.0,0.0,0.0,0.0,0.0,0.0,0.0,-2.2853,-2.2522,-2.5842,-2.8694,-3.0249,-3.1099,-2.983,-2.5705,0.0,0.0,0.0,0.0,0.0,0.0,0.0,0.0,0.0,0.0,0.0,0.0,0.0,0.0,0.0,0.0,0.0,0.0,0.0,0.0,0.0,0.0,0.0,0.0,0.0,0.0,0.0,0.0,0.0,0.0,0.0,0.0,0.0,0.0,0.0,0.0,0.0,0.0,0.0,0.0,0.0,0.0,0.0,0.0,0.0,0.0,0.0,0.0,0.0,0.0,0.0,0.0,0.0,0.0,0.0,0.0,0.0,0.0,0.0,0.0,0.0,0.0,0.0,0.0,0.0,0.0,0.0,0.0,0.0,0.0,0.0,0.0,0.0,0.0,0.0,0.0,0.0,0.0,0.0,0.0,0.0,0.0,0.0,0.0,0.0,0.0,0.0,0.0,0.0,0.0,0.0,0.0,0.0,0.0,0.0,0.0,0.0,0.0,0.0,0.0,0.0,0.0,0.0,0.0,-2.3702,-2.5803,-2.7217,-2.8371,-2.9245,-3.0075,-2.9029,-2.5465,0.0,0.0,0.0,0.0,0.0,0.0,0.0,0.0,0.0,0.0,0.0,0.0,0.0,0.0,0.0,0.0,0.0,0.0,0.0,0.0,0.0,0.0,0.0,0.0,0.0,0.0,0.0,0.0,0.0,0.0,0.0,0.0,0.0,0.0,0.0,0.0,0.0,0.0,0.0,0.0,0.0,0.0,0.0,0.0,0.0,0.0,0.0,0.0,0.0,0.0,0.0,0.0,0.0,0.0,0.0,0.0,0.0,0.0,0.0,0.0,0.0,0.0,0.0,0.0,0.0,0.0,0.0,0.0,0.0,0.0,0.0,0.0,0.0,0.0,0.0,0.0,0.0,0.0,0.0,0.0,0.0,0.0,0.0,0.0,0.0,0.0,0.0,0.0,0.0,0.0,0.0,0.0,0.0,0.0,0.0,0.0,0.0,0.0,0.0,0.0,0.0,0.0,0.0,-2.2017,-2.3519,-2.702,-2.769,-2.8579,-3.0259,-3.0279,-2.9155,-2.6663,-2.7642,0.0,0.0,0.0,0.0,0.0,0.0,0.0,0.0,0.0,0.0,0.0,0.0,0.0,0.0,0.0,0.0,0.0,0.0,0.0,0.0,0.0,0.0,0.0,0.0,0.0,0.0,0.0,0.0,0.0,0.0,0.0,0.0,0.0,0.0,0.0,0.0,0.0,0.0,0.0,0.0,0.0,0.0,0.0,0.0,0.0,0.0,0.0,0.0,0.0,0.0,0.0,0.0,0.0,0.0,0.0,0.0,0.0,0.0,0.0,0.0,0.0,0.0,0.0,0.0,0.0,0.0,0.0,0.0,0.0,0.0,0.0,0.0,0.0,0.0,0.0,0.0,0.0,0.0,0.0,0.0,0.0,0.0,0.0,0.0,0.0,0.0,0.0,0.0,0.0,0.0,0.0,0.0,0.0,0.0,0.0,0.0,0.0,0.0,0.0,0.0,0.0,0.0,-2.2956,-2.4099,-2.7499,-2.7988,-2.8991,-3.1287,-3.0615,-2.9355,-2.7679,-2.7537,0.0,0.0,0.0,0.0,0.0,0.0,0.0,0.0,0.0,0.0,0.0,0.0,0.0,0.0,0.0,0.0,0.0,0.0,0.0,0.0,0.0,0.0,0.0,0.0,0.0,0.0,0.0,0.0,0.0,0.0,0.0,0.0,0.0,0.0,0.0,0.0,0.0,0.0,0.0,0.0,0.0,0.0,0.0,0.0,0.0,0.0,0.0,0.0,0.0,0.0,0.0,0.0,0.0,0.0,0.0,0.0,0.0,0.0,0.0,0.0,0.0,0.0,0.0,0.0,0.0,0.0,0.0,0.0,0.0,0.0,0.0,0.0,0.0,0.0,0.0,0.0,0.0,0.0,0.0,0.0,0.0,0.0,0.0,0.0,0.0,0.0,0.0,0.0,0.0,0.0,0.0,0.0,0.0,0.0,0.0,0.0,0.0,0.0,0.0,0.0,0.0,0.0,-2.5309,-2.6651,-2.7698,-2.8461,-2.959,-3.1268,-3.0563,-2.9285,-2.7599,-2.75,0.0,0.0,0.0,0.0,0.0,0.0,0.0,0.0,0.0,0.0,0.0,0.0,0.0,0.0,0.0,0.0,0.0,0.0,0.0,0.0,0.0,0.0,0.0,0.0,0.0,0.0,0.0,0.0,0.0,0.0,0.0,0.0,0.0,0.0,0.0,0.0,0.0,0.0,0.0,0.0,0.0,0.0,0.0,0.0,0.0,0.0,0.0,0.0,0.0,0.0,0.0,0.0,0.0,0.0,0.0,0.0,0.0,0.0,0.0,0.0,0.0,0.0,0.0,0.0,0.0,0.0,0.0,0.0,0.0,0.0,0.0,0.0,0.0,0.0,0.0,0.0,0.0,0.0,0.0,0.0,0.0,0.0,0.0,0.0,0.0,0.0,0.0,0.0,0.0,0.0,0.0,0.0,0.0,0.0,0.0,0.0,0.0,0.0,0.0,0.0,0.0,0.0,-2.4716,-2.622,-2.7548,-2.8886,-3.0323,-3.1903,-3.1701,-3.0774,-2.909,0.0,0.0,0.0,0.0,0.0,0.0,0.0,0.0,0.0,0.0,0.0,0.0,0.0,0.0,0.0,0.0,0.0,0.0,0.0,0.0,0.0,0.0,0.0,0.0,0.0,0.0,0.0,0.0,0.0,0.0,0.0,0.0,0.0,0.0,0.0,0.0,0.0,0.0,0.0,0.0,0.0,0.0,0.0,0.0,0.0,0.0,0.0,0.0,0.0,0.0,0.0,0.0,0.0,0.0,0.0,0.0,0.0,0.0,0.0,0.0,0.0,0.0,0.0,0.0,0.0,0.0,0.0,0.0,0.0,0.0,0.0,0.0,0.0,0.0,0.0,0.0,0.0,0.0,0.0,0.0,0.0,0.0,0.0,0.0,0.0,0.0,0.0,0.0,0.0,0.0,0.0,0.0,0.0,0.0,0.0,0.0,0.0,0.0,0.0,0.0,0.0,0.0,-2.3554,-2.5217,-2.6791,-2.7897,-2.9246,-3.0741,-3.2327,-3.195,-3.1137,-2.9983,0.0,0.0,0.0,0.0,0.0,0.0,0.0,0.0,0.0,0.0,0.0,0.0,0.0,0.0,0.0,0.0,0.0,0.0,0.0,0.0,0.0,0.0,0.0,0.0,0.0,0.0,0.0,0.0,0.0,0.0,0.0,0.0,0.0,0.0,0.0,0.0,0.0,0.0,0.0,0.0,0.0,0.0,0.0,0.0,0.0,0.0,0.0,0.0,0.0,0.0,0.0,0.0,0.0,0.0,0.0,0.0,0.0,0.0,0.0,0.0,0.0,0.0,0.0,0.0,0.0,0.0,0.0,0.0,0.0,0.0,0.0,0.0,0.0,0.0,0.0,0.0,0.0,0.0,0.0,0.0,0.0,0.0,0.0,0.0,0.0,0.0,0.0,0.0,0.0,0.0,0.0,0.0,0.0,0.0,0.0,0.0,0.0,0.0,0.0,0.0,0.0,0.0,-2.5168,-2.7364,-2.8902,-2.8911,-2.9637,-3.0792,-3.2469,-3.0961,-2.9945,0.0,0.0,0.0,0.0,0.0,0.0,0.0,0.0,0.0,0.0,0.0,0.0,0.0,0.0,0.0,0.0,0.0,0.0,0.0,0.0,0.0,0.0,0.0,0.0,0.0,0.0,0.0,0.0,0.0,0.0,0.0,0.0,0.0,0.0,0.0,0.0,0.0,0.0,0.0,0.0,0.0,0.0,0.0,0.0,0.0,0.0,0.0,0.0,0.0,0.0,0.0,0.0,0.0,0.0,0.0,0.0,0.0,0.0,0.0,0.0,0.0,0.0,0.0,0.0,0.0,0.0,0.0,0.0,0.0,0.0,0.0,0.0,0.0,0.0,0.0,0.0,0.0,0.0,0.0,0.0,0.0,0.0,0.0,0.0,0.0,0.0,0.0,0.0,0.0,0.0,0.0,0.0,0.0,0.0,0.0,0.0,0.0,0.0,0.0,0.0,0.0,0.0,0.0,-2.415,-2.6917,-2.8874,-2.8841,-3.0639,-3.2015,-3.2422,-3.2538,-3.182,-3.0042,0.0,0.0,0.0,0.0,0.0,0.0,0.0,0.0,0.0,0.0,0.0,0.0,0.0,0.0,0.0,0.0,0.0,0.0,0.0,0.0,0.0,0.0,0.0,0.0,0.0,0.0,0.0,0.0,0.0,0.0,0.0,0.0,0.0,0.0,0.0,0.0,0.0,0.0,0.0,0.0,0.0,0.0,0.0,0.0,0.0,0.0,0.0,0.0,0.0,0.0,0.0,0.0,0.0,0.0,0.0,0.0,0.0,0.0,0.0,0.0,0.0,0.0,0.0,0.0,0.0,0.0,0.0,0.0,0.0,0.0,0.0,0.0,0.0,0.0,0.0,0.0,0.0,0.0,0.0,0.0,0.0,0.0,0.0,0.0,0.0,0.0,0.0,0.0,0.0,0.0,0.0,0.0,0.0,0.0,0.0,0.0,0.0,0.0,0.0,0.0,0.0,0.0,-2.4642,-2.7381,-2.9341,-2.9326,-3.0985,-3.2188,-3.2422,-3.2596,-3.1914,-3.0075,0.0,0.0,0.0,0.0,0.0,0.0,0.0,0.0,0.0,0.0,0.0,0.0,0.0,0.0,0.0,0.0,0.0,0.0,0.0,0.0,0.0,0.0,0.0,0.0,0.0,0.0,0.0,0.0,0.0,0.0,0.0,0.0,0.0,0.0,0.0,0.0,0.0,0.0,0.0,0.0,0.0,0.0,0.0,0.0,0.0,0.0,0.0,0.0,0.0,0.0,0.0,0.0,0.0,0.0,0.0,0.0,0.0,0.0,0.0,0.0,0.0,0.0,0.0,0.0,0.0,0.0,0.0,0.0,0.0,0.0,0.0,0.0,0.0,0.0,0.0,0.0,0.0,0.0,0.0,0.0,0.0,0.0,0.0,0.0,0.0,0.0,0.0,0.0,0.0,0.0,0.0,0.0,0.0,0.0,0.0,0.0,0.0,0.0,0.0,0.0,0.0,0.0,-2.6122,-2.8389,-3.0041,-3.0202,-3.0931,-3.1697,-3.2421,-3.176,-3.0945,-3.0048,0.0,0.0,0.0,0.0,0.0,0.0,0.0,0.0,0.0,0.0,0.0,0.0,0.0,0.0,0.0,0.0,0.0,0.0,0.0,0.0,0.0,0.0,0.0,0.0,0.0,0.0,0.0,0.0,0.0,0.0,0.0,0.0,0.0,0.0,0.0,0.0,0.0,0.0,0.0,0.0,0.0,0.0,0.0,0.0,0.0,0.0,0.0,0.0,0.0,0.0,0.0,0.0,0.0,0.0,0.0,0.0,0.0,0.0,0.0,0.0,-2.5149,-2.3183,0.0,0.0,0.0,0.0,0.0,0.0,0.0,0.0,0.0,0.0,0.0,0.0,0.0,0.0,0.0,0.0,0.0,0.0,0.0,0.0,0.0,0.0,0.0,0.0,0.0,0.0,0.0,0.0,0.0,0.0,0.0,0.0,0.0,0.0,0.0,0.0,0.0,0.0,0.0,0.0,-2.694,-2.8787,-3.0273,-3.0972,-3.1754,-3.2289,-3.2409,-3.2256,-3.1481,-2.9954,-2.831,0.0,0.0,0.0,0.0,0.0,0.0,0.0,0.0,0.0,0.0,0.0,0.0,0.0,0.0,0.0,0.0,0.0,0.0,0.0,0.0,0.0,0.0,0.0,0.0,0.0,0.0,0.0,0.0,0.0,0.0,0.0,0.0,0.0,0.0,0.0,0.0,0.0,0.0,0.0,0.0,0.0,0.0,0.0,0.0,0.0,0.0,0.0,0.0,0.0,0.0,0.0,0.0,0.0,0.0,0.0,0.0,0.0,0.0,0.0,-2.8236,-2.6619,0.0,0.0,0.0,0.0,0.0,0.0,0.0,0.0,0.0,0.0,0.0,0.0,0.0,0.0,0.0,0.0,0.0,0.0,0.0,0.0,0.0,0.0,0.0,0.0,0.0,0.0,0.0,0.0,0.0,0.0,0.0,0.0,0.0,0.0,0.0,0.0,0.0,0.0,0.0,0.0,-2.7811,-2.9796,-3.1189,-3.1246,-3.1967,-3.2291,-3.186,-3.1784,-3.1235,-2.9986,-2.8717,0.0,0.0,0.0,0.0,0.0,0.0,0.0,0.0,0.0,0.0,0.0,0.0,0.0,0.0,0.0,0.0,0.0,0.0,0.0,0.0,0.0,0.0,0.0,0.0,0.0,0.0,0.0,0.0,0.0,0.0,0.0,0.0,0.0,0.0,0.0,0.0,0.0,0.0,0.0,0.0,0.0,0.0,0.0,0.0,0.0,0.0,0.0,0.0,0.0,0.0,0.0,0.0,0.0,-2.6121,-2.7954,-3.1216,-3.3173,-3.3202,-3.1699,-3.1556,-3.0648,-2.9055,-2.6255,0.0,0.0,0.0,0.0,0.0,0.0,0.0,0.0,0.0,0.0,0.0,0.0,0.0,0.0,0.0,0.0,0.0,0.0,0.0,0.0,0.0,0.0,-2.6289,-2.6384,-2.7956,-2.8893,-2.682,0.0,0.0,0.0,0.0,0.0,0.0,0.0,0.0,0.0,0.0,0.0,-2.8959,-3.099,-3.2217,-3.1705,-3.2103,-3.2141,-3.1478,-3.1235,-3.0798,-3.0032,-2.9181,-2.7702,0.0,0.0,0.0,0.0,0.0,0.0,0.0,0.0,0.0,0.0,0.0,0.0,0.0,0.0,0.0,0.0,0.0,0.0,0.0,0.0,0.0,0.0,0.0,0.0,0.0,0.0,0.0,0.0,0.0,0.0,0.0,0.0,-2.4188,-2.4085,0.0,0.0,0.0,0.0,0.0,0.0,0.0,0.0,0.0,0.0,0.0,0.0,0.0,-2.7856,-2.8827,-2.8366,-2.8173,-2.8266,-2.9377,-3.1684,-3.5087,-3.8099,-3.8832,-3.7742,-3.7536,0.0,-3.261,-3.0978,0.0,0.0,0.0,0.0,0.0,0.0,0.0,0.0,0.0,0.0,0.0,0.0,0.0,0.0,0.0,0.0,0.0,0.0,0.0,0.0,0.0,0.0,-3.0684,-3.1439,-3.1806,-3.1906,-3.1514,-2.8704,-2.6143,-2.592,-2.584,-2.5721,0.0,0.0,0.0,0.0,0.0,0.0,-3.0793,-3.1798,-3.267,-3.337,-3.2822,-3.2368,-3.2255,-3.1574,-3.0818,-2.9971,-2.9153,-2.8222,-2.7131,-2.7317,0.0,0.0,0.0,0.0,0.0,0.0,0.0,0.0,0.0,0.0,0.0,0.0,0.0,0.0,0.0,0.0,0.0,0.0,0.0,0.0,0.0,0.0,0.0,0.0,0.0,0.0,0.0,0.0,0.0,-2.3322,-2.4037,-2.3068,-2.3478,-2.3231,0.0,0.0,0.0,0.0,0.0,0.0,0.0,0.0,0.0,-3.0008,-3.0095,-3.1205,-3.3512,-3.1981,-3.2158,-3.4,-3.5624,-3.7088,-3.8445,-3.9937,-4.0288,-3.9746,-3.9646,-3.8467,-3.6372,-3.3293,-3.0914,-2.8984,0.0,0.0,0.0,0.0,-2.6543,-2.6696,-2.7979,-2.8275,-2.7915,-2.6988,0.0,0.0,0.0,0.0,0.0,0.0,0.0,-2.6982,-2.9036,-3.0098,-3.0963,-3.2295,-3.2906,-3.3232,-3.3199,-3.1756,-3.0181,-2.9185,-2.8241,-2.7415,-2.6961,-2.666,0.0,0.0,0.0,-3.0976,-3.2495,-3.3387,-3.3844,-3.3802,-3.3424,-3.2817,-3.1853,-3.1419,-3.0833,-2.9967,-2.9677,-2.9146,-2.828,-2.8879,-2.8552,0.0,0.0,0.0,0.0,0.0,0.0,0.0,0.0,0.0,0.0,0.0,0.0,0.0,0.0,0.0,0.0,0.0,0.0,0.0,0.0,0.0,0.0,0.0,0.0,0.0,0.0,0.0,0.0,-2.4249,-2.4981,-2.3007,-2.4514,-2.468,0.0,0.0,0.0,0.0,0.0,0.0,-2.8904,-2.879,-3.0133,-3.3355,-3.3451,-3.4765,-3.7537,-3.5495,-3.5663,-3.8113,-3.9105,-3.9918,-4.0562,-4.035,-4.0319,-4.0476,-4.043,-3.9936,-3.8865,-3.5379,-3.3223,-3.1881,-2.9819,-2.8868,-2.872,-2.8938,-2.9136,-2.9513,-3.0856,-3.1427,-3.1366,-3.0176,-2.9582,-2.8969,-2.7243,0.0,0.0,0.0,0.0,-2.8998,-3.091,-3.1222,-3.1432,-3.2901,-3.372,-3.4141,-3.4144,-3.3956,-3.3406,-3.2101,-3.0663,-2.9485,-2.8859,-2.8165,0.0,-2.9851,-3.1229,-3.2577,-3.3954,-3.483,-3.502,-3.4217,-3.3914,-3.3306,-3.2072,-3.1716,-3.1203,-3.0364,-3.0438,-3.0138,-2.9296,-3.0074,-2.9767,-2.8163,0.0,0.0,0.0,0.0,0.0,0.0,0.0,0.0,0.0,0.0,0.0,0.0,0.0,0.0,0.0,0.0,0.0,0.0,0.0,0.0,0.0,0.0,0.0,0.0,0.0,0.0,0.0,0.0,0.0,-2.5726,-2.7734,0.0,0.0,0.0,0.0,-2.6663,-2.818,-2.9861,-3.1601,-3.318,-3.5233,-3.7899,-3.7912,-3.8353,-3.9359,-3.8472,-3.8066,-3.809,-3.6663,-3.7655,-4.0742,-3.9533,-3.9612,-4.0668,-4.0543,-3.9999,-3.9112,-3.807,-3.6178,-3.3878,-3.2933,-3.2077,-3.1507,-3.2253,-3.3034,-3.3808,-3.4652,-3.4945,-3.468,-3.3051,-3.1441,-3.0261,-3.0901,-3.0586,0.0,0.0,-3.1764,-3.1798,-3.4282,-3.4287,-3.3872,-3.484,-3.5051,-3.5035,-3.5035,-3.4388,-3.3745,-3.3599,-3.2897,-3.2269,-3.2158,0.0,-3.2421,-3.3399,-3.426,-3.4869,-3.4999,-3.5741,-3.5932,-3.5131,-3.4296,-3.3783,-3.3772,-3.3013,-3.221,-3.147,-3.1435,-3.1066,-3.0256,-3.0462,-3.0094,-2.906,-2.9268,0.0,0.0,0.0,0.0,0.0,0.0,0.0,0.0,0.0,0.0,0.0,0.0,0.0,0.0,0.0,0.0,0.0,0.0,0.0,0.0,0.0,0.0,0.0,0.0,0.0,0.0,0.0,0.0,-2.8367,-3.0396,0.0,-2.9071,-2.9123,-2.9729,-3.0833,-3.146,-3.282,-3.5126,-3.5281,-3.6503,-3.9112,-3.9141,-3.9548,-4.0461,-4.01,-3.9503,-3.8663,-3.6651,-3.7421,-4.0571,-3.9425,-3.9507,-4.0579,-4.0523,-4.0361,-4.0133,-3.983,-3.8455,-3.6516,-3.6194,-3.5921,-3.5734,-3.5944,-3.6301,-3.6639,-3.6182,-3.6055,-3.5791,-3.399,-3.2648,-3.1886,-3.2705,-3.2759,-3.281,-3.3889,-3.402,-3.4053,-3.4969,-3.4952,-3.48,-3.5171,-3.5212,-3.516,-3.516,-3.4933,-3.4689,-3.462,-3.3462,-3.2836,-3.3937,-3.3672,-3.3975,-3.5967,-3.6063,-3.631,-3.7394,-3.7337,-3.688,-3.6023,-3.5661,-3.5034,-3.3946,-3.3643,-3.2938,-3.158,-3.2151,-3.2153,-3.1302,-3.1953,-3.1914,-3.0975,-3.1047,-3.0115,0.0,0.0,0.0,0.0,0.0,0.0,0.0,0.0,0.0,0.0,0.0,0.0,0.0,0.0,0.0,0.0,0.0,0.0,0.0,0.0,0.0,0.0,0.0,0.0,0.0,-3.0464,-3.2224,-3.0175,-3.2728,-3.3619,-3.0955,-3.1724,-3.2739,-3.3576,-3.4159,-3.5242,-3.6978,-3.6803,-3.7434,-3.917,-3.9442,-3.9869,-4.05,-4.0671,-4.0362,-3.9554,-3.7668,-3.8112,-4.0526,-3.9504,-3.9581,-4.0534,-4.0564,-4.0461,-4.0331,-4.0607,-3.9835,-3.846,-3.8472,-3.8485,-3.852,-3.8414,-3.8653,-3.8896,-3.7852,-3.7123,-3.6458,-3.5185,-3.4244,-3.3674,-3.4225,-3.4588,-3.4971,-3.5493,-3.5651,-3.5637,-3.5637,-3.5408,-3.5215,-3.5261,-3.5226,-3.5209,-3.5209,-3.5196,-3.5274,-3.5526,-3.4634,-3.4181,-3.5339,-3.5302,-3.57,-3.7412,-3.7432,-3.7546,-3.8384,-3.8304,-3.7842,-3.7001,-3.6955,-3.6393,-3.4975,-3.4653,-3.3821,-3.2141,-3.2445,-3.2305,-3.1465,-3.2091,-3.2162,-3.156,-3.1876,-3.1201,-2.9471,0.0,0.0,0.0,0.0,0.0,0.0,0.0,0.0,0.0,0.0,0.0,0.0,0.0,0.0,0.0,0.0,0.0,0.0,0.0,0.0,0.0,0.0,0.0,-2.9876,-3.2624,-3.3814,-3.1347,-3.4778,-3.5659,-3.1368,-3.3991,-3.5607,-3.4685,-3.614,-3.7056,-3.7075,-3.789,-3.8365,-3.8374,-3.9129,-3.9549,-3.9553,-4.0308,-4.0698,-4.0689,-3.9499,-3.954,-4.0655,-3.9725,-3.9788,-4.064,-4.0688,-4.0273,-3.9661,-4.0471,-4.0343,-3.9649,-3.9643,-3.9643,-3.9641,-3.9577,-4.0004,-4.0497,-3.9669,-3.8226,-3.6761,-3.6691,-3.6145,-3.5515,-3.5534,-3.6067,-3.6661,-3.6699,-3.6581,-3.647,-3.647,-3.584,-3.5209,-3.5209,-3.5209,-3.5209,-3.5209,-3.5209,-3.5458,-3.6337,-3.6474,-3.6458,-3.6478,-3.7182,-3.779,-3.7876,-3.8495,0.0,-3.7902,-3.8594,-3.8827,-3.7997,-3.8022,-3.7762,-3.6972,-3.6084,-3.4865,-3.3237,-3.2388,-3.1596,-3.0807,-3.0839,-3.0856,-3.0781,-3.1665,-3.2094,-3.2,0.0,0.0,0.0,0.0,0.0,0.0,0.0,0.0,0.0,0.0,0.0,0.0,0.0,0.0,0.0,0.0,0.0,0.0,0.0,0.0,0.0,-3.1962,-3.3542,-3.3322,-3.4641,-3.5832,-3.6394,-3.7471,-3.7692,-3.6464,-3.7187,-3.7624,-3.7425,-3.778,-3.828,-3.8921,-3.9174,-3.9593,-4.0235,-4.0373,-4.0498,-4.0587,-4.0665,-4.072,-4.0752,-3.9741,-3.9741,-4.0612,-3.975,-4.0185,-4.1589,-4.097,-4.1013,-4.149,-4.1116,-4.0844,-4.0662,-4.054,-4.0524,-4.059,-4.0479,-3.981,-3.8927,-3.873,-3.7501,-3.5987,-3.5925,-3.5739,-3.5673,-3.6273,-3.6184,-3.6018,-3.6563,-3.6232,-3.5691,-3.5637,-3.5417,-3.5209,-3.5261,-3.5245,-3.5207,-3.527,-3.5273,-3.5525,-3.6348,-3.7076,-3.7721,-3.819,-3.8527,-3.8936,-3.9653,-4.0015,0.0,-3.9913,-4.0113,-3.9683,-3.8196,-3.8078,-3.7754,-3.6899,-3.5543,-3.4526,-3.4061,-3.3328,-3.2822,-3.2594,-3.2603,-3.2603,-3.259,-3.2849,-3.2641,0.0,0.0,0.0,0.0,0.0,0.0,0.0,0.0,0.0,0.0,0.0,0.0,0.0,0.0,0.0,0.0,0.0,0.0,0.0,0.0,0.0,0.0,-3.4114,-3.6024,-3.6746,-3.7269,-3.7835,-3.8486,-3.9178,-3.9166,-3.8064,-3.8588,-3.8697,-3.8005,-3.8546,-3.8968,-3.9143,-3.9477,-3.9896,-4.041,-4.0684,-4.1043,-4.1461,-4.1718,-4.1821,-4.1783,-4.0913,-4.0713,-4.1123,-4.0301,-4.0513,-4.1468,-4.1024,-4.1174,-4.1721,-4.1237,-4.107,0.0,0.0,0.0,0.0,0.0,-3.9532,-3.8351,-3.8014,-3.6961,-3.5735,-3.5697,-3.5678,-3.5833,-3.6678,-3.6581,-3.627,-3.6704,-3.64,-3.5848,-3.5456,-3.5538,-3.5662,-3.5337,-3.5509,-3.5659,-3.5403,-3.5628,-3.6142,-3.6993,-3.793,0.0,-3.9557,-3.9734,-3.9846,-4.0061,-4.0424,-4.059,-4.0234,-4.0541,-4.0408,-3.9381,-3.9306,-3.9005,-3.8132,-3.6526,0.0,0.0,0.0,-3.329,-3.329,-3.331,0.0,0.0,0.0,-3.3807,-3.364,0.0,0.0,0.0,-3.5048,-3.5139,0.0,0.0,0.0,0.0,0.0,0.0,0.0,0.0,0.0,0.0,0.0,0.0,0.0,0.0,0.0,0.0,-3.5942,-3.8101,-3.9587,-3.9977,-3.9724,-3.8768,-4.0008,-4.0036,-3.7727,-3.9062,-3.9444,-3.7893,-3.9103,-3.9641,-3.9027,-3.9568,0.0,0.0,0.0,-4.1528,-4.2236,-4.3009,-4.3349,-4.3225,-4.2408,-4.1977,-4.1899,-4.1199,-4.0916,-4.0974,-4.1084,-4.1156,-4.1142,-4.1113,-4.1108,-4.1108,-4.1108,-4.1108,-4.101,-4.0227,-3.9321,-3.8385,-3.761,0.0,0.0,-3.5924,-3.5956,-3.6117,-3.7,-3.7141,-3.7028,-3.7,-3.6813,-3.644,-3.5753,-3.5984,-3.6239,-3.5541,-3.5917,-3.6251,-3.5694,-3.619,-3.7032,-3.8059,-3.8883,-3.9695,-4.0494,-4.0674,-4.0467,-3.9758,-4.0269,-4.0483,-3.9779,-4.0403,-4.0887,-4.079,0.0,0.0,-3.9864,-3.8207,-3.6877,-3.6099,-3.4406,-3.3453,-3.3451,-3.3638,-3.3682,-3.359,-3.4506,-3.5276,-3.5905,-3.6676,-3.75,-3.8286,-3.5343,-3.5232,0.0,0.0,0.0,0.0,0.0,0.0,0.0,0.0,0.0,0.0,0.0,0.0,0.0,0.0,0.0,-3.6342,-3.8092,-3.9431,-3.9743,-4.1007,-4.1315,-3.9735,-3.9858,-3.9856,-3.9349,-4.0873,-4.1757,-4.1411,-4.1632,-4.2017,-4.2563,-4.2089,-4.208,-4.2723,-4.2859,-4.3015,-4.3226,-4.3297,-4.3364,-4.3436,-4.2518,0.0,-4.2141,-4.1982,-4.1945,-4.2007,-4.2039,-4.2086,-4.2073,-4.1378,-4.1108,-4.1108,-4.1108,-4.1108,-4.1088,-4.0898,-3.9841,-3.8471,-3.8317,-3.721,-3.6011,-3.6701,-3.6941,-3.7083,-3.796,-3.772,0.0,-3.7092,-3.6506,-3.6009,-3.6491,-3.6184,-3.5917,-3.6439,-3.6168,-3.5937,-3.6482,-3.6745,-3.7305,-3.8858,-3.9367,-3.982,-4.0624,-4.0779,-4.0731,-4.0567,-4.0818,-4.0972,-4.0804,-4.0948,-4.0779,-4.0091,-4.0045,-3.9973,-3.9805,-3.8207,-3.7124,-3.6962,-3.5321,-3.4348,-3.4347,-3.5658,-3.6067,-3.5404,-3.6261,-3.6442,-3.5903,-3.6075,-3.6601,-3.7442,-3.7494,-3.8156,0.0,0.0,0.0,0.0,0.0,0.0,0.0,0.0,0.0,0.0,0.0,-3.2235,-3.266,0.0,-3.7064,-3.8333,-3.9989,-4.1097,-4.1094,-4.2221,-4.2232,-4.0053,-4.0969,-4.1417,-4.0535,-4.2021,-4.2868,-4.2436,-4.3147,-4.3626,-4.3648,-4.3617,-4.3791,-4.42,-4.4176,-4.4377,-4.4841,-4.4754,-4.4728,-4.4738,-4.3436,-4.2812,-4.2825,-4.1972,-4.1637,-4.171,-4.171,-4.1718,-4.1713,-4.1283,-4.1108,-4.1108,-4.1104,-4.1104,-4.1049,-4.0606,-3.9622,-3.8448,-3.7995,-3.6991,-3.5977,-3.642,-3.6849,-3.7361,-3.8238,-3.8511,-3.8486,-3.8462,-3.8097,-3.7692,-3.7608,-3.7249,-3.7003,-3.7409,-3.6856,-3.651,-3.7414,-3.7599,-3.7987,-3.9296,-3.9956,-4.0421,-4.0829,-4.0896,-4.0904,-4.096,-4.1045,-4.111,-4.111,-4.111,-4.0935,-4.0493,-4.0446,-4.0446,-4.0448,-3.885,-3.7669,-3.7235,-3.5994,-3.5299,-3.5243,-3.6054,-3.6313,-3.5917,-3.6331,-3.6337,-3.5899,-3.5938,-3.6601,-3.7868,-3.8305,-3.8967,0.0,0.0,0.0,0.0,0.0,0.0,0.0,-3.0575,-2.9851,-3.2155,-3.3409,-3.4296,-3.5015,-3.6869,-3.8723,-4.0093,-4.1475,-4.2409,-4.2405,-4.3298,-4.3114,-4.0827,-4.2417,-4.3216,-4.1989,-4.313,-4.3725,-4.3203,-4.4234,-4.4681,-4.4216,-4.4633,-4.4979,-4.516,-4.5155,-4.5486,-4.6192,-4.6158,-4.6119,-4.6033,-4.4521,-4.3796,-4.3736,-4.2217,-4.1459,-4.1339,-4.1169,-4.1208,-4.1342,-4.1166,-4.1205,-4.1358,-4.1351,-4.1351,-4.1257,-4.0379,-3.9492,-3.8653,-3.7946,-3.7019,-3.6201,-3.6551,-3.7019,-3.7623,-3.85,-3.9123,-3.9552,-3.9552,-3.9254,-3.8867,-3.8443,-3.8179,-3.7987,-3.7938,-3.7569,-3.7415,-3.8186,-3.8466,-3.8844,-3.9765,-4.0517,-4.0996,-4.1003,-4.0999,-4.1013,-4.1065,-4.1085,-4.111,-4.111,-4.111,-4.1091,-4.1097,-4.1109,-4.1089,-4.1097,-3.9493,-3.8201,-3.7494,-3.6538,-3.5977,-3.5903,-3.5898,-3.5905,-3.5908,-3.5904,-3.5914,-3.5914,-3.597,-3.677,-3.8249,-3.8424,-3.9062,-2.4075,-2.5788,-2.9687,-3.3945,-3.4464,-3.5111,0.0,-3.8851,-3.7444,-3.8572,-4.0059,-4.1206,-4.1367,-4.1635,-4.1897,-4.208,-4.2264,-4.2392,-4.2401,-4.3829,-4.4469,-4.3383,-4.3519,-4.3934,-4.4512,-4.4751,-4.5145,-4.5818,-4.5271,-4.5195,-4.5879,-4.5263,-4.5249,-4.603,-4.6056,-4.6104,-4.6191,-4.6248,-4.6269,-4.6243,-4.5288,-4.4824,-4.4801,-4.383,-4.2982,-4.2201,-4.1448,-4.1546,-4.2181,-4.142,-4.1553,-4.2245,-4.2245,-4.226,-4.2154,-4.1281,-4.0398,-3.9633,-3.9538,-3.8422,-3.7311,-3.887,-3.8909,-3.8519,-3.9396,-3.9182,-3.8656,-3.8656,-3.752,-3.6663,-3.8098,-3.7903,-3.7313,-3.7293,-3.7819,-3.8338,-3.8449,-3.9033,-3.9804,-4.0692,-4.0937,-4.1003,-4.0999,-4.1006,-4.1006,-4.1013,-4.1059,-4.111,-4.111,-4.111,-4.1097,-4.1089,-4.1095,-4.11,-4.1106,-3.9502,-3.8468,-3.8365,-3.6879,-3.5968,-3.5907,-3.5966,-3.5968,-3.5908,-3.5953,-3.5981,-3.5981,-3.5994,-3.6462,-3.7366,-3.8146,-3.9379,-3.1033,-3.1758,-3.3151,-3.5795,-3.7317,-3.8608,-4.0315,-3.9876,-3.9638,-4.1557,-4.2539,-4.2908,-4.2436,-4.2791,-4.2994,-4.2474,-4.2834,-4.3158,-4.315,-4.4224,-4.4864,-4.4493,-4.4903,-4.5156,-4.502,-4.5453,-4.5906,-4.6261,-4.5941,-4.5868,-4.6241,-4.5915,-4.5878,-4.6249,-4.6268,-4.6265,-4.6261,-4.6297,-4.627,-4.623,-4.5352,-4.4962,-4.4941,-4.3574,-4.2747,-4.2373,-4.2009,-4.2067,-4.2337,-4.1459,-4.1608,-4.2397,-4.2392,-4.2403,-4.2354,-4.1992,-4.0978,-3.9808,-3.9792,-3.8987,-3.8071,-3.8811,-3.9143,-3.9318,-3.9688,-3.9902,-4.0019,-4.0019,-3.9123,-3.8344,-3.9065,-3.8617,-3.8071,-3.8597,-3.8597,-3.8792,-3.9799,-3.9844,-3.9954,-4.0824,-4.0991,-4.1167,-4.1673,-4.1376,-4.1383,-4.2373,-4.1714,-4.111,-4.111,-4.111,-4.1097,-4.1095,-4.1109,-4.0894,-4.0389,-3.9214,-3.8283,-3.778,-3.6654,-3.5988,-3.5955,-3.5958,-3.5948,-3.5953,-3.5942,-3.597,-3.5994,-3.6505,-3.7164,-3.7971,-3.8844,-3.992,-3.4419,-3.5226,-3.5762,-3.7596,-3.996,-4.1703,-4.1164,-4.1186,-4.1798,-4.3477,-4.4063,-4.4061,-4.3461,-4.35,-4.349,-4.3142,-4.3402,-4.3734,-4.4013,-4.4813,-4.5277,-4.5031,-4.5773,-4.5964,-4.5082,-4.5789,-4.63,-4.63,-4.63,-4.63,-4.63,-4.63,-4.63,-4.63,-4.63,-4.63,-4.63,-4.6292,-4.6284,-4.6211,-4.5596,-4.5316,-4.531,-4.3808,-4.2983,-4.2756,-4.2506,-4.2549,-4.2685,-4.1827,-4.1976,-4.2763,-4.2734,-4.2738,-4.2707,-4.2454,-4.144,-4.0154,-4.0162,-3.9591,-3.8909,-3.9143,-3.9318,-3.9493,-3.9727,-4.0078,-4.0429,-4.0662,-4.0117,-3.9493,-3.9747,-3.9337,-3.8967,-3.9357,-3.9337,-3.9493,-4.0526,-4.0396,-4.0273,-4.0915,-4.1032,-4.1227,-4.1848,-4.148,-4.1507,-4.2724,-4.1889,-4.1182,-4.1396,-4.1247,-4.1078,-4.107,-4.1089,-4.0744,-3.9867,-3.9024,-3.8151,-3.7253,-3.6433,-3.5997,-3.5997,-3.6182,-3.6207,-3.6009,-3.6185,-3.6189,-3.6004,-3.6625,-3.7246,-3.7843,-3.8922,-3.9783,-2.9988,-3.2488,-3.5357,-3.963,-4.2589,-4.4485,-4.4465,-4.5045,-4.5427,-4.4788,-4.5343,-4.5936,-4.5988,-4.4568,-4.3734,-4.4663,-4.4078,-4.3851,-4.4829,-4.5714,-4.5948,-4.5109,-4.5773,-4.5968,-4.509,-4.5792,-4.63,-4.63,-4.63,-4.63,-4.63,-4.63,-4.63,-4.63,-4.63,-4.63,-4.63,-4.63,-4.6296,-4.6303,-4.6279,-4.6261,-4.6229,-4.5321,-4.4454,-4.3607,-4.2763,-4.2885,-4.3591,-4.2713,-4.2861,-4.3651,-4.3596,-4.3559,-4.3468,-4.2611,-4.1773,-4.1052,-4.1052,-4.0487,-3.9902,-4.076,-3.9902,-3.8694,-3.9532,-3.924,-3.8753,-3.961,-3.9221,-3.8733,-3.9571,-3.9786,-3.9552,-3.8733,-3.9805,-4.0799,-4.0019,-4.0487,-4.1071,-4.1091,-4.111,-4.111,-4.1124,-4.113,-4.113,-4.1163,-4.113,-4.1377,-4.2155,-4.1578,-4.1089,-4.1013,-4.1052,-4.0758,-3.9867,-3.9067,-3.8205,-3.7259,-3.645,-3.6001,-3.5992,-3.6809,-3.6856,-3.602,-3.6836,-3.684,-3.5991,-3.603,-3.6049,-3.6127,-3.7765,-3.8556,-3.2308,-3.4751,-3.7481,-4.0765,-4.2686,-4.3885,-4.4465,-4.4813,-4.5084,-4.5355,-4.3884,-4.2557,-4.2586,-4.2131,-4.1654,-4.1424,-4.2568,-4.3817,-4.4741,-4.4694,-4.4672,-4.4972,-4.5773,-4.5968,-4.509,-4.5792,-4.63,-4.63,-4.63,-4.63,-4.63,-4.63,-4.63,-4.63,-4.63,-4.63,-4.63,-4.63,-4.6296,-4.6284,-4.5711,-4.544,-4.5429,-4.5126,-4.452,-4.3675,-4.3392,-4.3435,-4.363,-4.2752,-4.2895,-4.3635,-4.361,-4.3247,-4.2708,-4.2416,-4.1792,-4.111,-4.111,-4.0916,-4.0721,-4.0994,-4.0701,-4.0273,-4.0565,-4.0467,-4.0175,-3.9883,-3.9162,-3.8578,-3.887,-3.8948,-3.9006,-3.9298,-4.0253,-4.1013,-4.074,-4.0896,-4.111,-4.111,-4.111,-4.126,-4.1792,-4.1909,-4.2096,-4.2665,-4.1811,-4.1201,-4.1468,-4.1266,-4.1097,-4.1071,-4.1095,-4.0745,-3.9872,-3.9559,-3.9004,-3.8122,-3.7264,-3.6816,-3.6863,-3.6586,-3.6294,-3.602,-3.6286,-3.6586,-3.6863,-3.7409,-3.7956,-3.8561,-3.9696,-3.9921,-3.4244,-3.63,-3.8415,-4.1191,-4.256,-4.3352,-4.3987,-4.4388,-4.4659,-4.4852,-4.2686,-4.0679,-4.0358,-4.0051,-3.9597,-3.8801,-4.0585,-4.2486,-4.3658,-4.3455,-4.3607,-4.4792,-4.5707,-4.5909,-4.509,-4.5792,-4.63,-4.63,-4.63,-4.63,-4.63,-4.63,-4.63,-4.63,-4.63,-4.63,-4.63,-4.63,-4.6296,-4.6292,-4.5726,-4.5291,-4.5016,-4.5308,-4.4801,-4.3709,-4.4007,-4.3797,-4.322,-4.2963,-4.3163,-4.3635,-4.361,-4.3442,-4.3156,-4.2533,-4.1968,-4.15,-4.1208,-4.0896,-4.0682,-4.0994,-4.0682,-4.0234,-4.0545,-4.0429,-4.0058,-3.9493,-3.9162,-3.8967,-3.8967,-3.9201,-3.9571,-4.0136,-4.0701,-4.111,-4.111,-4.1338,-4.1526,-4.1526,-4.1772,-4.2155,-4.2685,-4.2763,-4.2852,-4.3105,-4.2225,-4.1519,-4.1532,-4.1273,-4.1091,-4.1103,-4.1111,-4.0749,-3.9872,-3.9544,-3.8994,-3.8127,-3.7246,-3.6791,-3.683,-3.6596,-3.6329,-3.6002,-3.6309,-3.6596,-3.6836,-3.7666,-3.8365,-3.8931,-3.9778,-4.0047,-3.5456,-3.6976,-3.827,-4.1001,-4.2277,-4.2941,-4.3225,-4.3891,-4.42,-4.3343,-4.1706,-4.0166,-3.9245,-3.8446,-3.7726,-3.7093,-3.8559,-4.0354,-4.2044,-4.2311,-4.2953,-4.4642,-4.5582,-4.5828,-4.5125,-4.5808,-4.63,-4.63,-4.63,-4.63,-4.63,-4.63,-4.63,-4.63,-4.63,-4.63,-4.63,-4.63,-4.63,-4.63,-4.6243,-4.582,-4.5091,-4.5811,-4.5234,-4.3733,-4.4507,-4.3914,-4.2455,-4.3285,-4.3631,-4.3626,-4.3557,-4.4007,-4.4501,-4.2844,-4.2241,-4.2124,-4.1364,-4.0565,-4.0,-4.0779,-3.9902,-3.8714,-3.9493,-3.9162,-3.85,-3.85,-3.9104,-3.9747,-3.9786,-4.0409,-4.1033,-4.1091,-4.111,-4.111,-4.111,-4.1733,-4.2303,-4.2303,-4.3008,-4.3614,-4.3653,-4.3653,-4.3389,-4.2607,-4.2412,-4.2346,-4.2244,-4.1563,-4.1103,-4.1111,-4.1101,-4.0773,-3.9945,-3.9165,-3.8388,-3.755,-3.6674,-3.6191,-3.6191,-3.6934,-3.6967,-3.6138,-3.6944,-3.6983,-3.6205,-3.7016,-3.7458,-3.7516,-3.8287,-3.9045,-3.6861,-3.8191,-3.9658,-4.1112,-4.1186,-4.1297,-4.2752,-4.2761,-4.2217,-4.1512,-3.8981,-3.6439,-3.4913,-3.5984,-3.7051,-3.6884,-4.0442,-4.362,-4.4705,-4.4361,-4.4385,-4.5493,-4.5832,-4.5924,-4.5826,-4.6027,-4.6187,-4.63,-4.63,-4.63,-4.63,-4.63,-4.63,-4.63,-4.63,-4.63,-4.63,-4.63,-4.63,-4.628,-4.5643,-4.5526,-4.5875,-4.5434,-4.4665,-4.3704,-4.3919,-4.3397,-4.2427,-4.2637,-4.2705,-4.2662,-4.2637,-4.2396,-4.2026,-4.1578,-4.1403,-4.1383,-4.1169,-4.0955,-4.0701,-4.0273,-3.9825,-3.9396,-3.8967,-3.8675,-3.85,-3.85,-3.8656,-3.8987,-3.963,-3.9961,-4.0292,-4.0955,-4.111,-4.111,-4.111,-4.1733,-4.2303,-4.2303,-4.3008,-4.3789,-4.4394,-4.4491,-4.4618,-4.4997,-4.4033,-4.2813,-4.1571,-4.124,-4.1091,-4.1103,-4.1092,-4.1012,-4.0795,-4.0581,-4.0369,-4.0157,-3.9313,-3.8837,-3.8837,-3.8378,-3.804,-3.7867,-3.8086,-3.8395,-3.8824,-3.9047,-3.9507,-4.0132,-4.0346,-4.0207,-3.8146,-3.9059,-3.9917,-4.0572,-4.0404,-4.0177,-4.0655,-4.0665,-4.0158,-3.8762,-3.633,-3.4048,-3.2679,-3.4538,-3.601,-3.5265,-3.9457,-4.3131,-4.3965,-4.3705,-4.402,-4.5665,-4.5859,-4.5886,-4.5996,-4.6355,-4.6605,-4.669,-4.645,-4.63,-4.63,-4.63,-4.63,-4.63,-4.63,-4.63,-4.63,-4.63,-4.63,-4.628,-4.5801,-4.579,-4.6179,-4.5323,-4.4679,-4.4206,-4.3841,-4.3202,-4.2403,-4.2403,-4.2373,-4.2344,-4.2344,-4.2286,-4.2143,-4.1773,-4.1637,-4.1578,-4.1227,-4.111,-4.1013,-4.0526,-4.0117,-3.9708,-3.9221,-3.9065,-3.8987,-3.8617,-3.8772,-3.9182,-3.9669,-4.0052,-4.0455,-4.0942,-4.1052,-4.1162,-4.1532,-4.2257,-4.3039,-4.378,-4.4316,-4.4812,-4.525,-4.5318,-4.5376,-4.549,-4.4756,-4.3702,-4.2407,-4.1562,-4.1108,-4.1099,-4.1107,-4.1104,-4.1103,-4.0759,-4.0527,-4.0527,-3.971,-3.9228,-3.9218,-3.8714,-3.8466,-3.8497,-3.8495,-3.8745,-3.9238,-3.9606,-4.0047,-4.0522,-4.0522,-4.0464,-3.9226,-3.9602,-3.965,-3.9823,-3.9848,-3.9482,-3.8008,-3.8303,-3.8159,-3.5605,-3.3947,-3.2671,-3.17,-3.3662,-3.5044,-3.387,-3.7725,-4.1216,-4.2256,-4.2406,-4.326,-4.552,-4.5868,-4.5963,-4.6042,-4.6837,-4.7342,-4.7373,-4.6878,-4.6557,-4.6448,-4.6355,-4.63,-4.6296,-4.6292,-4.6288,-4.6269,-4.6273,-4.6277,-4.6284,-4.6289,-4.6241,-4.6176,-4.5364,-4.4961,-4.4857,-4.4055,-4.328,-4.2559,-4.2442,-4.2393,-4.2376,-4.2259,-4.2643,-4.3176,-4.2416,-4.2143,-4.2046,-4.1344,-4.111,-4.1091,-4.0974,-4.0429,-3.9786,-3.9669,-3.963,-3.9493,-3.885,-3.9221,-3.9825,-3.9935,-4.0474,-4.1006,-4.1006,-4.1011,-4.1249,-4.2105,-4.3022,-4.4122,-4.5696,-4.5997,-4.5997,-4.5997,-4.6017,-4.5803,-4.5157,-4.4961,-4.466,-4.3954,-4.2459,-4.1404,-4.1283,-4.1257,-4.1213,-4.1103,-4.0398,-3.9953,-3.9978,-3.9244,-3.8829,-3.8825,-3.8831,-3.8824,-3.8832,-3.8823,-3.8822,-3.8836,-3.9608,-3.9978,-3.9962,-3.9978,-4.0385,-3.9526,-3.9602,-3.9602,-3.965,-3.965,-3.9081,-3.6976,-3.711,-3.6671,-3.3042,-3.2583,-3.2385,-3.0906,-3.276,-3.5116,-3.6922,-3.9733,-4.2473,-4.4735,-4.5032,-4.5208,-4.5648,-4.629,-4.6744,-4.68,-4.7608,-4.8153,-4.8266,-4.8174,-4.7844,-4.7242,-4.6631,-4.6269,-4.622,-4.6215,-4.6193,-4.6127,-4.6125,-4.6158,-4.6221,-4.6152,-4.6156,-4.6176,-4.5319,-4.4916,-4.4857,-4.4055,0.0,-4.3337,-4.268,-4.2376,-4.2241,-4.1578,-4.1403,-4.152,-4.1364,-4.1305,-4.1286,-4.1149,-4.111,-4.0974,-4.0253,-3.9922,-3.9669,-3.8948,-3.8733,-3.8831,-3.9415,-3.9688,-3.9955,-4.0623,-4.0896,-4.1006,-4.1003,-4.0996,-4.1249,-4.2105,-4.3508,-4.4861,-4.5813,-4.5997,-4.5997,-4.5997,-4.6054,-4.6045,-4.591,-4.5323,-4.4845,-4.4714,-4.3846,-4.296,-4.2251,-4.2124,-4.1824,-4.1168,-4.0914,-4.0817,-4.0879,-4.0623,-4.0505,-4.0559,-4.0516,-4.0499,-4.0571,-4.0565,-4.0563,-4.0564,-4.0775,-4.0879,-4.0878,-4.0865,-4.0952,-4.0103,-3.9915,-3.9714,-4.0103,-3.9896,-3.8879,-3.6097,-3.5759,-3.504,-3.1508,-3.1134,-3.1213,-3.0426,-3.2492,-3.4699,-3.5926,-3.9405,-4.2372,-4.3573,-4.4905,-4.5877,-4.6271,-4.6677,-4.6926,-4.695,-4.7742,-4.8276,-4.8333,-4.8405,-4.8301,-4.8001,-4.7274,-4.684,-4.6761,-4.6396,-4.6173,-4.6095,-4.5617,-4.5658,-4.6183,-4.5668,-4.57,-4.6161,-4.5299,-4.4898,-4.482,-4.357,-4.301,-4.2908,-4.2075,-4.1694,-4.1637,-4.1247,-4.111,-4.111,-4.111,-4.111,-4.111,-4.111,-4.111,-4.1033,-4.0604,-4.0487,-4.0409,-3.998,-3.9844,-3.9941,-4.037,-4.0487,-4.0559,-4.0915,-4.0999,-4.1101,-4.1524,-4.2332,-4.3101,-4.351,-4.4569,-4.5541,-4.5977,-4.6044,-4.6052,-4.6098,-4.6131,-4.6158,-4.6144,-4.5809,-4.5585,-4.5623,-4.4872,-4.3824,-4.2533,-4.1967,-4.152,-4.113,-4.1071,-4.1065,-4.11,-4.0976,-4.0907,-4.0949,-4.0849,-4.0815,-4.0848,-4.0888,-4.091,-4.0961,-4.1022,-4.1062,-4.1094,-4.1091,-4.1103,-4.0309,-4.0065,-3.9771,-4.0384,-4.0065,-3.8705,-3.5277,-3.4619,-3.3809,-3.0405,-2.9937,-3.0169,-3.0182,-3.2,-3.3646,-3.4217,-3.7688,-4.0725,-4.1774,-4.368,-4.5383,-4.6535,-4.6964,-4.7118,-4.6926,-4.8006,-4.8661,-4.8505,-4.8739,-4.8783,-4.8518,-4.7787,-4.7349,-4.7279,-4.6538,-4.6119,-4.6042,-4.5305,-4.5344,-4.6141,-4.5402,-4.546,-4.6158,-4.5094,-4.4726,-4.4813,-4.3123,-4.249,-4.2588,-4.1718,-4.1354,-4.1343,-4.1167,-4.1103,-4.111,-4.111,-4.111,-4.111,-4.111,-4.111,-4.111,-4.111,-4.111,-4.111,-4.111,-4.111,-4.111,-4.111,-4.111,-4.1085,-4.1013,-4.0999,-4.121,-4.2013,-4.353,-4.4802,-4.4792,-4.5433,-4.6008,-4.6084,-4.6098,-4.6125,-4.6195,-4.6209,-4.6202,-4.6191,-4.621,-4.6245,-4.6292,-4.5475,-4.4406,-4.3082,-4.1988,-4.1286,-4.111,-4.1085,-4.1085,-4.1085,-4.0971,-4.0898,-4.0898,-4.0773,-4.0694,-4.0694,-4.0742,-4.0789,-4.0857,-4.0926,-4.0983,-4.1045,-4.1048,-4.1152,-3.9464,-3.9677,-3.9639,-3.9695,-3.9658,-3.8531,-3.4473,-3.4097,-3.35,-2.9538,-2.9418,-3.0071,-3.0169,-3.0503,-3.1549,-3.3901,-3.4692,-3.6646,-4.1339,-4.2149,-4.3163,-4.5611,-4.7188,-4.779,-4.7053,-4.9103,-5.0182,-4.9449,-5.0086,-4.992,-4.8565,-4.7738,-4.7287,-4.7204,-4.6435,-4.5963,-4.5827,-4.5756,-4.5802,-4.6014,-4.5927,-4.5991,-4.6139,-4.4488,-4.414,-4.4804,-4.3125,-4.2812,0.0,-4.2557,-4.2199,-4.2116,-4.1397,-4.11,-4.111,-4.111,-4.111,-4.111,-4.111,-4.111,-4.111,-4.111,-4.111,-4.111,-4.111,-4.111,-4.111,-4.111,-4.111,-4.1085,-4.1013,-4.1006,-4.1206,-4.2002,-4.3529,-4.4803,-4.4802,-4.5433,-4.6008,-4.6084,-4.6098,-4.6125,-4.6195,-4.6204,-4.6191,-4.619,-4.6258,-4.628,-4.6308,-4.5475,-4.4846,-4.469,-4.3181,-4.189,-4.1169,-4.1039,-4.1013,-4.1013,-4.0945,-4.0907,-4.0907,-4.0761,-4.0694,-4.0694,-4.0706,-4.0706,-4.0718,-4.0791,-4.0809,-4.0835,-4.0825,-4.131,-4.0553,-4.1041,-4.1041,-4.1041,-3.9558,-3.7399,-3.4733,-3.3212,-3.1786,-2.9681,-2.9614,-2.9969,-3.0071,-3.0202,-3.081,-3.2473,-3.4063,-3.597,-3.8505,-4.1119,-4.3496,-4.5568,-4.6831,-4.7783,-4.8439,-4.8964,-4.9102,-4.8736,-4.9951,-5.0005,-4.84,-4.8087,-4.7448,-4.6332,-4.557,-4.5105,-4.5017,-4.4007,-4.4105,-4.5207,-4.418,-4.4318,-4.5392,-4.4694,-4.4575,-4.4826,-4.3632,-4.3017,0.0,-4.1913,-4.1543,-4.1444,-4.0621,-4.0648,-4.1046,-4.0515,-4.0652,-4.111,-4.111,-4.111,-4.111,-4.111,-4.111,-4.111,-4.111,-4.111,-4.111,-4.111,-4.111,-4.1085,-4.1013,-4.1388,-4.1996,-4.2799,-4.3918,-4.4919,-4.5424,-4.5763,-4.6008,-4.6084,-4.6131,-4.6171,-4.6204,-4.6229,-4.6254,-4.627,-4.628,-4.6308,-4.6303,-4.5475,-4.4904,-4.4904,-4.3331,-4.2182,-4.1851,-4.1357,-4.1059,-4.1059,-4.0906,-4.0859,-4.0897,-4.0725,-4.0654,-4.0707,-4.0662,-4.0629,-4.0629,-4.0711,-4.077,-4.081,-4.1293,-4.1758,-4.0334,-4.1098,-4.136,-4.1605,-3.9352,-3.6648,-3.4977,-3.3083,-3.1354,-3.0339,-3.0237,-3.0352,-3.0437,-3.0327,-3.049,0.0,-3.3087,-3.4897,-3.626,-3.9303,-4.2131,-4.4095,-4.5066,-4.6248,-4.7893,-4.8205,-4.848,-4.8927,-4.9584,-4.9449,-4.8289,-4.7828,-4.7028,-4.5754,-4.4717,-4.415,-4.4105,-4.2963,-4.3032,-4.4296,-4.3412,-4.3658,-4.489,-4.4637,-4.452,-4.4445,-4.3339,-4.2514,0.0,-4.1331,-4.1062,-4.097,-4.0408,-4.0566,-4.1023,-4.0416,-4.0577,-4.11,-4.11,-4.11,-4.11,-4.11,-4.11,-4.11,-4.11,-4.11,-4.111,-4.111,-4.111,-4.1085,-4.1039,-4.1668,-4.251,-4.3342,-4.4189,-4.5025,-4.5842,-4.6036,-4.6044,-4.6123,-4.6163,-4.6204,-4.6229,-4.627,-4.6284,-4.626,-4.6284,-4.6284,-4.626,-4.5689,-4.527,-4.5284,-4.3955,-4.2864,-4.2338,-4.1773,-4.1344,-4.113,-4.1166,-4.1228,-4.1247,-4.1332,-4.1268,-4.1031,-4.1229,-4.1215,-4.0964,-4.1258,-4.1435,-4.1482,-4.2063,-4.2498,-3.7976,-3.9024,-3.9827,-4.0609,-3.8939,-3.6648,-3.4977,-3.4024,-3.3033,-3.1408,-3.1238,-3.1401,-3.147,-3.0893,-3.0398,-3.0398,-3.1164,-3.2656,-3.5256,-3.6381,-3.7931,-4.0539,-4.1564,-4.2748,-4.4471,-4.6866,-4.8979,-5.0638,-4.9195,-4.8251,-4.8311,-4.6658,-4.5719,-4.57,-4.4094,-4.3207,-4.3211,-4.3266,-4.3335,-4.3421,-4.4335,-4.4814,-4.4871,-4.4014,-4.3604,-4.3526,-4.1851,-4.113,0.0,-4.1091,-4.1111,-4.1111,-4.1091,-4.1086,-4.1094,-4.1094,-4.1094,-4.1094,-4.1094,-4.1094,-4.1094,-4.1094,-4.1094,-4.1094,-4.1094,-4.1091,-4.111,-4.111,-4.111,-4.111,-4.111,-4.1695,-4.2526,-4.3381,-4.4222,-4.504,-4.5917,-4.6092,-4.6117,-4.619,-4.6191,-4.6229,-4.6287,-4.6292,-4.6279,-4.6211,-4.626,-4.6279,-4.6211,-4.6187,-4.6181,-4.6189,-4.5391,-4.4169,-4.2455,-4.2299,-4.1948,-4.1149,-4.1782,-4.216,-4.2086,-4.2783,-4.2744,-4.1816,-4.2624,-4.2643,-4.1797,-4.2643,-4.3085,-4.3066,-4.3066,-4.3593,-3.6942,-3.8164,-3.8752,-3.8428,-3.6017,-3.3612,-3.3066,-3.1073,-2.9502,-3.0158,-3.0367,-3.049,-3.059,-3.0465,-3.0535,-3.1184,-3.2027,-3.3084,-3.4508,-3.7474,-4.0031,-4.1448,-4.4906,-4.7171,-4.7129,-4.8337,-4.8883,-4.8246,-4.7689,-4.6896,-4.577,-4.4581,-4.3948,-4.3983,-4.2907,-4.2613,-4.3258,-4.2737,-4.3119,-4.4355,-4.4106,-4.4292,-4.4871,-4.3994,-4.3936,-4.4384,-4.2669,-4.1922,-4.1831,-4.0676,-4.0532,-4.0914,-3.9775,-4.0059,-4.1023,-4.0439,-4.0582,-4.1094,-4.1094,-4.1094,-4.1094,-4.1094,-4.1094,-4.1094,-4.1094,-4.1091,-4.1099,-4.1097,-4.1109,-4.1109,-4.1109,-4.1285,-4.1835,-4.3267,-4.3794,-4.4376,-4.5859,-4.6167,-4.6171,-4.6195,-4.6208,-4.6211,-4.6229,-4.6225,-4.6211,-4.6206,-4.622,-4.6215,-4.6196,-4.6196,-4.619,-4.613,-4.5874,-4.5262,-4.4168,-4.3525,-4.3077,-4.2824,-4.2974,-4.3063,-4.2994,-4.3118,-4.3062,-4.2768,-4.298,-4.297,-4.2701,-4.297,-4.341,-4.3981,-4.3981,-4.4469,-3.5972,-3.7344,-3.7894,-3.7318,-3.4934,-3.2638,-3.2317,-3.0781,-2.9604,-3.0361,-3.1081,-3.1426,-3.0868,-3.0823,-3.0936,-3.1133,-3.195,-3.3056,-3.4535,-3.7358,-3.9837,-4.1371,-4.5191,-4.7496,-4.6955,-4.7928,-4.8298,-4.7581,-4.6619,-4.5731,-4.5032,-4.3501,-4.269,-4.2753,-4.2203,-4.2193,-4.2853,-4.238,-4.2879,-4.4295,-4.3486,-4.3565,-4.4384,-4.3507,-4.341,-4.3838,-4.2455,-4.1844,0.0,-4.0714,-4.0598,-4.0922,-3.9896,-4.014,-4.1027,-4.0481,-4.0633,-4.1099,-4.1099,-4.1099,-4.1099,-4.1099,-4.1099,-4.1099,-4.1099,-4.111,-4.1094,-4.1107,-4.1103,-4.1103,-4.1103,-4.1103,-4.1515,-4.3198,-4.3607,-4.4075,-4.5852,-4.6221,-4.6202,-4.6228,-4.625,-4.6246,-4.6245,-4.6218,-4.6206,-4.6195,-4.6203,-4.619,-4.6169,-4.6169,-4.6142,-4.6099,-4.6102,-4.5907,-4.5401,-4.4553,-4.3911,-4.3619,-4.3849,-4.3948,-4.3898,-4.4105,-4.4032,-4.3646,-4.392,-4.3874,-4.3547,-4.391,-4.4366,-4.4897,-4.4897,-4.5182,0.0,-3.6451,-3.7036,-3.6829,-3.5148,-3.3279,-3.2353,-3.2336,0.0,-3.156,-3.2749,-3.3449,-3.1891,-3.1661,-3.1403,-3.0475,-3.1207,-3.2717,-3.5097,-3.6484,-3.8194,-4.0694,-4.3227,-4.4717,-4.4523,-4.6081,-4.7395,-4.8082,-4.5815,-4.4733,-4.549,-4.3173,-4.1859,-4.1925,-4.1919,-4.1976,-4.2117,-4.2238,-4.2702,-4.3508,-4.2739,-4.2825,-4.3559,-4.2708,-4.2299,-4.226,-4.1461,-4.111,-4.111,-4.1033,-4.1033,-4.1091,-4.1033,-4.1052,-4.111,-4.111,-4.111,-4.111,-4.111,-4.111,-4.111,-4.111,-4.111,-4.111,-4.111,-4.1101,-4.1093,-4.1094,-4.1133,-4.1191,-4.1191,-4.123,-4.1699,-4.33,-4.3709,-4.4178,-4.5917,-4.6249,-4.6229,-4.6287,-4.63,-4.6296,-4.6308,-4.6236,-4.6195,-4.6203,-4.6196,-4.6169,-4.6107,-4.6107,-4.6099,-4.6093,-4.6093,-4.6084,-4.6095,-4.5356,-4.4576,-4.3828,-4.447,-4.4851,-4.4777,-4.5505,-4.5452,-4.4504,-4.5214,-4.5218,-4.4393,-4.5271,-4.5706,-4.5715,-4.5715,-4.5715,-3.4194,0.0,-3.4609,-3.384,-3.328,-3.252,0.0,-3.0739,-3.081,-3.056,-3.0945,-3.116,-3.0779,-3.0725,-3.067,-3.0479,-3.1774,-3.3225,-3.4483,-3.8206,-4.1293,-4.264,-4.4995,-4.5775,-4.3879,-4.5756,-4.6636,-4.5568,-4.4264,-4.3316,-4.2918,-4.168,-4.1052,-4.115,-4.1791,-4.214,-4.218,-4.2859,-4.333,-4.3564,-4.3383,-4.3403,-4.3559,-4.2708,-4.2299,-4.226,-4.1461,-4.111,-4.1052,-4.039,-4.0506,-4.1033,-4.037,-4.0506,-4.111,-4.111,-4.111,-4.111,-4.111,-4.111,-4.111,-4.111,-4.111,-4.111,-4.111,-4.1089,-4.11,-4.1094,-4.157,-4.2082,-4.2082,-4.2591,-4.3353,-4.4416,-4.4669,-4.4962,-4.6056,-4.629,-4.627,-4.6303,-4.6296,-4.6308,-4.6303,-4.624,-4.6209,-4.6196,-4.6154,-4.6122,-4.6104,-4.6095,-4.6085,-4.6027,-4.6017,-4.6017,-4.6007,-4.5881,-4.5716,-4.5522,-4.5638,-4.5664,-4.5551,-4.5731,-4.566,-4.5312,-4.5541,-4.5596,-4.5368,-4.5591,-4.5735,-4.5765,-4.5765,-4.5795,-3.3983,-3.4021,-3.3735,-3.2832,-3.266,-3.2401,-3.1082,-3.1175,-3.1422,-3.102,-3.1299,-3.1383,-3.0593,-3.1425,-3.1987,-3.1214,-3.2866,-3.456,-3.5424,-3.8642,-4.1377,-4.2652,-4.3995,-4.457,-4.3956,-4.5123,-4.5365,-4.4076,-4.312,-4.2433,-4.202,-4.1183,-4.0746,-4.0904,-4.1751,-4.2207,-4.2252,-4.2708,-4.316,-4.3591,-4.2825,-4.265,-4.3026,-4.2143,-4.1753,-4.1695,-4.0877,-4.074,-4.1033,-4.0156,-4.0078,-4.0506,-4.0429,-4.0448,-4.0545,-4.0955,-4.111,-4.111,-4.111,-4.111,-4.111,-4.111,-4.111,-4.111,-4.111,-4.111,-4.1097,-4.1091,-4.1437,-4.1889,-4.2303,-4.276,-4.3423,-4.4708,-4.5,-4.5234,-4.6117,-4.6585,-4.6722,-4.6327,-4.6572,-4.6718,-4.6318,-4.6216,-4.6189,-4.6158,-4.6113,-4.6095,-4.6066,-4.6047,-4.6037,-4.6007,-4.5997,-4.5997,-4.5997,-4.6037,-4.6047,-4.6047,-4.6026,-4.5964,-4.588,-4.5874,-4.5583,-4.5062,-4.4677,-4.4729,-4.5147,-4.516,-4.5364,-4.5791,-4.5791,-4.5805,-3.3708,-3.3915,-3.3719,-3.2879,-3.2752,-3.2628,-3.1821,-3.2247,-3.2613,-3.1937,-3.2287,-3.2325,-3.1118,-3.2471,-3.3401,-3.2199,-3.4141,-3.63,-3.768,-3.9305,-4.0752,-4.1803,-4.2361,-4.2969,-4.3705,-4.4219,-4.4109,-4.3129,-4.2375,-4.1932,-4.1842,-4.1141,-4.0798,-4.0941,-4.1641,-4.2113,-4.2318,-4.2305,-4.2604,-4.32,-4.1785,-4.1493,-4.2187,-4.1434,-4.1091,-4.1052,-4.0312,0.0,-4.1033,-4.0292,-4.0,-4.0078,-4.0818,-4.0643,-4.0097,-4.0838,-4.111,-4.111,-4.111,-4.111,-4.111,-4.111,-4.111,-4.111,-4.111,-4.111,-4.111,-4.111,-4.1286,-4.1668,-4.2401,-4.2797,-4.3373,-4.484,-4.5195,-4.5391,-4.6147,-4.683,-4.7138,-4.6523,-4.6981,-4.7262,-4.6534,-4.6383,-4.6322,-4.6124,-4.6095,-4.6066,-4.6007,-4.5997,-4.5997,-4.5997,-4.5997,-4.5938,-4.5822,-4.5919,-4.5938,-4.5822,-4.5919,-4.6005,-4.5991,-4.5932,-4.549,-4.4643,-4.3898,-4.3929,-4.4737,-4.4588,-4.4964,-4.5808,-4.5664,-4.5664,-3.2081,-3.3019,-3.381,-3.3109,-3.3014,-3.2838,-3.1978,-3.1881,-3.195,-3.1834,-3.1321,-3.1272,-3.2491,-3.1783,-3.1433,-3.2692,-3.504,-3.8008,-4.1796,-4.3183,-4.315,-4.13,-4.355,-4.3962,-4.0749,-4.2994,-4.4029,-4.2471,-4.2218,-4.1869,-4.1185,-4.1021,-4.0988,-4.1078,-4.1142,-4.1565,-4.2376,-4.2318,-4.2039,-4.1481,-4.1217,-4.1173,-4.129,-4.1153,-4.1103,-4.1091,0.0,-4.0974,-4.1091,-4.0955,-4.0896,-4.0916,-4.1052,-4.1013,-4.0916,-4.1052,-4.111,-4.111,-4.111,-4.111,-4.111,-4.111,-4.111,-4.111,-4.111,-4.111,-4.111,-4.111,-4.2167,-4.3339,-4.3475,-4.4601,-4.5769,-4.6042,-4.6105,-4.614,-4.6269,-4.6401,-4.665,-4.7181,-4.7411,-4.7462,-4.7326,-4.7239,-4.696,-4.6222,-4.6037,-4.6007,-4.5997,-4.5997,-4.5997,-4.5997,-4.5997,-4.5725,-4.5045,-4.5608,-4.5705,-4.5025,-4.5608,-4.5975,-4.5917,-4.5919,-4.5835,-4.5673,-4.5589,-4.5626,-4.5762,-4.4976,-4.5022,-4.5873,-4.5065,-4.5095,-3.1816,-3.2295,-3.2952,-3.3603,-3.4021,-3.4101,-3.3372,-3.3179,-3.3042,-3.2598,-3.1806,-3.1583,-3.2868,-3.3197,-3.429,-3.7414,-3.8531,-3.9542,-4.1071,-4.1675,-4.1532,-4.0388,-4.2011,-4.2629,-4.1136,-4.242,-4.263,-4.0867,-4.1174,-4.1116,-4.0337,-4.0704,-4.0984,-4.111,-4.1065,-4.1266,-4.1699,-4.2122,-4.2173,-4.1807,-4.1325,-4.1106,-4.1106,-4.11,-4.1109,-4.1071,0.0,-4.0662,-4.1052,-4.0584,-4.0409,-4.0448,-4.0916,-4.0818,-4.0448,-4.0935,-4.111,-4.111,-4.111,-4.111,-4.111,-4.111,-4.111,-4.111,-4.111,-4.111,-4.111,-4.111,-4.1688,-4.2504,-4.3456,-4.4289,-4.5137,-4.6085,-4.6296,-4.6288,-4.626,-4.6991,-4.7488,-4.6904,-4.7521,-4.7848,-4.6906,-4.6716,-4.6562,-4.6114,-4.6026,-4.5997,-4.5997,-4.5997,-4.5997,-4.5997,-4.5997,-4.5841,-4.5472,-4.5783,-4.5841,-4.5472,-4.5802,-4.5772,-4.527,-4.5239,-4.5033,-4.4563,-4.4083,-4.4083,-4.4543,-4.4149,-4.4356,-4.515,-4.5221,-4.544,-3.1305,-3.1525,-3.2087,-3.347,-3.4005,-3.434,-3.4883,-3.4496,-3.4008,-3.4,-3.3314,-3.2908,-3.3585,-3.4807,-3.6901,-4.0544,-4.0966,-4.0818,-4.079,-4.0844,-4.0742,-4.0359,-4.1069,-4.1654,-4.1843,-4.208,-4.1579,-3.9999,-4.0479,-4.0616,-4.0053,-4.0617,-4.1,-4.1089,-4.1097,-4.1195,-4.1407,-4.1855,-4.2203,-4.2385,-4.1725,-4.1408,-4.1408,-4.1198,-4.1109,-4.1052,-4.039,-4.0487,-4.1052,-4.039,-4.0097,-4.0175,-4.0838,-4.0701,-4.0195,-4.0857,-4.111,-4.111,-4.111,-4.111,-4.111,-4.111,-4.111,-4.111,-4.111,-4.111,-4.111,-4.111,-4.111,-4.1545,-4.349,-4.4119,-4.4714,-4.6464,-4.6737,-4.6626,-4.6772,-4.7866,-4.8457,-4.7306,-4.8121,-4.8505,-4.6949,-4.6688,-4.6533,-4.6065,-4.5997,-4.5997,-4.5997,-4.5997,-4.5997,-4.5997,-4.5997,-4.5997,-4.5997,-4.5832,-4.5813,-4.6007,-4.5832,-4.5511,-4.5043,-4.4635,-4.4208,-4.374,-4.2845,-4.2803,-4.3652,-4.3513,-4.3904,-4.4838,-4.5364,-4.5674,-2.9501,-3.053,-3.169,-3.1995,-3.1495,-3.1961,-3.591,-3.4921,-3.3866,-3.6239,-3.6035,-3.5444,-3.5503,-3.5616,-3.634,-3.8254,-3.9877,-4.1702,-4.4001,-4.4387,-4.3853,-4.2296,-4.2838,-4.274,-4.1308,-4.1852,-4.1925,-4.1054,-4.1035,-4.1055,-4.0996,-4.1041,-4.1085,-4.1104,-4.11,-4.1487,-4.2304,-4.1563,-4.1598,-4.2405,-4.2334,-4.2305,-4.2286,-4.1471,-4.1109,-4.111,-4.1033,-4.1033,-4.111,-4.1033,-4.1013,-4.1013,-4.1091,-4.1052,-4.1013,-4.1091,-4.111,-4.111,-4.111,-4.111,-4.111,-4.111,-4.111,-4.111,-4.111,-4.111,-4.111,-4.111,-4.111,-4.1682,-4.4175,-4.5421,-4.646,-4.8215,-4.8,-4.7624,-4.8451,-4.8717,-4.8977,-4.9609,-4.9828,-4.9586,-4.8594,-4.8427,-4.7861,-4.623,-4.5997,-4.5997,-4.5997,-4.5997,-4.5997,-4.5997,-4.5997,-4.5997,-4.5997,-4.5318,-4.524,-4.6037,-4.5337,-4.521,-4.5979,-4.4462,-4.3946,-4.4684,-4.3906,-4.3869,-4.4686,-4.3889,-4.4295,-4.5776,-4.5047,-4.5086,-3.023,-3.1382,-3.2615,-3.2737,-3.2493,-3.2908,-3.5573,-3.5843,-3.5493,-3.5407,-3.5979,-3.6348,-3.5843,-3.7946,-3.9602,-3.9178,-4.1026,-4.2682,-4.313,-4.37,-4.3436,-4.175,-4.2301,-4.2145,-4.0469,-4.1062,-4.0986,-3.9596,-4.0498,-4.0851,-4.0327,-4.0801,-4.1105,-4.1111,-4.1094,-4.1267,-4.1584,-4.2298,-4.2563,-4.2398,-4.1857,-4.1598,-4.1574,-4.1256,-4.1109,-4.111,-4.111,-4.111,-4.111,-4.111,-4.111,-4.111,-4.111,-4.111,-4.111,-4.111,-4.111,-4.111,-4.111,-4.111,-4.111,-4.111,-4.111,-4.111,-4.111,-4.111,-4.111,-4.111,-4.1461,-4.2318,-4.437,-4.5136,-4.5961,-4.8248,-4.8554,-4.8392,-4.8737,-4.8775,-4.883,-4.9125,-4.9148,-4.9022,-4.8662,-4.8155,-4.757,-4.6909,-4.6346,-4.5997,-4.5997,-4.5997,-4.5997,-4.5997,-4.5997,-4.6026,-4.6066,-4.5784,-4.5755,-4.6084,-4.5832,-4.5306,-4.4521,-4.4411,-4.3992,-4.3197,-4.2886,-4.3149,-4.3996,-4.3704,-4.4093,-4.5105,-4.5347,-4.5595,-3.0872,-3.1793,-3.2965,-3.3563,-3.3672,-3.414,-3.6114,-3.6561,-3.657,-3.6434,-3.6755,-3.6945,-3.6662,-3.8817,-4.0405,-3.9761,-4.1601,-4.2948,-4.2401,-4.2613,-4.2275,-4.0859,-4.0996,-4.0727,-3.9536,-3.9942,-3.9786,-3.8596,-3.9618,-4.0132,-3.9816,-4.0369,-4.0819,-4.1084,-4.1104,-4.1091,-4.111,-4.2234,-4.2532,-4.1986,-4.1387,-4.1237,-4.1504,-4.1226,-4.1103,-4.111,-4.111,-4.111,-4.111,-4.111,-4.1247,-4.1461,-4.1208,-4.1422,-4.1831,-4.1305,-4.1266,-4.1442,-4.1188,-4.111,-4.111,-4.111,-4.111,-4.111,-4.111,-4.111,-4.111,-4.111,-4.1688,-4.2701,-4.4455,-4.5105,-4.591,-4.8236,-4.8984,-4.9243,-4.9535,-4.9531,-4.9478,-4.9488,-4.944,-4.9342,-4.9059,-4.8513,-4.8036,-4.7745,-4.6968,-4.6404,-4.6404,-4.6171,-4.5997,-4.5997,-4.6026,-4.6037,-4.6095,-4.6114,-4.6132,-4.6122,-4.6166,-4.564,-4.4392,-4.4156,-4.3728,-4.3069,-4.2216,-4.249,-4.3918,-4.3703,-4.4093,-4.5028,-4.5714,-4.5964,-3.1017,-3.1409,-3.2454,-3.4166,-3.4607,-3.5295,-3.7821,-3.7016,-3.6687,-4.0089,-3.883,-3.7377,-3.8224,-3.7764,-3.7787,-3.9499,-4.1182,-4.2305,-4.2382,-4.1632,-4.0764,-3.9899,-3.9091,-3.8593,-3.8593,-3.8525,-3.8498,-3.8498,-3.8506,-3.8883,-3.9764,-3.9799,-4.0194,-4.1074,-4.1109,-4.111,-4.111,-4.111,-4.111,-4.111,-4.111,-4.1565,-4.2362,-4.1487,-4.111,-4.111,-4.111,-4.111,-4.111,-4.111,-4.1578,-4.2221,-4.1422,-4.2124,-4.3383,-4.1714,-4.1617,-4.2202,-4.1383,-4.111,-4.111,-4.111,-4.111,-4.111,-4.111,-4.111,-4.111,-4.113,-4.1701,-4.27,-4.4442,-4.5533,-4.6644,-4.8397,-4.9414,-5.0235,-5.1111,-5.1249,-5.1181,-5.12,-5.1189,-5.0906,-5.0068,-4.9901,-4.9609,-4.8735,-4.7861,-4.7298,-4.7298,-4.6521,-4.5997,-4.5997,-4.6066,-4.6095,-4.6095,-4.616,-4.6205,-4.6205,-4.6208,-4.6208,-4.6185,-4.3642,-4.3069,-4.4842,-4.2285,-4.2208,-4.4793,-4.4003,-4.4394,-4.5917,-4.6027,-4.6027,-3.0867,-3.2725,-3.4568,-3.3861,-3.5522,-3.7527,-3.8249,-3.7972,-3.8061,-3.9691,-3.8984,-3.7981,-3.7627,-3.8863,-3.9507,-3.8194,-3.9928,-4.1251,-4.0657,-4.0359,-3.988,-3.9055,-3.8746,-3.8355,-3.775,-3.817,-3.8495,-3.8506,-3.8502,-3.915,-4.0645,-4.0125,-4.0195,-4.1062,-4.1108,-4.11,-4.111,-4.1707,-4.1713,-4.1109,-4.1713,-4.1824,-4.1487,-4.1227,-4.111,-4.111,-4.111,-4.1065,-4.1032,-4.1032,-4.1195,-4.15,-4.1831,-4.226,-4.263,-4.2124,-4.2104,-4.2279,-4.2026,-4.1578,-4.1188,-4.1753,-4.1559,-4.1208,-4.1773,-4.1559,-4.1344,-4.2533,-4.259,-4.2564,-4.3695,-4.5098,-4.6785,-4.9095,-4.9835,-5.0235,-5.1054,-5.0734,-5.0461,-5.1072,-5.0712,-5.0398,-5.0755,-5.0309,-4.9804,-4.9551,-4.825,-4.7114,-4.6533,-4.6182,-4.6026,-4.6066,-4.6095,-4.6105,-4.6104,-4.6122,-4.6158,-4.6208,-4.6201,-4.592,-4.5309,-4.4522,-4.4067,-4.3981,-4.3205,-4.3478,-4.4865,-4.4639,-4.5043,-4.6037,-4.6084,-4.6047,-3.3151,-3.4594,-3.5905,-3.5898,-3.7209,-3.8572,-3.8882,-3.9171,-3.9552,-4.0065,-3.9544,-3.8811,-3.8322,-3.9508,-3.9919,-3.802,-3.9335,-4.0281,-3.9403,-3.9017,-3.8635,-3.8141,-3.777,-3.7363,-3.6823,-3.7212,-3.7502,-3.7504,-3.7799,-3.8583,-3.9994,-3.9902,-4.0192,-4.1072,-4.1097,-4.1096,-4.111,-4.1616,-4.1621,-4.1114,-4.1627,-4.1602,-4.1109,-4.1103,-4.1097,-4.1097,-4.1091,-4.1085,-4.1039,-4.1039,-4.1253,-4.1598,-4.1753,-4.2241,-4.2747,-4.2065,-4.2026,-4.2299,-4.2299,-4.1766,-4.1195,-4.202,-4.1747,-4.1163,-4.1669,-4.1481,-4.1377,-4.2714,-4.2953,-4.3016,-4.3895,-4.5134,-4.6625,-4.8522,-4.9506,-5.0217,-5.1026,-5.0508,-5.0167,-5.1042,-5.0495,-5.0076,-5.0581,-5.025,-4.9784,-4.9435,-4.8191,-4.7017,-4.6192,-4.6066,-4.6066,-4.6095,-4.6123,-4.6132,-4.6093,-4.6111,-4.6166,-4.6208,-4.6201,-4.5967,-4.5441,-4.5083,-4.4822,-4.4647,-4.3942,-4.4203,-4.5422,-4.5064,-4.5301,-4.6093,-4.6138,-4.6102,-3.6448,-3.6502,-3.6708,-3.9091,-3.9208,-3.8929,-3.974,-4.0369,-4.0777,-4.0699,-4.0221,-3.9773,-3.9593,-3.9645,-3.9414,-3.853,-3.9112,-3.9385,-3.8514,-3.7753,-3.7269,-3.7181,-3.6482,-3.6003,-3.5994,-3.5995,-3.6035,-3.6109,-3.6791,-3.7613,-3.8572,-3.9373,-4.0196,-4.1065,-4.11,-4.1091,-4.111,-4.1109,-4.1095,-4.1095,-4.1111,-4.1096,-4.1096,-4.11,-4.1095,-4.1095,-4.1097,-4.1091,-4.111,-4.1085,-4.1533,-4.2124,-4.1481,-4.2143,-4.3305,-4.1773,-4.1675,-4.2299,-4.2299,-4.1721,-4.1149,-4.202,-4.176,-4.113,-4.1182,-4.1208,-4.1377,-4.2194,-4.2988,-4.3797,-4.4659,-4.5488,-4.6336,-4.7287,-4.8671,-5.0033,-5.0994,-5.0526,-5.0134,-5.093,-5.0445,-4.9862,-4.9804,-4.9784,-4.9493,-4.8599,-4.7803,-4.7017,-4.6192,-4.6105,-4.6105,-4.6113,-4.6158,-4.6177,-4.6102,-4.6154,-4.6208,-4.6193,-4.6208,-4.6196,-4.6196,-4.5441,-4.5383,-4.6176,-4.4647,-4.462,-4.6196,-4.5402,-4.5379,-4.6102,-4.6162,-4.6181,-3.4296,-3.6036,-3.8072,-3.8637,-3.9676,-4.0598,-4.0779,-4.0376,-3.9789,-3.9142,-3.9926,-4.011,-3.8129,-3.8861,-3.9277,-3.7734,-3.8205,-3.8497,-3.7675,-3.7402,-3.7051,-3.6352,-3.6101,-3.5992,-3.5992,-3.5996,-3.6267,-3.6893,-3.7105,-3.7882,-3.944,-3.9696,-4.0203,-4.107,-4.1089,-4.1103,-4.111,-4.1095,-4.1111,-4.1111,-4.1105,-4.1094,-4.1101,-4.1091,-4.1109,-4.1097,-4.1039,-4.1059,-4.111,-4.1039,-4.1156,-4.1403,-4.187,-4.226,-4.2552,-4.2182,-4.2143,-4.2299,-4.2299,-4.1766,-4.1201,-4.202,-4.2176,-4.202,-4.2039,-4.2032,-4.222,-4.307,-4.3408,-4.3722,-4.4659,-4.5488,-4.6482,-4.8039,-4.8175,-4.8545,-5.0739,-5.0534,-4.9959,-5.0134,-5.0017,-4.9668,-4.9007,-4.8871,-4.858,-4.7706,-4.7414,-4.7008,-4.6201,-4.6095,-4.6114,-4.6177,-4.6185,-4.6185,-4.6185,-4.6193,-4.6201,-4.6189,-4.6201,-4.6201,-4.6196,-4.602,-4.602,-4.6196,-4.5838,-4.5838,-4.6196,-4.602,-4.6013,-4.6189,-4.6196,-4.6196,-3.5412,-3.6551,-3.7708,-3.9345,-4.0427,-4.1106,-4.1097,-4.0707,-3.9961,-3.8708,-3.9482,-3.9738,-3.7591,-3.86,-3.9061,-3.6967,-3.7359,-3.7632,-3.6804,-3.7035,-3.7136,-3.6687,-3.6967,-3.7207,-3.7205,-3.6825,-3.6758,-3.7165,-3.7585,-3.8221,-3.913,-3.9979,-4.0627,-4.1091,-4.1097,-4.1097,-4.111,-4.1095,-4.1106,-4.1096,-4.11,-4.1105,-4.1105,-4.1091,-4.1095,-4.111,-4.1059,-4.1065,-4.111,-4.1059,-4.1065,-4.1149,-4.1559,-4.1734,-4.1773,-4.2163,-4.2299,-4.2357,-4.2786,-4.237,-4.174,-4.2156,-4.202,-4.1682,-4.1682,-4.1675,-4.1941,-4.3202,-4.3236,-4.3285,-4.5023,-4.5481,-4.592,-4.767,-4.8049,-4.8604,-5.0748,-5.0522,-5.0017,-5.0445,-5.0192,-4.9609,-4.8755,-4.79,-4.7337,-4.7317,-4.6978,-4.6571,-4.6152,-4.6132,-4.6169,-4.6201,-4.6201,-4.6201,-4.6205,-4.6201,-4.6201,-4.6201,-4.6201,-4.6208,-4.6196,-4.6196,-4.6196,-4.6196,-4.6196,-4.6196,-4.6196,-4.6196,-4.6196,-4.6196,-4.6196,-4.6196,-3.6693,-3.7038,-3.7169,-4.0298,-4.1085,-4.1104,-4.1095,-4.092,-4.0372,-3.8934,-3.9206,-3.9147,-3.7304,-3.8224,-3.859,-3.6532,-3.6813,-3.7106,-3.6511,-3.7053,-3.7507,-3.7519,-3.8085,-3.8495,-3.8505,-3.7847,-3.7425,-3.7409,-3.8227,-3.8714,-3.8714,-4.0234,-4.111,-4.111,-4.111,-4.1033,-4.0877,-4.0875,-4.0808,-4.0643,-4.0799,-4.095,-4.1095,-4.1106,-4.1095,-4.1091,-4.0935,-4.0955,-4.1091,-4.0935,-4.0955,-4.111,-4.111,-4.111,-4.1188,-4.1851,-4.2182,-4.2377,-4.2981,-4.2889,-4.2473,-4.2195,-4.1799,-4.1383,-4.1084,-4.1201,-4.1692,-4.2935,-4.2976,-4.315,-4.5318,-4.5454,-4.5434,-4.7028,-4.8049,-4.9109,-5.065,-5.0406,-5.0076,-5.0639,-5.0056,-4.9221,-4.8502,-4.7298,-4.6696,-4.7414,-4.6833,-4.6319,-4.6327,-4.6255,-4.6193,-4.6196,-4.6196,-4.6189,-4.6193,-4.6208,-4.6189,-4.6193,-4.6208,-4.6196,-4.6196,-4.6196,-4.6196,-4.6196,-4.6196,-4.6196,-4.6196,-4.6196,-4.6196,-4.6196,-4.6196,-4.6196,-3.4125,-3.6085,-3.8615,-4.0545,-4.1069,-4.1086,-4.1022,-4.0427,-3.9821,-3.9658,-3.9657,-3.8965,-3.6511,-3.6868,-3.7421,-3.709,-3.7187,-3.75,-3.8079,-3.8275,-3.8337,-3.8337,-3.8424,-3.8509,-3.8509,-3.84,-3.833,-3.8324,-3.9123,-3.963,-3.963,-4.0565,-4.111,-4.111,-4.111,-4.074,-3.998,-3.9978,-3.9599,-3.8858,-3.9609,-4.0365,-4.1095,-4.1095,-4.1109,-4.1052,-4.0292,-4.0409,-4.1033,-4.0292,-4.0429,-4.111,-4.111,-4.111,-4.111,-4.1227,-4.1695,-4.2221,-4.1637,-4.2312,-4.3189,-4.1734,-4.2156,-4.2974,-4.1461,-4.205,-4.3136,-4.2546,-4.3374,-4.453,-4.489,-4.5454,-4.6173,-4.7165,-4.802,-4.8875,-4.9854,-4.9978,-4.9707,-4.9066,-4.825,-4.7609,-4.7492,-4.792,-4.8289,-4.8405,-4.7747,-4.7233,-4.7232,-4.6636,-4.6193,-4.6196,-4.6196,-4.6196,-4.6196,-4.6196,-4.6196,-4.6196,-4.6196,-4.6196,-4.6196,-4.6196,-4.6189,-4.6193,-4.6208,-4.6208,-4.6193,-4.6193,-4.6193,-4.6193,-4.6193,-4.6201,-3.3846,-3.6261,-3.8793,-4.0015,-4.0718,-4.1094,-4.106,-4.0758,-4.0351,-3.9898,-3.9776,-3.9112,-3.7009,-3.6947,-3.7045,-3.6601,-3.6543,-3.6855,-3.7667,-3.8197,-3.8685,-3.9161,-3.9663,-3.9962,-3.996,-3.9524,-3.924,-3.924,-3.9571,-3.9591,-3.9096,-4.0351,-4.0877,-4.0401,-4.0363,-4.0187,-3.9797,-3.9321,-3.8883,-3.8512,-3.9882,-4.0462,-4.0393,-4.0869,-4.0824,-4.039,-4.0487,-4.0467,-4.039,-4.0487,-4.076,-4.111,-4.111,-4.111,-4.1149,-4.1617,-4.2318,-4.2981,-4.263,-4.3293,-4.4052,-4.2338,-4.2273,-4.2629,-4.1388,-4.154,-4.2147,-4.2198,-4.2743,-4.3676,-4.5104,-4.5765,-4.6386,-4.7747,-4.8718,-4.9437,-4.9815,-4.9901,-4.9629,-4.8774,-4.79,-4.7453,-4.7939,-4.7561,-4.7358,-4.7844,-4.7242,-4.6725,-4.6733,-4.6427,-4.6208,-4.6196,-4.6196,-4.6196,-4.6196,-4.6196,-4.6196,-4.6201,-4.6201,-4.6174,-4.6146,-4.6146,-4.6138,-4.613,-4.6174,-4.6201,-4.6205,-4.6158,-4.6166,-4.6208,-4.6193,-4.6201,-3.3749,-3.5918,-3.785,-3.9155,-4.0117,-4.0834,-4.1054,-4.1094,-4.0895,-4.0254,-3.994,-3.9374,-3.8105,-3.7518,-3.7022,-3.6404,-3.6308,-3.6598,-3.7404,-3.809,-3.8829,-3.9696,-4.0368,-4.0866,-4.1078,-4.0506,-4.0039,-3.9825,-3.9805,-3.9519,-3.8862,-4.0064,-4.0474,-3.9822,-4.0017,-3.992,-3.9477,-3.8824,-3.8493,-3.8527,-3.9819,-4.0106,-3.9505,-4.0376,-4.0175,-3.9182,-4.0058,-4.0078,-3.9513,-4.0175,-4.0565,-4.0799,-4.1013,-4.111,-4.1169,-4.1773,-4.2552,-4.3266,-4.3266,-4.3994,-4.4618,-4.2877,-4.2461,-4.2427,-4.1326,-4.1135,-4.1488,-4.2296,-4.2694,-4.3355,-4.5453,-4.5997,-4.6327,-4.7628,-4.8774,-4.9687,-5.0134,-4.9881,-4.9435,-4.9007,-4.823,-4.7842,-4.8483,-4.7941,-4.7466,-4.767,-4.7202,-4.6761,-4.6536,-4.6325,-4.6196,-4.6196,-4.6196,-4.6196,-4.6196,-4.6391,-4.6442,-4.6212,-4.638,-4.6372,-4.6113,-4.6093,-4.6093,-4.6104,-4.6374,-4.6411,-4.6158,-4.6122,-4.613,-4.6181,-4.6407,-4.6505,-3.3007,-3.4178,-3.5493,-3.7949,-3.9211,-4.0076,-4.0917,-4.1053,-4.1006,-4.1026,-4.033,-3.9708,-3.9668,-3.8377,-3.7265,-3.716,-3.7141,-3.7433,-3.8318,-3.848,-3.8817,-3.9688,-3.985,-4.0195,-4.1013,-4.1052,-4.0682,-3.9864,-3.9805,-3.9786,-3.9727,-3.9825,-3.985,-3.9803,-4.059,-4.0246,-3.858,-3.8512,-3.8497,-3.85,-3.8597,-3.8617,-3.8597,-3.9474,-3.8948,-3.7389,-3.8266,-3.8617,-3.8578,-3.8617,-3.9123,-3.9961,-4.0779,-4.111,-4.111,-4.1149,-4.1675,-4.2377,-4.2377,-4.3487,-4.4618,-4.2863,-4.2856,-4.3218,-4.1505,-4.1527,-4.2315,-4.318,-4.4035,-4.487,-4.5763,-4.5997,-4.6016,-4.6113,-4.7434,-4.9124,-5.0775,-4.9823,-4.8891,-4.9668,-4.9124,-4.8541,-4.858,-4.9901,-5.0398,-4.8768,-4.8565,-4.8282,-4.7443,-4.6668,-4.6196,-4.6196,-4.6196,-4.6196,-4.6196,-4.6956,-4.7085,-4.6251,-4.6925,-4.6975,-4.6132,-4.6093,-4.6104,-4.6105,-4.6912,-4.6931,-4.6122,-4.6093,-4.6093,-4.6141,-4.6956,-4.7334,-3.2246,-3.3612,-3.5059,-3.6532,-3.8361,-3.9878,-4.0184,-4.067,-4.106,-4.1107,-4.0838,-4.0429,-3.9839,-3.8795,-3.7831,-3.7288,-3.7195,-3.7303,-3.7623,-3.7675,-3.7993,-3.887,-3.8967,-3.9084,-3.9396,-3.9941,-4.0136,-3.9825,-3.9805,-3.9805,-3.9797,-3.9265,-3.9226,-3.9783,-3.9563,-3.9126,-3.8517,-3.9043,-3.8766,-3.7688,-3.8789,-3.875,-3.7692,-3.8564,-3.8324,-3.7214,-3.7525,-3.7662,-3.7759,-3.887,-3.9513,-3.9883,-4.076,-4.111,-4.1091,-4.1059,-4.1935,-4.313,-4.3123,-4.3909,-4.4695,-4.3525,-4.2965,-4.2541,-4.1369,-4.1168,-4.1558,-4.2422,-4.2889,-4.3569,-4.5491,-4.6424,-4.7259,-4.8949,-4.9804,-5.0445,-5.1066,-5.027,-4.9357,-4.9104,-4.8813,-4.8599,-4.8599,-4.9116,-4.9332,-4.87,-4.8185,-4.7746,-4.7443,-4.6707,-4.6196,-4.6196,-4.6196,-4.6196,-4.6196,-4.65,-4.675,-4.6958,-4.7241,-4.7495,-4.7699,-4.7699,-4.7688,-4.7708,-4.8008,-4.7757,-4.6941,-4.7456,-4.7738,-4.7786,-4.803,-4.8184,-3.1504,-3.2714,-3.41,-3.5271,-3.6833,-3.8394,-3.9546,-4.0015,-4.0391,-4.0972,-4.1072,-4.0879,-4.0246,-3.9658,-3.8912,-3.7784,-3.759,-3.7609,-3.7611,-3.7611,-3.7948,-3.8805,-3.8922,-3.9045,-3.9337,-3.9902,-4.0117,-3.9825,-3.9805,-3.9805,-3.9797,-3.9246,-3.9343,-4.0207,-3.9399,-3.9073,-3.936,-3.9955,-3.9351,-3.7649,-3.8814,-3.8458,-3.6796,-3.7668,-3.7584,-3.6785,-3.7077,-3.7038,-3.6902,-3.8636,-3.9357,-3.9474,-4.0643,-4.1085,-4.1059,-4.1013,-4.1909,-4.3162,-4.3155,-4.3727,-4.4318,-4.3459,-4.2755,-4.2088,-4.1235,-4.0945,-4.1082,-4.1956,-4.2403,-4.3161,-4.5414,-4.6851,-4.825,-5.0289,-5.0755,-5.0833,-5.1144,-5.0522,-4.9823,-4.9532,-4.924,-4.9046,-4.9046,-4.9271,-4.9273,-4.87,-4.8399,-4.8174,-4.7871,-4.7389,-4.6956,-4.6663,-4.6897,-4.6956,-4.6663,-4.7155,-4.7579,-4.7825,-4.8088,-4.836,-4.858,-4.8599,-4.8599,-4.8599,-4.8891,-4.8766,-4.8243,-4.8485,-4.8612,-4.8662,-4.8944,-4.9255,0.0,0.0,0.0,-3.4237,-3.4703,-3.56,-3.8921,-3.9097,-3.9019,-4.0681,-4.1015,-4.0994,-4.0991,-4.0994,-4.0446,-3.8758,-3.8459,-3.8427,-3.8408,-3.8461,-3.8786,-3.9565,-3.9715,-4.0097,-4.0935,-4.1052,-4.0721,-3.9864,-3.9805,-3.9805,-3.9844,-3.9844,-4.0214,-4.1033,-4.0242,-4.0203,-4.1052,-4.107,-4.0193,-3.8461,-3.85,-3.7584,-3.5928,-3.6785,-3.6707,-3.5947,-3.6785,-3.6688,-3.6025,-3.7759,-3.848,-3.8675,-4.039,-4.1039,-4.1006,-4.1006,-4.1551,-4.2291,-4.233,-4.2875,-4.344,-4.2599,-4.2263,-4.2013,-4.1169,-4.0907,-4.1082,-4.1956,-4.2792,-4.3821,-4.555,-4.7279,-4.8832,-4.9707,-4.994,-5.0173,-5.1027,-5.0542,-5.0192,-5.1047,-5.0522,-4.994,-4.994,-5.0639,-5.0631,-4.8923,-4.9421,-4.9702,-4.8844,-4.8772,-4.8475,-4.7637,-4.83,-4.8456,-4.7618,-4.9025,-4.9603,-4.8798,-4.9469,-4.9526,-4.8716,-4.8677,-4.8677,-4.8677,-4.9512,-4.994,-4.994,-4.9098,-4.8681,-4.87,-4.9595,-5.0458,-3.0801,0.0,0.0,0.0,0.0,0.0,-3.6833,-3.8297,-3.9396,-3.9255,-4.0212,-4.1054,-4.1019,-4.1047,-4.0892,-4.0368,-3.975,-3.9117,-3.8486,-3.8427,-3.8512,-3.8726,-3.8825,-3.8949,-3.9202,-3.9799,-4.0058,0.0,-3.9805,-4.0078,-4.0721,-4.074,-4.0565,-4.0175,-3.9928,-3.9908,-4.0156,-4.0162,-3.9285,-3.7564,-3.8207,-3.7584,-3.5908,-3.6142,-3.6123,-3.5908,-3.6142,-3.6123,-3.5986,-3.7097,-3.7935,-3.8617,-3.9727,-4.0494,-4.1006,-4.0991,-4.1556,-4.2388,-4.298,-4.2949,-4.2719,-4.3069,-4.2332,-4.1274,-4.0994,-4.0907,-4.1082,-4.1956,-4.1917,-4.2306,-4.5239,-4.7279,-4.8988,-5.0484,-5.0833,-5.0911,-5.1144,-5.1008,-5.0911,-5.1144,-5.1008,-5.0833,-5.0833,-5.1047,-5.1047,-5.0553,-5.0167,-4.9868,-4.9673,-4.9117,-4.8655,-4.8456,-4.8651,-4.8682,-4.8394,-4.8777,-4.9206,-4.9547,-4.9779,-5.0068,-5.0464,-5.0484,-5.0484,-5.0484,-5.0717,-5.0833,-5.0833,-5.0612,-5.0476,-5.0476,-5.014,-5.0442,-3.0899,-3.1172,-3.1777,-3.2636,0.0,0.0,-3.5659,-3.7145,-3.838,-3.892,-4.0145,-4.1082,-4.1051,-4.1074,-4.1074,-4.1019,-4.06,-4.0095,-3.9552,-3.9478,-3.9482,-3.9482,-3.9512,-3.9546,-3.9546,-4.0026,-4.0351,-4.0351,-4.0351,-4.0565,-4.1071,-4.111,-4.0877,-4.037,-4.0351,-4.0351,-4.0351,-4.0351,-3.9474,-3.7759,-3.8266,-3.7578,-3.5903,-3.5908,-3.5908,-3.5903,-3.5908,-3.5908,-3.5942,-3.6448,-3.7163,-3.8085,-3.9312,-4.0065,-4.0505,-4.0875,-4.177,-4.286,-4.2972,-4.3147,-4.3292,-4.3033,-4.2295,-4.1431,-4.1033,-4.0907,-4.1005,-4.151,-4.2073,-4.3141,-4.5841,-4.7842,-4.9493,-5.0872,-5.1202,-5.1202,-5.1202,-5.1202,-5.1202,-5.1202,-5.1202,-5.1202,-5.1202,-5.1202,-5.1202,-5.1202,-5.0759,-5.0461,-5.049,-5.0063,-4.9642,-4.932,-4.9601,-4.9651,-4.9264,-4.9557,-4.9946,-5.0411,-5.0448,-5.0678,-5.1183,-5.1202,-5.1202,-5.1202,-5.1202,-5.1202,-5.1202,-5.1202,-5.1202,-5.1186,-5.0724,-5.0568,-3.1228,-3.0936,-3.115,-3.2031,-3.1621,0.0,-3.5115,-3.5932,-3.6618,-3.8785,-3.9995,-4.0648,-4.0546,-4.0617,-4.0635,-4.0461,-4.074,-4.0972,-4.0998,-4.0999,-4.0999,-4.0999,-4.1003,-4.0999,-4.0999,-4.1059,-4.1085,-4.1085,-4.111,-4.111,-4.111,-4.111,-4.111,-4.111,-4.1013,-4.0955,-4.0955,-4.0955,-4.0078,-3.8363,-3.8461,-3.7592,-3.5905,-3.5897,-3.5897,-3.5905,-3.5897,-3.5897,-3.5905,-3.5905,-3.6411,-3.7365,-3.902,-3.9662,-3.9809,-4.0687,-4.2043,-4.335,-4.2661,-4.3352,-4.4268,-4.282,-4.2208,-4.1898,-4.1121,-4.0907,-4.0927,-4.1024,-4.285,-4.5181,-4.6871,-4.858,-5.0114,-5.0989,-5.1202,-5.1202,-5.1202,-5.1202,-5.1202,-5.1202,-5.1202,-5.1202,-5.1202,-5.1202,-5.1202,-5.1202,-5.1206,-5.1208,-5.1189,-5.119,-5.0938,-5.0218,-5.0763,-5.0919,-5.0189,-5.0791,-5.1189,-5.1208,-5.1194,-5.1202,-5.1202,-5.1202,-5.1202,-5.1202,-5.1105,-5.1047,-5.1047,-5.1144,-5.1194,-5.1189,-5.1103,-5.0734,-3.2452,-3.1848,-3.2062,-3.2926,-3.25,0.0,-3.4471,-3.5506,-3.5935,-3.574,-3.695,-3.7831,-3.7114,-3.7577,-3.7812,-3.7081,-3.8709,-4.0271,-4.0909,-4.0998,-4.0993,-4.0993,-4.1003,-4.0999,-4.0999,-4.1011,-4.1013,-4.1013,-4.1065,-4.111,-4.111,-4.111,-4.111,-4.111,-4.0429,-4.0058,-4.0058,-4.0058,-3.9176,-3.7469,-3.815,-3.7598,-3.5905,-3.5892,-3.5911,-3.5905,-3.5892,-3.5911,-3.5905,-3.5905,-3.6411,-3.7293,-3.8358,-3.9149,-3.9809,-4.0684,-4.1657,-4.2622,-4.3092,-4.3025,-4.2762,-4.3132,-4.2306,-4.1121,-4.0946,-4.0907,-4.1043,-4.1743,-4.3316,-4.5181,-4.6871,-4.858,-5.0114,-5.0989,-5.1202,-5.1202,-5.1202,-5.1202,-5.1202,-5.1202,-5.1202,-5.1202,-5.1202,-5.1202,-5.1202,-5.1202,-5.1202,-5.1206,-5.1208,-5.12,-5.1152,-5.0977,-5.1113,-5.1142,-5.0986,-5.1122,-5.1197,-5.1194,-5.1202,-5.1202,-5.1202,-5.1202,-5.1202,-5.1202,-5.0506,-5.0148,-5.0167,-5.0864,-5.1194,-5.1169,-5.0539,-5.052,-3.334,-3.2758,-3.2859,-3.3285,-3.3074,0.0,0.0,-3.538,-3.6007,-3.6007,-3.7003,-3.7764,-3.7334,-3.7604,-3.7757,-3.7312,-3.8676,-3.9644,-3.9219,-4.0216,-4.0998,-4.0998,-4.1,-4.1006,-4.1006,-4.1006,-4.1013,-4.1059,-4.1085,-4.111,-4.111,-4.111,-4.111,-4.111,-4.0637,-4.0422,-4.0448,-4.0422,-3.9533,-3.7852,-3.828,-3.7566,-3.5845,-3.5878,-3.5878,-3.5845,-3.5898,-3.5878,-3.5845,-3.5845,-3.611,-3.6596,-3.75,-3.8344,-3.9167,-4.0023,-4.119,-4.2349,-4.2723,-4.3141,-4.351,-4.3491,-4.2908,-4.2112,-4.1684,-4.1238,-4.1179,-4.2481,-4.3792,-4.5298,-4.7395,-4.8921,-5.0118,-5.0989,-5.1202,-5.1202,-5.1202,-5.1202,-5.1202,-5.1202,-5.1202,-5.1202,-5.1202,-5.1202,-5.1202,-5.1202,-5.1202,-5.1202,-5.1206,-5.1206,-5.1197,-5.1208,-5.1208,-5.1197,-5.1206,-5.1206,-5.1194,-5.1202,-5.1202,-5.1202,-5.1202,-5.1194,-5.1023,-5.0606,-4.9741,-4.9304,-4.9304,-4.9731,-4.9945,-4.9946,-4.9537,-4.9342,-3.4183,-3.3618,-3.3622,-3.3641,-3.3524,-3.3661,0.0,0.0,0.0,-3.6645,-3.7324,-3.7714,-3.7558,-3.7667,-3.7706,-3.7558,-3.8397,-3.86,-3.724,-3.8926,-4.0283,-4.0277,-4.0699,-4.093,-4.0774,-4.061,-4.0669,-4.1046,-4.0773,-4.0753,-4.1091,-4.111,-4.1091,-4.1085,-4.1039,-4.1039,-4.1085,-4.1039,-4.0156,-3.8475,-3.8475,-3.7539,-3.5803,-3.5864,-3.5857,-3.5803,-3.5864,-3.5857,-3.5803,-3.5803,-3.5788,-3.5896,-3.6817,-3.7688,-3.8505,-3.9373,-4.0793,-4.2291,-4.2226,-4.3141,-4.419,-4.3491,-4.317,-4.2898,-4.2179,-4.1703,-4.1684,-4.3102,-4.4365,-4.5823,-4.8028,-4.9243,-5.0109,-5.0989,-5.1202,-5.1202,-5.1202,-5.1202,-5.1202,-5.1202,-5.1202,-5.1202,-5.1202,-5.1202,-5.1202,-5.1202,-5.1202,-5.1202,-5.1202,-5.1202,-5.1202,-5.1202,-5.1202,-5.1202,-5.1202,-5.1202,-5.1202,-5.1202,-5.1202,-5.1202,-5.1202,-5.1031,-5.0645,-4.9985,-4.8964,-4.8458,-4.8458,-4.8283,-4.837,-4.8701,-4.8699,-4.8319,-3.5269,-3.4387,-3.4405,-3.4515,-3.3977,-3.3836,-3.5479,0.0,-3.4878,-3.4975,0.0,-3.4897,-3.4113,0.0,0.0,-3.4094,-3.5366,-3.6364,-3.6176,-3.7064,-3.7704,-3.7636,-3.9635,-4.0695,-3.993,-3.9204,-3.9408,-4.0896,-3.963,-3.9481,-4.1013,-4.111,-4.1065,-4.1013,-4.1059,-4.1059,-4.1013,-4.1059,-4.0195,-3.8415,-3.8415,-3.7498,-3.5799,-3.5799,-3.5799,-3.5799,-3.5799,-3.5799,-3.5799,-3.5799,-3.5799,-3.5896,-3.6763,-3.7646,-3.8521,-3.9377,-4.0796,-4.2294,-4.2228,-4.2364,-4.2558,-4.2471,-4.1916,-4.1273,-4.1175,-4.2097,-4.3238,-4.3442,-4.524,-4.734,-4.834,-4.9245,-5.0109,-5.0989,-5.1202,-5.1202,-5.1202,-5.1202,-5.1202,-5.1202,-5.1202,-5.1202,-5.1202,-5.1202,-5.1202,-5.1202,-5.1202,-5.1202,-5.1202,-5.1202,-5.1202,-5.1202,-5.1202,-5.1202,-5.1202,-5.1202,-5.1202,-5.1202,-5.1202,-5.1202,-5.1202,-5.0445,-5.0009,-4.9912,-4.836,-4.7553,-4.7553,-4.6765,-4.7192,-4.8708,-4.871,-4.866,-3.5741,-3.5959,-3.6521,-3.5534,-3.5788,-3.6229,-3.5903,-3.5561,-3.5338,-3.5338,0.0,0.0,0.0,0.0,0.0,0.0,-3.5899,-3.6177,-3.4706,-3.6072,-3.7432,-3.794,-3.8926,-3.9602,-3.9747,-3.9876,-4.0237,-4.0953,-4.0351,-4.0278,-4.1,-4.1039,-4.1059,-4.1059,-4.0558,-4.0539,-4.1039,-4.0551,-3.9914,-3.9147,-3.8634,-3.7755,-3.6537,-3.6032,-3.5799,-3.5791,-3.5801,-3.5793,-3.5793,-3.5765,-3.5765,-3.5899,-3.6762,-3.7642,-3.8521,-3.9376,-4.0478,-4.1544,-4.1505,-4.1844,-4.2295,-4.23,-4.2046,-4.1666,-4.1159,-4.185,-4.3101,-4.4592,-4.6152,-4.7826,-4.9632,-5.0381,-5.075,-5.1117,-5.1202,-5.1202,-5.1202,-5.1202,-5.1202,-5.1202,-5.1202,-5.1202,-5.1202,-5.1202,-5.1202,-5.1202,-5.1202,-5.1202,-5.1202,-5.1202,-5.1202,-5.1202,-5.1202,-5.1202,-5.1202,-5.1202,-5.1202,-5.1202,-5.1202,-5.0981,-5.0519,-4.9623,-4.8923,-4.8458,-4.7262,-4.6639,-4.6639,-4.6288,-4.6491,-4.7201,-4.7192,-4.7192,-3.6726,-3.7208,-3.7638,-3.6096,-3.6686,-3.7314,-3.5989,-3.5743,-3.5772,-3.5772,-3.5801,0.0,0.0,0.0,-3.5852,-3.588,0.0,-3.5914,-3.4304,-3.5279,-3.6403,-3.7084,-3.7766,-3.8418,-3.9035,-3.9614,-4.0057,-4.0267,-4.0292,-4.0497,-4.0979,-4.1025,-4.1032,-4.1078,-4.0434,-4.0395,-4.1078,-4.04,-3.9937,-3.9684,-3.9066,-3.8166,-3.7072,-3.6451,-3.6015,-3.5773,-3.5775,-3.5775,-3.5775,-3.5737,-3.5765,-3.5915,-3.7025,-3.7855,-3.8532,-3.9409,-4.0283,-4.1019,-4.1006,-4.1428,-4.1961,-4.1964,-4.1969,-4.1897,-4.1482,-4.2139,-4.3442,-4.5511,-4.6909,-4.8224,-5.0312,-5.0848,-5.0886,-5.1136,-5.1202,-5.1202,-5.1202,-5.1202,-5.1125,-5.0891,-5.1047,-5.1125,-5.0872,-5.1047,-5.1202,-5.1202,-5.1202,-5.1202,-5.1202,-5.1202,-5.1105,-5.0872,-5.1066,-5.1105,-5.0853,-5.1058,-5.1194,-5.1206,-5.1206,-5.0839,-5.0014,-4.908,-4.8224,-4.7398,-4.6523,-4.6075,-4.6075,-4.6075,-4.6075,-4.6075,-4.6084,-4.6104,-3.8694,0.0,-3.6822,-3.5931,-3.5747,-3.5766,-3.5708,-3.5708,-3.5689,-3.5689,-3.565,-3.565,-3.5784,-3.5757,-3.5753,0.0,-3.5226,0.0,0.0,-3.4486,-3.3524,-3.3562,-3.5796,-3.7313,-3.7285,-3.7315,-3.764,-3.8414,-3.8475,-3.9225,-4.0918,-4.1052,-4.1071,-4.1015,-4.1032,-4.1032,-4.0996,-4.0979,-4.0524,-3.9699,-3.966,-3.8769,-3.7104,-3.7065,-3.657,-3.5708,-3.5708,-3.5708,-3.5708,-3.5775,-3.5795,-3.5976,-3.7697,-3.8415,-3.8594,-3.949,-4.0362,-4.109,-4.1025,-4.1058,-4.1144,-4.1144,-4.1146,-4.1288,-4.2031,-4.3461,-4.4994,-4.5851,-4.734,-4.8866,-4.9722,-4.9945,-5.0148,-5.0989,-5.1202,-5.1202,-5.1202,-5.1202,-5.095,-5.0114,-5.0619,-5.093,-5.0095,-5.0639,-5.1202,-5.1202,-5.1202,-5.1202,-5.1202,-5.1202,-5.0872,-5.0017,-5.0697,-5.0853,-4.9998,-5.0712,-5.12,-5.1201,-5.1211,-5.0812,-4.9945,-4.907,-4.8185,-4.7317,-4.6443,-4.6007,-4.6007,-4.6007,-4.6007,-4.6007,-4.6066,-4.6105,0.0,0.0,-4.0676,-3.8016,0.0,0.0,-3.6107,-3.5604,-3.5626,-3.5626,-3.5609,-3.5631,-3.5717,-3.5242,0.0,0.0,-3.4652,-3.3866,0.0,-3.3262,-3.2545,-3.2537,-3.485,-3.6657,-3.7216,-3.8262,-3.904,-3.9307,-3.9813,-4.0389,-4.0967,-4.1017,-4.1045,-4.1071,-4.0487,-4.0448,-4.0999,-4.0431,-4.0279,-4.0555,-3.9974,-3.9392,-3.8801,-3.8218,-3.7791,-3.7491,-3.7434,-3.7444,-3.7434,-3.6891,-3.6701,-3.6785,-3.737,-3.7976,-3.8673,-4.0129,-4.0848,-4.1107,-4.1064,-4.1074,-4.1191,-4.1777,-4.1953,-4.2108,-4.2915,-4.4343,-4.5878,-4.6727,-4.8184,-4.9702,-5.0545,-5.0748,-5.0825,-5.1125,-5.1202,-5.1047,-5.0464,-5.0328,-5.0076,-4.9202,-4.9279,-4.9396,-4.9085,-4.9279,-4.9687,-5.025,-5.0328,-5.0134,-4.9551,-4.9473,-4.9376,-4.9066,-4.9299,-4.9601,-4.9876,-5.0694,-5.123,-5.1258,-5.122,-5.0821,-4.9994,-4.9673,-4.9119,-4.8234,-4.7378,-4.6921,-4.6921,-4.6298,-4.5997,-4.5997,-4.6026,-4.6037,-4.1918,-4.2447,0.0,-3.981,-4.0005,0.0,-3.7131,0.0,-3.6524,-3.6524,-3.5999,-3.5955,-3.7335,-3.6076,-3.5136,0.0,0.0,-3.3574,0.0,-3.2454,-3.2088,-3.2101,-3.4124,-3.5754,-3.6325,-3.7614,-3.8672,-3.9297,-3.9815,-4.0363,-4.0972,-4.1022,-4.1047,-4.107,-4.0468,-4.0434,-4.0999,-4.0143,-4.0127,-4.0954,-4.012,-3.9694,-3.9646,-3.9111,-3.8694,-3.8374,-3.8026,-3.7899,-3.7861,-3.7016,-3.6696,-3.6781,-3.7086,-3.775,-3.8702,-4.0137,-4.0871,-4.1125,-4.1111,-4.1097,-4.1183,-4.1757,-4.2147,-4.2558,-4.3366,-4.4571,-4.5961,-4.7428,-4.8603,-4.9701,-5.0903,-5.1202,-5.1125,-5.0814,-5.0736,-5.0503,-4.9629,-4.9435,-4.9182,-4.8308,-4.8386,-4.8502,-4.8191,-4.8397,-4.8785,-4.9337,-4.9435,-4.9221,-4.8677,-4.8599,-4.8483,-4.8172,-4.8425,-4.8971,-4.9858,-5.0724,-5.1258,-5.1295,-5.1267,-5.0849,-5.0021,-4.9993,-4.943,-4.8263,-4.7981,-4.7709,-4.7408,-4.6785,-4.6503,-4.6484,-4.6162,-4.5997]}]]